<?xml version="1.0" encoding="UTF-8" standalone="no" ?>
<gpx xmlns="http://www.topografix.com/GPX/1/1" xmlns:xsi="http://www.w3.org/2001/XMLSchema-instance" xsi:schemaLocation="http://www.topografix.com/GPX/1/1 http://www.topografix.com/GPX/1/1/gpx.xsd" version="1.1" creator="VisuGPX - https://www.visugpx.com">
  <metadata>
    <name>RBX PAYS DE SAINT FLOUR </name>
  </metadata>
  <trk>
    <name><![CDATA[9391472-RBX]]></name>
    <trkseg>
      <trkpt lat="45.03393" lon="3.09504">
        <ele>882</ele>
        <time>2019-01-07T16:02:59Z</time>
      </trkpt>
      <trkpt lat="45.0341" lon="3.09492">
        <ele>883</ele>
        <time>2019-01-07T16:03:59Z</time>
      </trkpt>
      <trkpt lat="45.03386" lon="3.09467">
        <ele>885</ele>
        <time>2019-01-07T16:04:59Z</time>
      </trkpt>
      <trkpt lat="45.03402" lon="3.09418">
        <ele>888</ele>
        <time>2019-01-07T16:05:59Z</time>
      </trkpt>
      <trkpt lat="45.03411" lon="3.09376">
        <ele>888</ele>
        <time>2019-01-07T16:06:59Z</time>
      </trkpt>
      <trkpt lat="45.03422" lon="3.09334">
        <ele>887</ele>
        <time>2019-01-07T16:07:59Z</time>
      </trkpt>
      <trkpt lat="45.03432" lon="3.09285">
        <ele>885</ele>
        <time>2019-01-07T16:08:59Z</time>
      </trkpt>
      <trkpt lat="45.03444" lon="3.09218">
        <ele>881</ele>
        <time>2019-01-07T16:09:59Z</time>
      </trkpt>
      <trkpt lat="45.03451" lon="3.09176">
        <ele>880</ele>
        <time>2019-01-07T16:10:59Z</time>
      </trkpt>
      <trkpt lat="45.0342" lon="3.09138">
        <ele>882</ele>
        <time>2019-01-07T16:11:59Z</time>
      </trkpt>
      <trkpt lat="45.0344" lon="3.09041">
        <ele>880</ele>
        <time>2019-01-07T16:12:59Z</time>
      </trkpt>
      <trkpt lat="45.03459" lon="3.0894">
        <ele>879</ele>
        <time>2019-01-07T16:13:59Z</time>
      </trkpt>
      <trkpt lat="45.03467" lon="3.08902">
        <ele>878</ele>
        <time>2019-01-07T16:14:59Z</time>
      </trkpt>
      <trkpt lat="45.03477" lon="3.08892">
        <ele>877</ele>
        <time>2019-01-07T16:15:59Z</time>
      </trkpt>
      <trkpt lat="45.03472" lon="3.0888">
        <ele>878</ele>
        <time>2019-01-07T16:16:59Z</time>
      </trkpt>
      <trkpt lat="45.03464" lon="3.08879">
        <ele>878</ele>
        <time>2019-01-07T16:17:59Z</time>
      </trkpt>
      <trkpt lat="45.03457" lon="3.08884">
        <ele>879</ele>
        <time>2019-01-07T16:18:59Z</time>
      </trkpt>
      <trkpt lat="45.03441" lon="3.08878">
        <ele>880</ele>
        <time>2019-01-07T16:19:59Z</time>
      </trkpt>
      <trkpt lat="45.03419" lon="3.08871">
        <ele>882</ele>
        <time>2019-01-07T16:20:59Z</time>
      </trkpt>
      <trkpt lat="45.033" lon="3.0882">
        <ele>879</ele>
        <time>2019-01-07T16:21:59Z</time>
      </trkpt>
      <trkpt lat="45.03295" lon="3.0881">
        <ele>878</ele>
        <time>2019-01-07T16:22:59Z</time>
      </trkpt>
      <trkpt lat="45.03288" lon="3.08812">
        <ele>878</ele>
        <time>2019-01-07T16:23:59Z</time>
      </trkpt>
      <trkpt lat="45.03281" lon="3.08817">
        <ele>877</ele>
        <time>2019-01-07T16:24:59Z</time>
      </trkpt>
      <trkpt lat="45.03267" lon="3.08808">
        <ele>876</ele>
        <time>2019-01-07T16:25:59Z</time>
      </trkpt>
      <trkpt lat="45.03255" lon="3.088">
        <ele>875</ele>
        <time>2019-01-07T16:26:59Z</time>
      </trkpt>
      <trkpt lat="45.0325" lon="3.08786">
        <ele>874</ele>
        <time>2019-01-07T16:27:59Z</time>
      </trkpt>
      <trkpt lat="45.0325" lon="3.08765">
        <ele>874</ele>
        <time>2019-01-07T16:28:59Z</time>
      </trkpt>
      <trkpt lat="45.03264" lon="3.08732">
        <ele>874</ele>
        <time>2019-01-07T16:29:59Z</time>
      </trkpt>
      <trkpt lat="45.03268" lon="3.08707">
        <ele>874</ele>
        <time>2019-01-07T16:30:59Z</time>
      </trkpt>
      <trkpt lat="45.03268" lon="3.08689">
        <ele>873</ele>
        <time>2019-01-07T16:31:59Z</time>
      </trkpt>
      <trkpt lat="45.03264" lon="3.08655">
        <ele>871</ele>
        <time>2019-01-07T16:32:59Z</time>
      </trkpt>
      <trkpt lat="45.03258" lon="3.08618">
        <ele>870</ele>
        <time>2019-01-07T16:33:59Z</time>
      </trkpt>
      <trkpt lat="45.03251" lon="3.08579">
        <ele>868</ele>
        <time>2019-01-07T16:34:59Z</time>
      </trkpt>
      <trkpt lat="45.03244" lon="3.0854">
        <ele>867</ele>
        <time>2019-01-07T16:35:59Z</time>
      </trkpt>
      <trkpt lat="45.03232" lon="3.08473">
        <ele>862</ele>
        <time>2019-01-07T16:36:59Z</time>
      </trkpt>
      <trkpt lat="45.03226" lon="3.0843">
        <ele>860</ele>
        <time>2019-01-07T16:37:59Z</time>
      </trkpt>
      <trkpt lat="45.0322" lon="3.08392">
        <ele>858</ele>
        <time>2019-01-07T16:38:59Z</time>
      </trkpt>
      <trkpt lat="45.03217" lon="3.08339">
        <ele>857</ele>
        <time>2019-01-07T16:39:59Z</time>
      </trkpt>
      <trkpt lat="45.03216" lon="3.08291">
        <ele>856</ele>
        <time>2019-01-07T16:40:59Z</time>
      </trkpt>
      <trkpt lat="45.0321" lon="3.08281">
        <ele>854</ele>
        <time>2019-01-07T16:41:59Z</time>
      </trkpt>
      <trkpt lat="45.03201" lon="3.08277">
        <ele>850</ele>
        <time>2019-01-07T16:42:59Z</time>
      </trkpt>
      <trkpt lat="45.03194" lon="3.08283">
        <ele>847</ele>
        <time>2019-01-07T16:43:59Z</time>
      </trkpt>
      <trkpt lat="45.03192" lon="3.08306">
        <ele>847</ele>
        <time>2019-01-07T16:44:59Z</time>
      </trkpt>
      <trkpt lat="45.03191" lon="3.0834">
        <ele>847</ele>
        <time>2019-01-07T16:45:59Z</time>
      </trkpt>
      <trkpt lat="45.03191" lon="3.08366">
        <ele>846</ele>
        <time>2019-01-07T16:46:59Z</time>
      </trkpt>
      <trkpt lat="45.03189" lon="3.08424">
        <ele>844</ele>
        <time>2019-01-07T16:47:59Z</time>
      </trkpt>
      <trkpt lat="45.03186" lon="3.08507">
        <ele>843</ele>
        <time>2019-01-07T16:48:59Z</time>
      </trkpt>
      <trkpt lat="45.03184" lon="3.08539">
        <ele>842</ele>
        <time>2019-01-07T16:49:59Z</time>
      </trkpt>
      <trkpt lat="45.0318" lon="3.08565">
        <ele>841</ele>
        <time>2019-01-07T16:50:59Z</time>
      </trkpt>
      <trkpt lat="45.0317" lon="3.08596">
        <ele>838</ele>
        <time>2019-01-07T16:51:59Z</time>
      </trkpt>
      <trkpt lat="45.03146" lon="3.08653">
        <ele>832</ele>
        <time>2019-01-07T16:52:59Z</time>
      </trkpt>
      <trkpt lat="45.03121" lon="3.08714">
        <ele>828</ele>
        <time>2019-01-07T16:53:59Z</time>
      </trkpt>
      <trkpt lat="45.03101" lon="3.08774">
        <ele>825</ele>
        <time>2019-01-07T16:54:59Z</time>
      </trkpt>
      <trkpt lat="45.03092" lon="3.08846">
        <ele>822</ele>
        <time>2019-01-07T16:55:59Z</time>
      </trkpt>
      <trkpt lat="45.03084" lon="3.08915">
        <ele>814</ele>
        <time>2019-01-07T16:56:59Z</time>
      </trkpt>
      <trkpt lat="45.03077" lon="3.09008">
        <ele>811</ele>
        <time>2019-01-07T16:57:59Z</time>
      </trkpt>
      <trkpt lat="45.03067" lon="3.09104">
        <ele>811</ele>
        <time>2019-01-07T16:58:59Z</time>
      </trkpt>
      <trkpt lat="45.03059" lon="3.0916">
        <ele>810</ele>
        <time>2019-01-07T16:59:59Z</time>
      </trkpt>
      <trkpt lat="45.0306" lon="3.09207">
        <ele>808</ele>
        <time>2019-01-07T17:00:59Z</time>
      </trkpt>
      <trkpt lat="45.03062" lon="3.09328">
        <ele>802</ele>
        <time>2019-01-07T17:01:59Z</time>
      </trkpt>
      <trkpt lat="45.0307" lon="3.09409">
        <ele>798</ele>
        <time>2019-01-07T17:02:59Z</time>
      </trkpt>
      <trkpt lat="45.03089" lon="3.09538">
        <ele>790</ele>
        <time>2019-01-07T17:03:59Z</time>
      </trkpt>
      <trkpt lat="45.03104" lon="3.09599">
        <ele>792</ele>
        <time>2019-01-07T17:04:59Z</time>
      </trkpt>
      <trkpt lat="45.03141" lon="3.09709">
        <ele>789</ele>
        <time>2019-01-07T17:05:59Z</time>
      </trkpt>
      <trkpt lat="45.03195" lon="3.09875">
        <ele>783</ele>
        <time>2019-01-07T17:06:59Z</time>
      </trkpt>
      <trkpt lat="45.03212" lon="3.0993">
        <ele>782</ele>
        <time>2019-01-07T17:07:59Z</time>
      </trkpt>
      <trkpt lat="45.03226" lon="3.09971">
        <ele>782</ele>
        <time>2019-01-07T17:08:59Z</time>
      </trkpt>
      <trkpt lat="45.03261" lon="3.10009">
        <ele>778</ele>
        <time>2019-01-07T17:09:59Z</time>
      </trkpt>
      <trkpt lat="45.03316" lon="3.1006">
        <ele>776</ele>
        <time>2019-01-07T17:10:59Z</time>
      </trkpt>
      <trkpt lat="45.03333" lon="3.1007">
        <ele>775</ele>
        <time>2019-01-07T17:11:59Z</time>
      </trkpt>
      <trkpt lat="45.03345" lon="3.10082">
        <ele>775</ele>
        <time>2019-01-07T17:12:59Z</time>
      </trkpt>
      <trkpt lat="45.03362" lon="3.1039">
        <ele>774</ele>
        <time>2019-01-07T17:13:59Z</time>
      </trkpt>
      <trkpt lat="45.03374" lon="3.1063">
        <ele>772</ele>
        <time>2019-01-07T17:14:59Z</time>
      </trkpt>
      <trkpt lat="45.03389" lon="3.10919">
        <ele>773</ele>
        <time>2019-01-07T17:15:59Z</time>
      </trkpt>
      <trkpt lat="45.03391" lon="3.11008">
        <ele>775</ele>
        <time>2019-01-07T17:16:59Z</time>
      </trkpt>
      <trkpt lat="45.03386" lon="3.11036">
        <ele>778</ele>
        <time>2019-01-07T17:17:59Z</time>
      </trkpt>
      <trkpt lat="45.03381" lon="3.11059">
        <ele>780</ele>
        <time>2019-01-07T17:18:59Z</time>
      </trkpt>
      <trkpt lat="45.03372" lon="3.11079">
        <ele>780</ele>
        <time>2019-01-07T17:19:59Z</time>
      </trkpt>
      <trkpt lat="45.03344" lon="3.11096">
        <ele>778</ele>
        <time>2019-01-07T17:20:59Z</time>
      </trkpt>
      <trkpt lat="45.03317" lon="3.1111">
        <ele>777</ele>
        <time>2019-01-07T17:21:59Z</time>
      </trkpt>
      <trkpt lat="45.03291" lon="3.1113">
        <ele>778</ele>
        <time>2019-01-07T17:22:59Z</time>
      </trkpt>
      <trkpt lat="45.03255" lon="3.11175">
        <ele>778</ele>
        <time>2019-01-07T17:23:59Z</time>
      </trkpt>
      <trkpt lat="45.0323" lon="3.11231">
        <ele>779</ele>
        <time>2019-01-07T17:24:59Z</time>
      </trkpt>
      <trkpt lat="45.03213" lon="3.11264">
        <ele>779</ele>
        <time>2019-01-07T17:25:59Z</time>
      </trkpt>
      <trkpt lat="45.03194" lon="3.11289">
        <ele>778</ele>
        <time>2019-01-07T17:26:59Z</time>
      </trkpt>
      <trkpt lat="45.03181" lon="3.11307">
        <ele>777</ele>
        <time>2019-01-07T17:27:59Z</time>
      </trkpt>
      <trkpt lat="45.03134" lon="3.11369">
        <ele>776</ele>
        <time>2019-01-07T17:28:59Z</time>
      </trkpt>
      <trkpt lat="45.03114" lon="3.11406">
        <ele>775</ele>
        <time>2019-01-07T17:29:59Z</time>
      </trkpt>
      <trkpt lat="45.03107" lon="3.11441">
        <ele>775</ele>
        <time>2019-01-07T17:30:59Z</time>
      </trkpt>
      <trkpt lat="45.0311" lon="3.11477">
        <ele>776</ele>
        <time>2019-01-07T17:31:59Z</time>
      </trkpt>
      <trkpt lat="45.03139" lon="3.1155">
        <ele>781</ele>
        <time>2019-01-07T17:32:59Z</time>
      </trkpt>
      <trkpt lat="45.03162" lon="3.11604">
        <ele>781</ele>
        <time>2019-01-07T17:33:59Z</time>
      </trkpt>
      <trkpt lat="45.03183" lon="3.11657">
        <ele>784</ele>
        <time>2019-01-07T17:34:59Z</time>
      </trkpt>
      <trkpt lat="45.03203" lon="3.11709">
        <ele>787</ele>
        <time>2019-01-07T17:35:59Z</time>
      </trkpt>
      <trkpt lat="45.03226" lon="3.11773">
        <ele>788</ele>
        <time>2019-01-07T17:36:59Z</time>
      </trkpt>
      <trkpt lat="45.03237" lon="3.11807">
        <ele>787</ele>
        <time>2019-01-07T17:37:59Z</time>
      </trkpt>
      <trkpt lat="45.03249" lon="3.11864">
        <ele>785</ele>
        <time>2019-01-07T17:38:59Z</time>
      </trkpt>
      <trkpt lat="45.03267" lon="3.11982">
        <ele>786</ele>
        <time>2019-01-07T17:39:59Z</time>
      </trkpt>
      <trkpt lat="45.0328" lon="3.12063">
        <ele>788</ele>
        <time>2019-01-07T17:40:59Z</time>
      </trkpt>
      <trkpt lat="45.03308" lon="3.1207">
        <ele>787</ele>
        <time>2019-01-07T17:41:59Z</time>
      </trkpt>
      <trkpt lat="45.03415" lon="3.12399">
        <ele>793</ele>
        <time>2019-01-07T17:42:59Z</time>
      </trkpt>
      <trkpt lat="45.0343" lon="3.12484">
        <ele>793</ele>
        <time>2019-01-07T17:43:59Z</time>
      </trkpt>
      <trkpt lat="45.03434" lon="3.12562">
        <ele>795</ele>
        <time>2019-01-07T17:44:59Z</time>
      </trkpt>
      <trkpt lat="45.03476" lon="3.12584">
        <ele>796</ele>
        <time>2019-01-07T17:45:59Z</time>
      </trkpt>
      <trkpt lat="45.03523" lon="3.12652">
        <ele>793</ele>
        <time>2019-01-07T17:46:59Z</time>
      </trkpt>
      <trkpt lat="45.03608" lon="3.12713">
        <ele>795</ele>
        <time>2019-01-07T17:47:59Z</time>
      </trkpt>
      <trkpt lat="45.03652" lon="3.12746">
        <ele>795</ele>
        <time>2019-01-07T17:48:59Z</time>
      </trkpt>
      <trkpt lat="45.03679" lon="3.12782">
        <ele>795</ele>
        <time>2019-01-07T17:49:59Z</time>
      </trkpt>
      <trkpt lat="45.03696" lon="3.12824">
        <ele>796</ele>
        <time>2019-01-07T17:50:59Z</time>
      </trkpt>
      <trkpt lat="45.03699" lon="3.12911">
        <ele>798</ele>
        <time>2019-01-07T17:51:59Z</time>
      </trkpt>
      <trkpt lat="45.03764" lon="3.13047">
        <ele>804</ele>
        <time>2019-01-07T17:52:59Z</time>
      </trkpt>
      <trkpt lat="45.03795" lon="3.13131">
        <ele>806</ele>
        <time>2019-01-07T17:53:59Z</time>
      </trkpt>
      <trkpt lat="45.03806" lon="3.13194">
        <ele>807</ele>
        <time>2019-01-07T17:54:59Z</time>
      </trkpt>
      <trkpt lat="45.0381" lon="3.13261">
        <ele>808</ele>
        <time>2019-01-07T17:55:59Z</time>
      </trkpt>
      <trkpt lat="45.03805" lon="3.13498">
        <ele>810</ele>
        <time>2019-01-07T17:56:59Z</time>
      </trkpt>
      <trkpt lat="45.038" lon="3.13877">
        <ele>817</ele>
        <time>2019-01-07T17:57:59Z</time>
      </trkpt>
      <trkpt lat="45.03824" lon="3.13929">
        <ele>819</ele>
        <time>2019-01-07T17:58:59Z</time>
      </trkpt>
      <trkpt lat="45.03864" lon="3.13962">
        <ele>820</ele>
        <time>2019-01-07T17:59:59Z</time>
      </trkpt>
      <trkpt lat="45.03908" lon="3.14005">
        <ele>822</ele>
        <time>2019-01-07T18:00:59Z</time>
      </trkpt>
      <trkpt lat="45.03947" lon="3.14071">
        <ele>826</ele>
        <time>2019-01-07T18:01:59Z</time>
      </trkpt>
      <trkpt lat="45.03959" lon="3.14127">
        <ele>827</ele>
        <time>2019-01-07T18:02:59Z</time>
      </trkpt>
      <trkpt lat="45.03962" lon="3.14179">
        <ele>827</ele>
        <time>2019-01-07T18:03:59Z</time>
      </trkpt>
      <trkpt lat="45.03933" lon="3.14363">
        <ele>830</ele>
        <time>2019-01-07T18:04:59Z</time>
      </trkpt>
      <trkpt lat="45.03921" lon="3.14454">
        <ele>830</ele>
        <time>2019-01-07T18:05:59Z</time>
      </trkpt>
      <trkpt lat="45.03927" lon="3.14509">
        <ele>833</ele>
        <time>2019-01-07T18:06:59Z</time>
      </trkpt>
      <trkpt lat="45.03945" lon="3.14565">
        <ele>832</ele>
        <time>2019-01-07T18:07:59Z</time>
      </trkpt>
      <trkpt lat="45.03987" lon="3.14675">
        <ele>831</ele>
        <time>2019-01-07T18:08:59Z</time>
      </trkpt>
      <trkpt lat="45.04006" lon="3.14733">
        <ele>831</ele>
        <time>2019-01-07T18:09:59Z</time>
      </trkpt>
      <trkpt lat="45.04047" lon="3.14782">
        <ele>831</ele>
        <time>2019-01-07T18:10:59Z</time>
      </trkpt>
      <trkpt lat="45.04082" lon="3.148">
        <ele>829</ele>
        <time>2019-01-07T18:11:59Z</time>
      </trkpt>
      <trkpt lat="45.04141" lon="3.14809">
        <ele>827</ele>
        <time>2019-01-07T18:12:59Z</time>
      </trkpt>
      <trkpt lat="45.04181" lon="3.14808">
        <ele>828</ele>
        <time>2019-01-07T18:13:59Z</time>
      </trkpt>
      <trkpt lat="45.04211" lon="3.14844">
        <ele>828</ele>
        <time>2019-01-07T18:14:59Z</time>
      </trkpt>
      <trkpt lat="45.04235" lon="3.14946">
        <ele>825</ele>
        <time>2019-01-07T18:15:59Z</time>
      </trkpt>
      <trkpt lat="45.04273" lon="3.15009">
        <ele>825</ele>
        <time>2019-01-07T18:16:59Z</time>
      </trkpt>
      <trkpt lat="45.0429" lon="3.15134">
        <ele>824</ele>
        <time>2019-01-07T18:17:59Z</time>
      </trkpt>
      <trkpt lat="45.04338" lon="3.15193">
        <ele>825</ele>
        <time>2019-01-07T18:18:59Z</time>
      </trkpt>
      <trkpt lat="45.04431" lon="3.1523">
        <ele>823</ele>
        <time>2019-01-07T18:19:59Z</time>
      </trkpt>
      <trkpt lat="45.04611" lon="3.15311">
        <ele>819</ele>
        <time>2019-01-07T18:20:59Z</time>
      </trkpt>
      <trkpt lat="45.04654" lon="3.15365">
        <ele>819</ele>
        <time>2019-01-07T18:21:59Z</time>
      </trkpt>
      <trkpt lat="45.04732" lon="3.15565">
        <ele>820</ele>
        <time>2019-01-07T18:22:59Z</time>
      </trkpt>
      <trkpt lat="45.04735" lon="3.15646">
        <ele>824</ele>
        <time>2019-01-07T18:23:59Z</time>
      </trkpt>
      <trkpt lat="45.04678" lon="3.15717">
        <ele>828</ele>
        <time>2019-01-07T18:24:59Z</time>
      </trkpt>
      <trkpt lat="45.04626" lon="3.15791">
        <ele>835</ele>
        <time>2019-01-07T18:25:59Z</time>
      </trkpt>
      <trkpt lat="45.04605" lon="3.15852">
        <ele>840</ele>
        <time>2019-01-07T18:26:59Z</time>
      </trkpt>
      <trkpt lat="45.04594" lon="3.15917">
        <ele>842</ele>
        <time>2019-01-07T18:27:59Z</time>
      </trkpt>
      <trkpt lat="45.04601" lon="3.16001">
        <ele>846</ele>
        <time>2019-01-07T18:28:59Z</time>
      </trkpt>
      <trkpt lat="45.0461" lon="3.16061">
        <ele>850</ele>
        <time>2019-01-07T18:29:59Z</time>
      </trkpt>
      <trkpt lat="45.04589" lon="3.16177">
        <ele>849</ele>
        <time>2019-01-07T18:30:59Z</time>
      </trkpt>
      <trkpt lat="45.04568" lon="3.16214">
        <ele>850</ele>
        <time>2019-01-07T18:31:59Z</time>
      </trkpt>
      <trkpt lat="45.0445" lon="3.16294">
        <ele>857</ele>
        <time>2019-01-07T18:32:59Z</time>
      </trkpt>
      <trkpt lat="45.0438" lon="3.16334">
        <ele>859</ele>
        <time>2019-01-07T18:33:59Z</time>
      </trkpt>
      <trkpt lat="45.04232" lon="3.16414">
        <ele>856</ele>
        <time>2019-01-07T18:34:59Z</time>
      </trkpt>
      <trkpt lat="45.04076" lon="3.16522">
        <ele>852</ele>
        <time>2019-01-07T18:35:59Z</time>
      </trkpt>
      <trkpt lat="45.04032" lon="3.16584">
        <ele>849</ele>
        <time>2019-01-07T18:36:59Z</time>
      </trkpt>
      <trkpt lat="45.03896" lon="3.16777">
        <ele>839</ele>
        <time>2019-01-07T18:37:59Z</time>
      </trkpt>
      <trkpt lat="45.0385" lon="3.16829">
        <ele>836</ele>
        <time>2019-01-07T18:38:59Z</time>
      </trkpt>
      <trkpt lat="45.03768" lon="3.16915">
        <ele>831</ele>
        <time>2019-01-07T18:39:59Z</time>
      </trkpt>
      <trkpt lat="45.03723" lon="3.1705">
        <ele>827</ele>
        <time>2019-01-07T18:40:59Z</time>
      </trkpt>
      <trkpt lat="45.03724" lon="3.17104">
        <ele>827</ele>
        <time>2019-01-07T18:41:59Z</time>
      </trkpt>
      <trkpt lat="45.03704" lon="3.17154">
        <ele>830</ele>
        <time>2019-01-07T18:42:59Z</time>
      </trkpt>
      <trkpt lat="45.03626" lon="3.17226">
        <ele>835</ele>
        <time>2019-01-07T18:43:59Z</time>
      </trkpt>
      <trkpt lat="45.03579" lon="3.17349">
        <ele>837</ele>
        <time>2019-01-07T18:44:59Z</time>
      </trkpt>
      <trkpt lat="45.03528" lon="3.17384">
        <ele>838</ele>
        <time>2019-01-07T18:45:59Z</time>
      </trkpt>
      <trkpt lat="45.03516" lon="3.17385">
        <ele>837</ele>
        <time>2019-01-07T18:46:59Z</time>
      </trkpt>
      <trkpt lat="45.0349" lon="3.17371">
        <ele>837</ele>
        <time>2019-01-07T18:47:59Z</time>
      </trkpt>
      <trkpt lat="45.03451" lon="3.1736">
        <ele>839</ele>
        <time>2019-01-07T18:48:59Z</time>
      </trkpt>
      <trkpt lat="45.0343" lon="3.17367">
        <ele>840</ele>
        <time>2019-01-07T18:49:59Z</time>
      </trkpt>
      <trkpt lat="45.03363" lon="3.17447">
        <ele>843</ele>
        <time>2019-01-07T18:50:59Z</time>
      </trkpt>
      <trkpt lat="45.03332" lon="3.17514">
        <ele>844</ele>
        <time>2019-01-07T18:51:59Z</time>
      </trkpt>
      <trkpt lat="45.03283" lon="3.17581">
        <ele>844</ele>
        <time>2019-01-07T18:52:59Z</time>
      </trkpt>
      <trkpt lat="45.03241" lon="3.17652">
        <ele>842</ele>
        <time>2019-01-07T18:53:59Z</time>
      </trkpt>
      <trkpt lat="45.03182" lon="3.1782">
        <ele>835</ele>
        <time>2019-01-07T18:54:59Z</time>
      </trkpt>
      <trkpt lat="45.03207" lon="3.17866">
        <ele>834</ele>
        <time>2019-01-07T18:55:59Z</time>
      </trkpt>
      <trkpt lat="45.03253" lon="3.17942">
        <ele>835</ele>
        <time>2019-01-07T18:56:59Z</time>
      </trkpt>
      <trkpt lat="45.03283" lon="3.18124">
        <ele>850</ele>
        <time>2019-01-07T18:57:59Z</time>
      </trkpt>
      <trkpt lat="45.03303" lon="3.18197">
        <ele>854</ele>
        <time>2019-01-07T18:58:59Z</time>
      </trkpt>
      <trkpt lat="45.03301" lon="3.18279">
        <ele>854</ele>
        <time>2019-01-07T18:59:59Z</time>
      </trkpt>
      <trkpt lat="45.03279" lon="3.18341">
        <ele>852</ele>
        <time>2019-01-07T19:00:59Z</time>
      </trkpt>
      <trkpt lat="45.03238" lon="3.18388">
        <ele>848</ele>
        <time>2019-01-07T19:01:59Z</time>
      </trkpt>
      <trkpt lat="45.03066" lon="3.18426">
        <ele>842</ele>
        <time>2019-01-07T19:02:59Z</time>
      </trkpt>
      <trkpt lat="45.02969" lon="3.18441">
        <ele>838</ele>
        <time>2019-01-07T19:03:59Z</time>
      </trkpt>
      <trkpt lat="45.02829" lon="3.18497">
        <ele>827</ele>
        <time>2019-01-07T19:04:59Z</time>
      </trkpt>
      <trkpt lat="45.02662" lon="3.18503">
        <ele>830</ele>
        <time>2019-01-07T19:05:59Z</time>
      </trkpt>
      <trkpt lat="45.02601" lon="3.18529">
        <ele>835</ele>
        <time>2019-01-07T19:06:59Z</time>
      </trkpt>
      <trkpt lat="45.02497" lon="3.18644">
        <ele>845</ele>
        <time>2019-01-07T19:07:59Z</time>
      </trkpt>
      <trkpt lat="45.02463" lon="3.18725">
        <ele>850</ele>
        <time>2019-01-07T19:08:59Z</time>
      </trkpt>
      <trkpt lat="45.02446" lon="3.18822">
        <ele>852</ele>
        <time>2019-01-07T19:09:59Z</time>
      </trkpt>
      <trkpt lat="45.02497" lon="3.19069">
        <ele>866</ele>
        <time>2019-01-07T19:10:59Z</time>
      </trkpt>
      <trkpt lat="45.02487" lon="3.19154">
        <ele>868</ele>
        <time>2019-01-07T19:11:59Z</time>
      </trkpt>
      <trkpt lat="45.02454" lon="3.19248">
        <ele>872</ele>
        <time>2019-01-07T19:12:59Z</time>
      </trkpt>
      <trkpt lat="45.02392" lon="3.19332">
        <ele>872</ele>
        <time>2019-01-07T19:13:59Z</time>
      </trkpt>
      <trkpt lat="45.02313" lon="3.19389">
        <ele>869</ele>
        <time>2019-01-07T19:14:59Z</time>
      </trkpt>
      <trkpt lat="45.02053" lon="3.19411">
        <ele>862</ele>
        <time>2019-01-07T19:15:59Z</time>
      </trkpt>
      <trkpt lat="45.01997" lon="3.19417">
        <ele>860</ele>
        <time>2019-01-07T19:16:59Z</time>
      </trkpt>
      <trkpt lat="45.01836" lon="3.19406">
        <ele>854</ele>
        <time>2019-01-07T19:17:59Z</time>
      </trkpt>
      <trkpt lat="45.01738" lon="3.19435">
        <ele>855</ele>
        <time>2019-01-07T19:18:59Z</time>
      </trkpt>
      <trkpt lat="45.01654" lon="3.19453">
        <ele>852</ele>
        <time>2019-01-07T19:19:59Z</time>
      </trkpt>
      <trkpt lat="45.01458" lon="3.19436">
        <ele>845</ele>
        <time>2019-01-07T19:20:59Z</time>
      </trkpt>
      <trkpt lat="45.0127" lon="3.19323">
        <ele>841</ele>
        <time>2019-01-07T19:21:59Z</time>
      </trkpt>
      <trkpt lat="45.0112" lon="3.19354">
        <ele>836</ele>
        <time>2019-01-07T19:22:59Z</time>
      </trkpt>
      <trkpt lat="45.01043" lon="3.19304">
        <ele>836</ele>
        <time>2019-01-07T19:23:59Z</time>
      </trkpt>
      <trkpt lat="45.01029" lon="3.19293">
        <ele>835</ele>
        <time>2019-01-07T19:24:59Z</time>
      </trkpt>
      <trkpt lat="45.0095" lon="3.19263">
        <ele>835</ele>
        <time>2019-01-07T19:25:59Z</time>
      </trkpt>
      <trkpt lat="45.00843" lon="3.19306">
        <ele>833</ele>
        <time>2019-01-07T19:26:59Z</time>
      </trkpt>
      <trkpt lat="45.00819" lon="3.19445">
        <ele>831</ele>
        <time>2019-01-07T19:27:59Z</time>
      </trkpt>
      <trkpt lat="45.00806" lon="3.19543">
        <ele>834</ele>
        <time>2019-01-07T19:28:59Z</time>
      </trkpt>
      <trkpt lat="45.00775" lon="3.19713">
        <ele>840</ele>
        <time>2019-01-07T19:29:59Z</time>
      </trkpt>
      <trkpt lat="45.00725" lon="3.19891">
        <ele>848</ele>
        <time>2019-01-07T19:30:59Z</time>
      </trkpt>
      <trkpt lat="45.00705" lon="3.19992">
        <ele>851</ele>
        <time>2019-01-07T19:31:59Z</time>
      </trkpt>
      <trkpt lat="45.00733" lon="3.20158">
        <ele>857</ele>
        <time>2019-01-07T19:32:59Z</time>
      </trkpt>
      <trkpt lat="45.00773" lon="3.20463">
        <ele>864</ele>
        <time>2019-01-07T19:33:59Z</time>
      </trkpt>
      <trkpt lat="45.00769" lon="3.20552">
        <ele>866</ele>
        <time>2019-01-07T19:34:59Z</time>
      </trkpt>
      <trkpt lat="45.00741" lon="3.20652">
        <ele>872</ele>
        <time>2019-01-07T19:35:59Z</time>
      </trkpt>
      <trkpt lat="45.00683" lon="3.20722">
        <ele>873</ele>
        <time>2019-01-07T19:36:59Z</time>
      </trkpt>
      <trkpt lat="45.0065" lon="3.20771">
        <ele>875</ele>
        <time>2019-01-07T19:37:59Z</time>
      </trkpt>
      <trkpt lat="45.00624" lon="3.20831">
        <ele>877</ele>
        <time>2019-01-07T19:38:59Z</time>
      </trkpt>
      <trkpt lat="45.00628" lon="3.2093">
        <ele>879</ele>
        <time>2019-01-07T19:39:59Z</time>
      </trkpt>
      <trkpt lat="45.00675" lon="3.21035">
        <ele>876</ele>
        <time>2019-01-07T19:40:59Z</time>
      </trkpt>
      <trkpt lat="45.00679" lon="3.21102">
        <ele>875</ele>
        <time>2019-01-07T19:41:59Z</time>
      </trkpt>
      <trkpt lat="45.00649" lon="3.21186">
        <ele>877</ele>
        <time>2019-01-07T19:42:59Z</time>
      </trkpt>
      <trkpt lat="45.00595" lon="3.21246">
        <ele>876</ele>
        <time>2019-01-07T19:43:59Z</time>
      </trkpt>
      <trkpt lat="45.00564" lon="3.21334">
        <ele>877</ele>
        <time>2019-01-07T19:44:59Z</time>
      </trkpt>
      <trkpt lat="45.00584" lon="3.21513">
        <ele>876</ele>
        <time>2019-01-07T19:45:59Z</time>
      </trkpt>
      <trkpt lat="45.0062" lon="3.2176">
        <ele>881</ele>
        <time>2019-01-07T19:46:59Z</time>
      </trkpt>
      <trkpt lat="45.00607" lon="3.2183">
        <ele>883</ele>
        <time>2019-01-07T19:47:59Z</time>
      </trkpt>
      <trkpt lat="45.00544" lon="3.21992">
        <ele>890</ele>
        <time>2019-01-07T19:48:59Z</time>
      </trkpt>
      <trkpt lat="45.00478" lon="3.22155">
        <ele>896</ele>
        <time>2019-01-07T19:49:59Z</time>
      </trkpt>
      <trkpt lat="45.00411" lon="3.22302">
        <ele>903</ele>
        <time>2019-01-07T19:50:59Z</time>
      </trkpt>
      <trkpt lat="45.00295" lon="3.2234">
        <ele>903</ele>
        <time>2019-01-07T19:51:59Z</time>
      </trkpt>
      <trkpt lat="45.0025" lon="3.22341">
        <ele>904</ele>
        <time>2019-01-07T19:52:59Z</time>
      </trkpt>
      <trkpt lat="45.00233" lon="3.22297">
        <ele>904</ele>
        <time>2019-01-07T19:53:59Z</time>
      </trkpt>
      <trkpt lat="45.00191" lon="3.22176">
        <ele>903</ele>
        <time>2019-01-07T19:54:59Z</time>
      </trkpt>
      <trkpt lat="45.00144" lon="3.22048">
        <ele>900</ele>
        <time>2019-01-07T19:55:59Z</time>
      </trkpt>
      <trkpt lat="45.00109" lon="3.21972">
        <ele>899</ele>
        <time>2019-01-07T19:56:59Z</time>
      </trkpt>
      <trkpt lat="45.00078" lon="3.21939">
        <ele>901</ele>
        <time>2019-01-07T19:57:59Z</time>
      </trkpt>
      <trkpt lat="45.00027" lon="3.21935">
        <ele>900</ele>
        <time>2019-01-07T19:58:59Z</time>
      </trkpt>
      <trkpt lat="44.99986" lon="3.21938">
        <ele>899</ele>
        <time>2019-01-07T19:59:59Z</time>
      </trkpt>
      <trkpt lat="44.99937" lon="3.21901">
        <ele>898</ele>
        <time>2019-01-07T20:00:59Z</time>
      </trkpt>
      <trkpt lat="44.9988" lon="3.21763">
        <ele>893</ele>
        <time>2019-01-07T20:01:59Z</time>
      </trkpt>
      <trkpt lat="44.99841" lon="3.21625">
        <ele>884</ele>
        <time>2019-01-07T20:02:59Z</time>
      </trkpt>
      <trkpt lat="44.99786" lon="3.21498">
        <ele>875</ele>
        <time>2019-01-07T20:03:59Z</time>
      </trkpt>
      <trkpt lat="44.99719" lon="3.21417">
        <ele>870</ele>
        <time>2019-01-07T20:04:59Z</time>
      </trkpt>
      <trkpt lat="44.99682" lon="3.21369">
        <ele>866</ele>
        <time>2019-01-07T20:05:59Z</time>
      </trkpt>
      <trkpt lat="44.99563" lon="3.21322">
        <ele>857</ele>
        <time>2019-01-07T20:06:59Z</time>
      </trkpt>
      <trkpt lat="44.99555" lon="3.21318">
        <ele>856</ele>
        <time>2019-01-07T20:07:59Z</time>
      </trkpt>
      <trkpt lat="44.99551" lon="3.213">
        <ele>854</ele>
        <time>2019-01-07T20:08:59Z</time>
      </trkpt>
      <trkpt lat="44.99568" lon="3.21248">
        <ele>853</ele>
        <time>2019-01-07T20:09:59Z</time>
      </trkpt>
      <trkpt lat="44.9961" lon="3.21204">
        <ele>852</ele>
        <time>2019-01-07T20:10:59Z</time>
      </trkpt>
      <trkpt lat="44.99655" lon="3.21195">
        <ele>852</ele>
        <time>2019-01-07T20:11:59Z</time>
      </trkpt>
      <trkpt lat="44.99718" lon="3.21131">
        <ele>849</ele>
        <time>2019-01-07T20:12:59Z</time>
      </trkpt>
      <trkpt lat="44.99731" lon="3.21107">
        <ele>848</ele>
        <time>2019-01-07T20:13:59Z</time>
      </trkpt>
      <trkpt lat="44.99722" lon="3.21072">
        <ele>849</ele>
        <time>2019-01-07T20:14:59Z</time>
      </trkpt>
      <trkpt lat="44.99704" lon="3.21056">
        <ele>850</ele>
        <time>2019-01-07T20:15:59Z</time>
      </trkpt>
      <trkpt lat="44.99607" lon="3.21029">
        <ele>855</ele>
        <time>2019-01-07T20:16:59Z</time>
      </trkpt>
      <trkpt lat="44.99588" lon="3.21002">
        <ele>858</ele>
        <time>2019-01-07T20:17:59Z</time>
      </trkpt>
      <trkpt lat="44.99577" lon="3.20948">
        <ele>855</ele>
        <time>2019-01-07T20:18:59Z</time>
      </trkpt>
      <trkpt lat="44.99601" lon="3.20872">
        <ele>850</ele>
        <time>2019-01-07T20:19:59Z</time>
      </trkpt>
      <trkpt lat="44.99628" lon="3.20753">
        <ele>841</ele>
        <time>2019-01-07T20:20:59Z</time>
      </trkpt>
      <trkpt lat="44.99661" lon="3.20609">
        <ele>836</ele>
        <time>2019-01-07T20:21:59Z</time>
      </trkpt>
      <trkpt lat="44.99653" lon="3.20567">
        <ele>834</ele>
        <time>2019-01-07T20:22:59Z</time>
      </trkpt>
      <trkpt lat="44.99652" lon="3.20514">
        <ele>833</ele>
        <time>2019-01-07T20:23:59Z</time>
      </trkpt>
      <trkpt lat="44.99689" lon="3.20469">
        <ele>835</ele>
        <time>2019-01-07T20:24:59Z</time>
      </trkpt>
      <trkpt lat="44.99696" lon="3.20431">
        <ele>833</ele>
        <time>2019-01-07T20:25:59Z</time>
      </trkpt>
      <trkpt lat="44.99679" lon="3.20395">
        <ele>831</ele>
        <time>2019-01-07T20:26:59Z</time>
      </trkpt>
      <trkpt lat="44.99642" lon="3.20362">
        <ele>829</ele>
        <time>2019-01-07T20:27:59Z</time>
      </trkpt>
      <trkpt lat="44.9965" lon="3.20266">
        <ele>825</ele>
        <time>2019-01-07T20:28:59Z</time>
      </trkpt>
      <trkpt lat="44.9968" lon="3.20107">
        <ele>820</ele>
        <time>2019-01-07T20:29:59Z</time>
      </trkpt>
      <trkpt lat="44.99746" lon="3.19967">
        <ele>827</ele>
        <time>2019-01-07T20:30:59Z</time>
      </trkpt>
      <trkpt lat="44.99726" lon="3.19849">
        <ele>827</ele>
        <time>2019-01-07T20:31:59Z</time>
      </trkpt>
      <trkpt lat="44.99709" lon="3.19765">
        <ele>829</ele>
        <time>2019-01-07T20:32:59Z</time>
      </trkpt>
      <trkpt lat="44.99698" lon="3.19726">
        <ele>829</ele>
        <time>2019-01-07T20:33:59Z</time>
      </trkpt>
      <trkpt lat="44.99642" lon="3.19707">
        <ele>827</ele>
        <time>2019-01-07T20:34:59Z</time>
      </trkpt>
      <trkpt lat="44.99565" lon="3.19686">
        <ele>826</ele>
        <time>2019-01-07T20:35:59Z</time>
      </trkpt>
      <trkpt lat="44.99476" lon="3.1968">
        <ele>827</ele>
        <time>2019-01-07T20:36:59Z</time>
      </trkpt>
      <trkpt lat="44.99409" lon="3.1967">
        <ele>827</ele>
        <time>2019-01-07T20:37:59Z</time>
      </trkpt>
      <trkpt lat="44.99286" lon="3.19651">
        <ele>827</ele>
        <time>2019-01-07T20:38:59Z</time>
      </trkpt>
      <trkpt lat="44.99205" lon="3.19637">
        <ele>830</ele>
        <time>2019-01-07T20:39:59Z</time>
      </trkpt>
      <trkpt lat="44.99094" lon="3.1961">
        <ele>830</ele>
        <time>2019-01-07T20:40:59Z</time>
      </trkpt>
      <trkpt lat="44.98956" lon="3.19574">
        <ele>833</ele>
        <time>2019-01-07T20:41:59Z</time>
      </trkpt>
      <trkpt lat="44.98863" lon="3.1955">
        <ele>832</ele>
        <time>2019-01-07T20:42:59Z</time>
      </trkpt>
      <trkpt lat="44.98742" lon="3.19481">
        <ele>831</ele>
        <time>2019-01-07T20:43:59Z</time>
      </trkpt>
      <trkpt lat="44.98591" lon="3.19388">
        <ele>832</ele>
        <time>2019-01-07T20:44:59Z</time>
      </trkpt>
      <trkpt lat="44.98571" lon="3.19378">
        <ele>832</ele>
        <time>2019-01-07T20:45:59Z</time>
      </trkpt>
      <trkpt lat="44.98537" lon="3.19366">
        <ele>832</ele>
        <time>2019-01-07T20:46:59Z</time>
      </trkpt>
      <trkpt lat="44.98495" lon="3.19344">
        <ele>831</ele>
        <time>2019-01-07T20:47:59Z</time>
      </trkpt>
      <trkpt lat="44.98427" lon="3.1931">
        <ele>833</ele>
        <time>2019-01-07T20:48:59Z</time>
      </trkpt>
      <trkpt lat="44.98316" lon="3.19249">
        <ele>839</ele>
        <time>2019-01-07T20:49:59Z</time>
      </trkpt>
      <trkpt lat="44.98155" lon="3.19161">
        <ele>847</ele>
        <time>2019-01-07T20:50:59Z</time>
      </trkpt>
      <trkpt lat="44.98132" lon="3.19151">
        <ele>849</ele>
        <time>2019-01-07T20:51:59Z</time>
      </trkpt>
      <trkpt lat="44.98092" lon="3.19115">
        <ele>851</ele>
        <time>2019-01-07T20:52:59Z</time>
      </trkpt>
      <trkpt lat="44.98034" lon="3.19008">
        <ele>852</ele>
        <time>2019-01-07T20:53:59Z</time>
      </trkpt>
      <trkpt lat="44.98004" lon="3.18919">
        <ele>858</ele>
        <time>2019-01-07T20:54:59Z</time>
      </trkpt>
      <trkpt lat="44.97975" lon="3.18815">
        <ele>859</ele>
        <time>2019-01-07T20:55:59Z</time>
      </trkpt>
      <trkpt lat="44.97953" lon="3.18725">
        <ele>855</ele>
        <time>2019-01-07T20:56:59Z</time>
      </trkpt>
      <trkpt lat="44.97946" lon="3.18631">
        <ele>851</ele>
        <time>2019-01-07T20:57:59Z</time>
      </trkpt>
      <trkpt lat="44.97944" lon="3.18528">
        <ele>858</ele>
        <time>2019-01-07T20:58:59Z</time>
      </trkpt>
      <trkpt lat="44.9793" lon="3.18436">
        <ele>862</ele>
        <time>2019-01-07T20:59:59Z</time>
      </trkpt>
      <trkpt lat="44.97896" lon="3.18374">
        <ele>858</ele>
        <time>2019-01-07T21:00:59Z</time>
      </trkpt>
      <trkpt lat="44.9788" lon="3.18336">
        <ele>856</ele>
        <time>2019-01-07T21:01:59Z</time>
      </trkpt>
      <trkpt lat="44.97881" lon="3.18243">
        <ele>855</ele>
        <time>2019-01-07T21:02:59Z</time>
      </trkpt>
      <trkpt lat="44.97864" lon="3.18202">
        <ele>854</ele>
        <time>2019-01-07T21:03:59Z</time>
      </trkpt>
      <trkpt lat="44.9784" lon="3.18173">
        <ele>853</ele>
        <time>2019-01-07T21:04:59Z</time>
      </trkpt>
      <trkpt lat="44.97811" lon="3.18157">
        <ele>851</ele>
        <time>2019-01-07T21:05:59Z</time>
      </trkpt>
      <trkpt lat="44.97783" lon="3.18165">
        <ele>849</ele>
        <time>2019-01-07T21:06:59Z</time>
      </trkpt>
      <trkpt lat="44.97723" lon="3.18228">
        <ele>837</ele>
        <time>2019-01-07T21:07:59Z</time>
      </trkpt>
      <trkpt lat="44.97702" lon="3.18236">
        <ele>832</ele>
        <time>2019-01-07T21:08:59Z</time>
      </trkpt>
      <trkpt lat="44.97684" lon="3.18209">
        <ele>825</ele>
        <time>2019-01-07T21:09:59Z</time>
      </trkpt>
      <trkpt lat="44.97691" lon="3.18147">
        <ele>821</ele>
        <time>2019-01-07T21:10:59Z</time>
      </trkpt>
      <trkpt lat="44.97691" lon="3.18097">
        <ele>814</ele>
        <time>2019-01-07T21:11:59Z</time>
      </trkpt>
      <trkpt lat="44.9771" lon="3.18033">
        <ele>817</ele>
        <time>2019-01-07T21:12:59Z</time>
      </trkpt>
      <trkpt lat="44.97733" lon="3.17982">
        <ele>827</ele>
        <time>2019-01-07T21:13:59Z</time>
      </trkpt>
      <trkpt lat="44.97729" lon="3.17945">
        <ele>818</ele>
        <time>2019-01-07T21:14:59Z</time>
      </trkpt>
      <trkpt lat="44.97738" lon="3.17899">
        <ele>822</ele>
        <time>2019-01-07T21:15:59Z</time>
      </trkpt>
      <trkpt lat="44.9773" lon="3.17865">
        <ele>817</ele>
        <time>2019-01-07T21:16:59Z</time>
      </trkpt>
      <trkpt lat="44.97712" lon="3.17847">
        <ele>805</ele>
        <time>2019-01-07T21:17:59Z</time>
      </trkpt>
      <trkpt lat="44.97706" lon="3.17818">
        <ele>803</ele>
        <time>2019-01-07T21:18:59Z</time>
      </trkpt>
      <trkpt lat="44.97705" lon="3.17769">
        <ele>807</ele>
        <time>2019-01-07T21:19:59Z</time>
      </trkpt>
      <trkpt lat="44.977" lon="3.17731">
        <ele>808</ele>
        <time>2019-01-07T21:20:59Z</time>
      </trkpt>
      <trkpt lat="44.97682" lon="3.17697">
        <ele>802</ele>
        <time>2019-01-07T21:21:59Z</time>
      </trkpt>
      <trkpt lat="44.9765" lon="3.17665">
        <ele>790</ele>
        <time>2019-01-07T21:22:59Z</time>
      </trkpt>
      <trkpt lat="44.97649" lon="3.17638">
        <ele>794</ele>
        <time>2019-01-07T21:23:59Z</time>
      </trkpt>
      <trkpt lat="44.97639" lon="3.17601">
        <ele>794</ele>
        <time>2019-01-07T21:24:59Z</time>
      </trkpt>
      <trkpt lat="44.97634" lon="3.17562">
        <ele>793</ele>
        <time>2019-01-07T21:25:59Z</time>
      </trkpt>
      <trkpt lat="44.97617" lon="3.1751">
        <ele>784</ele>
        <time>2019-01-07T21:26:59Z</time>
      </trkpt>
      <trkpt lat="44.9761" lon="3.17434">
        <ele>773</ele>
        <time>2019-01-07T21:27:59Z</time>
      </trkpt>
      <trkpt lat="44.97621" lon="3.17391">
        <ele>768</ele>
        <time>2019-01-07T21:28:59Z</time>
      </trkpt>
      <trkpt lat="44.97654" lon="3.17384">
        <ele>774</ele>
        <time>2019-01-07T21:29:59Z</time>
      </trkpt>
      <trkpt lat="44.97681" lon="3.17433">
        <ele>789</ele>
        <time>2019-01-07T21:30:59Z</time>
      </trkpt>
      <trkpt lat="44.97704" lon="3.17452">
        <ele>791</ele>
        <time>2019-01-07T21:31:59Z</time>
      </trkpt>
      <trkpt lat="44.97735" lon="3.17455">
        <ele>790</ele>
        <time>2019-01-07T21:32:59Z</time>
      </trkpt>
      <trkpt lat="44.97778" lon="3.17436">
        <ele>780</ele>
        <time>2019-01-07T21:33:59Z</time>
      </trkpt>
      <trkpt lat="44.97834" lon="3.1741">
        <ele>768</ele>
        <time>2019-01-07T21:34:59Z</time>
      </trkpt>
      <trkpt lat="44.97865" lon="3.17433">
        <ele>770</ele>
        <time>2019-01-07T21:35:59Z</time>
      </trkpt>
      <trkpt lat="44.97896" lon="3.17464">
        <ele>774</ele>
        <time>2019-01-07T21:36:59Z</time>
      </trkpt>
      <trkpt lat="44.97927" lon="3.1747">
        <ele>773</ele>
        <time>2019-01-07T21:37:59Z</time>
      </trkpt>
      <trkpt lat="44.97961" lon="3.17455">
        <ele>774</ele>
        <time>2019-01-07T21:38:59Z</time>
      </trkpt>
      <trkpt lat="44.97977" lon="3.17413">
        <ele>765</ele>
        <time>2019-01-07T21:39:59Z</time>
      </trkpt>
      <trkpt lat="44.97997" lon="3.17393">
        <ele>770</ele>
        <time>2019-01-07T21:40:59Z</time>
      </trkpt>
      <trkpt lat="44.98046" lon="3.17392">
        <ele>774</ele>
        <time>2019-01-07T21:41:59Z</time>
      </trkpt>
      <trkpt lat="44.98065" lon="3.17374">
        <ele>776</ele>
        <time>2019-01-07T21:42:59Z</time>
      </trkpt>
      <trkpt lat="44.98041" lon="3.17352">
        <ele>777</ele>
        <time>2019-01-07T21:43:59Z</time>
      </trkpt>
      <trkpt lat="44.97982" lon="3.17339">
        <ele>774</ele>
        <time>2019-01-07T21:44:59Z</time>
      </trkpt>
      <trkpt lat="44.97928" lon="3.17346">
        <ele>762</ele>
        <time>2019-01-07T21:45:59Z</time>
      </trkpt>
      <trkpt lat="44.97893" lon="3.17299">
        <ele>768</ele>
        <time>2019-01-07T21:46:59Z</time>
      </trkpt>
      <trkpt lat="44.97831" lon="3.17243">
        <ele>763</ele>
        <time>2019-01-07T21:47:59Z</time>
      </trkpt>
      <trkpt lat="44.97774" lon="3.17243">
        <ele>751</ele>
        <time>2019-01-07T21:48:59Z</time>
      </trkpt>
      <trkpt lat="44.97757" lon="3.17192">
        <ele>764</ele>
        <time>2019-01-07T21:49:59Z</time>
      </trkpt>
      <trkpt lat="44.97702" lon="3.17159">
        <ele>769</ele>
        <time>2019-01-07T21:50:59Z</time>
      </trkpt>
      <trkpt lat="44.97649" lon="3.17193">
        <ele>756</ele>
        <time>2019-01-07T21:51:59Z</time>
      </trkpt>
      <trkpt lat="44.97587" lon="3.17191">
        <ele>755</ele>
        <time>2019-01-07T21:52:59Z</time>
      </trkpt>
      <trkpt lat="44.97519" lon="3.17212">
        <ele>753</ele>
        <time>2019-01-07T21:53:59Z</time>
      </trkpt>
      <trkpt lat="44.97466" lon="3.17274">
        <ele>740</ele>
        <time>2019-01-07T21:54:59Z</time>
      </trkpt>
      <trkpt lat="44.97426" lon="3.17261">
        <ele>737</ele>
        <time>2019-01-07T21:55:59Z</time>
      </trkpt>
      <trkpt lat="44.97334" lon="3.17386">
        <ele>734</ele>
        <time>2019-01-07T21:56:59Z</time>
      </trkpt>
      <trkpt lat="44.97281" lon="3.17445">
        <ele>755</ele>
        <time>2019-01-07T21:57:59Z</time>
      </trkpt>
      <trkpt lat="44.97256" lon="3.17392">
        <ele>751</ele>
        <time>2019-01-07T21:58:59Z</time>
      </trkpt>
      <trkpt lat="44.97208" lon="3.17358">
        <ele>744</ele>
        <time>2019-01-07T21:59:59Z</time>
      </trkpt>
      <trkpt lat="44.97122" lon="3.17278">
        <ele>756</ele>
        <time>2019-01-07T22:00:59Z</time>
      </trkpt>
      <trkpt lat="44.97161" lon="3.17176">
        <ele>758</ele>
        <time>2019-01-07T22:01:59Z</time>
      </trkpt>
      <trkpt lat="44.97176" lon="3.17076">
        <ele>759</ele>
        <time>2019-01-07T22:02:59Z</time>
      </trkpt>
      <trkpt lat="44.97185" lon="3.16959">
        <ele>766</ele>
        <time>2019-01-07T22:03:59Z</time>
      </trkpt>
      <trkpt lat="44.97192" lon="3.16862">
        <ele>769</ele>
        <time>2019-01-07T22:04:59Z</time>
      </trkpt>
      <trkpt lat="44.9719" lon="3.16814">
        <ele>773</ele>
        <time>2019-01-07T22:05:59Z</time>
      </trkpt>
      <trkpt lat="44.97229" lon="3.16767">
        <ele>760</ele>
        <time>2019-01-07T22:06:59Z</time>
      </trkpt>
      <trkpt lat="44.97262" lon="3.16638">
        <ele>761</ele>
        <time>2019-01-07T22:07:59Z</time>
      </trkpt>
      <trkpt lat="44.9731" lon="3.16475">
        <ele>752</ele>
        <time>2019-01-07T22:08:59Z</time>
      </trkpt>
      <trkpt lat="44.97352" lon="3.16381">
        <ele>744</ele>
        <time>2019-01-07T22:09:59Z</time>
      </trkpt>
      <trkpt lat="44.97335" lon="3.16364">
        <ele>744</ele>
        <time>2019-01-07T22:10:59Z</time>
      </trkpt>
      <trkpt lat="44.97284" lon="3.16388">
        <ele>745</ele>
        <time>2019-01-07T22:11:59Z</time>
      </trkpt>
      <trkpt lat="44.9722" lon="3.16443">
        <ele>755</ele>
        <time>2019-01-07T22:12:59Z</time>
      </trkpt>
      <trkpt lat="44.97176" lon="3.16455">
        <ele>761</ele>
        <time>2019-01-07T22:13:59Z</time>
      </trkpt>
      <trkpt lat="44.97118" lon="3.16414">
        <ele>752</ele>
        <time>2019-01-07T22:14:59Z</time>
      </trkpt>
      <trkpt lat="44.97073" lon="3.1639">
        <ele>754</ele>
        <time>2019-01-07T22:15:59Z</time>
      </trkpt>
      <trkpt lat="44.97026" lon="3.1642">
        <ele>752</ele>
        <time>2019-01-07T22:16:59Z</time>
      </trkpt>
      <trkpt lat="44.97007" lon="3.16452">
        <ele>753</ele>
        <time>2019-01-07T22:17:59Z</time>
      </trkpt>
      <trkpt lat="44.97001" lon="3.16533">
        <ele>763</ele>
        <time>2019-01-07T22:18:59Z</time>
      </trkpt>
      <trkpt lat="44.96982" lon="3.16547">
        <ele>765</ele>
        <time>2019-01-07T22:19:59Z</time>
      </trkpt>
      <trkpt lat="44.96933" lon="3.16514">
        <ele>756</ele>
        <time>2019-01-07T22:20:59Z</time>
      </trkpt>
      <trkpt lat="44.96825" lon="3.16412">
        <ele>773</ele>
        <time>2019-01-07T22:21:59Z</time>
      </trkpt>
      <trkpt lat="44.96686" lon="3.16401">
        <ele>784</ele>
        <time>2019-01-07T22:22:59Z</time>
      </trkpt>
      <trkpt lat="44.9657" lon="3.16396">
        <ele>789</ele>
        <time>2019-01-07T22:23:59Z</time>
      </trkpt>
      <trkpt lat="44.96464" lon="3.1644">
        <ele>787</ele>
        <time>2019-01-07T22:24:59Z</time>
      </trkpt>
      <trkpt lat="44.96422" lon="3.16417">
        <ele>788</ele>
        <time>2019-01-07T22:25:59Z</time>
      </trkpt>
      <trkpt lat="44.96371" lon="3.16336">
        <ele>812</ele>
        <time>2019-01-07T22:26:59Z</time>
      </trkpt>
      <trkpt lat="44.96288" lon="3.16345">
        <ele>807</ele>
        <time>2019-01-07T22:27:59Z</time>
      </trkpt>
      <trkpt lat="44.96129" lon="3.16364">
        <ele>810</ele>
        <time>2019-01-07T22:28:59Z</time>
      </trkpt>
      <trkpt lat="44.96106" lon="3.16334">
        <ele>813</ele>
        <time>2019-01-07T22:29:59Z</time>
      </trkpt>
      <trkpt lat="44.96092" lon="3.16143">
        <ele>821</ele>
        <time>2019-01-07T22:30:59Z</time>
      </trkpt>
      <trkpt lat="44.96073" lon="3.16089">
        <ele>825</ele>
        <time>2019-01-07T22:31:59Z</time>
      </trkpt>
      <trkpt lat="44.95974" lon="3.16087">
        <ele>828</ele>
        <time>2019-01-07T22:32:59Z</time>
      </trkpt>
      <trkpt lat="44.9594" lon="3.16062">
        <ele>830</ele>
        <time>2019-01-07T22:33:59Z</time>
      </trkpt>
      <trkpt lat="44.95892" lon="3.15982">
        <ele>837</ele>
        <time>2019-01-07T22:34:59Z</time>
      </trkpt>
      <trkpt lat="44.956" lon="3.15893">
        <ele>846</ele>
        <time>2019-01-07T22:35:59Z</time>
      </trkpt>
      <trkpt lat="44.95573" lon="3.15884">
        <ele>847</ele>
        <time>2019-01-07T22:36:59Z</time>
      </trkpt>
      <trkpt lat="44.95492" lon="3.15833">
        <ele>847</ele>
        <time>2019-01-07T22:37:59Z</time>
      </trkpt>
      <trkpt lat="44.95375" lon="3.15763">
        <ele>852</ele>
        <time>2019-01-07T22:38:59Z</time>
      </trkpt>
      <trkpt lat="44.95298" lon="3.15725">
        <ele>854</ele>
        <time>2019-01-07T22:39:59Z</time>
      </trkpt>
      <trkpt lat="44.95235" lon="3.15698">
        <ele>855</ele>
        <time>2019-01-07T22:40:59Z</time>
      </trkpt>
      <trkpt lat="44.95098" lon="3.15572">
        <ele>859</ele>
        <time>2019-01-07T22:41:59Z</time>
      </trkpt>
      <trkpt lat="44.95036" lon="3.15525">
        <ele>860</ele>
        <time>2019-01-07T22:42:59Z</time>
      </trkpt>
      <trkpt lat="44.94883" lon="3.15416">
        <ele>865</ele>
        <time>2019-01-07T22:43:59Z</time>
      </trkpt>
      <trkpt lat="44.94816" lon="3.15371">
        <ele>871</ele>
        <time>2019-01-07T22:44:59Z</time>
      </trkpt>
      <trkpt lat="44.9463" lon="3.15236">
        <ele>882</ele>
        <time>2019-01-07T22:45:59Z</time>
      </trkpt>
      <trkpt lat="44.94487" lon="3.15126">
        <ele>889</ele>
        <time>2019-01-07T22:46:59Z</time>
      </trkpt>
      <trkpt lat="44.94354" lon="3.14959">
        <ele>900</ele>
        <time>2019-01-07T22:47:59Z</time>
      </trkpt>
      <trkpt lat="44.94277" lon="3.14832">
        <ele>907</ele>
        <time>2019-01-07T22:48:59Z</time>
      </trkpt>
      <trkpt lat="44.94255" lon="3.14803">
        <ele>909</ele>
        <time>2019-01-07T22:49:59Z</time>
      </trkpt>
      <trkpt lat="44.94224" lon="3.14803">
        <ele>910</ele>
        <time>2019-01-07T22:50:59Z</time>
      </trkpt>
      <trkpt lat="44.94132" lon="3.148">
        <ele>917</ele>
        <time>2019-01-07T22:51:59Z</time>
      </trkpt>
      <trkpt lat="44.94022" lon="3.14841">
        <ele>925</ele>
        <time>2019-01-07T22:52:59Z</time>
      </trkpt>
      <trkpt lat="44.9399" lon="3.14838">
        <ele>930</ele>
        <time>2019-01-07T22:53:59Z</time>
      </trkpt>
      <trkpt lat="44.93989" lon="3.14812">
        <ele>932</ele>
        <time>2019-01-07T22:54:59Z</time>
      </trkpt>
      <trkpt lat="44.94021" lon="3.14775">
        <ele>931</ele>
        <time>2019-01-07T22:55:59Z</time>
      </trkpt>
      <trkpt lat="44.94047" lon="3.14659">
        <ele>934</ele>
        <time>2019-01-07T22:56:59Z</time>
      </trkpt>
      <trkpt lat="44.93999" lon="3.14599">
        <ele>934</ele>
        <time>2019-01-07T22:57:59Z</time>
      </trkpt>
      <trkpt lat="44.93969" lon="3.14567">
        <ele>932</ele>
        <time>2019-01-07T22:58:59Z</time>
      </trkpt>
      <trkpt lat="44.93906" lon="3.14552">
        <ele>931</ele>
        <time>2019-01-07T22:59:59Z</time>
      </trkpt>
      <trkpt lat="44.93855" lon="3.14513">
        <ele>935</ele>
        <time>2019-01-07T23:00:59Z</time>
      </trkpt>
      <trkpt lat="44.93821" lon="3.14449">
        <ele>939</ele>
        <time>2019-01-07T23:01:59Z</time>
      </trkpt>
      <trkpt lat="44.93865" lon="3.14337">
        <ele>938</ele>
        <time>2019-01-07T23:02:59Z</time>
      </trkpt>
      <trkpt lat="44.93878" lon="3.14235">
        <ele>939</ele>
        <time>2019-01-07T23:03:59Z</time>
      </trkpt>
      <trkpt lat="44.93921" lon="3.14091">
        <ele>944</ele>
        <time>2019-01-07T23:04:59Z</time>
      </trkpt>
      <trkpt lat="44.93991" lon="3.14009">
        <ele>947</ele>
        <time>2019-01-07T23:05:59Z</time>
      </trkpt>
      <trkpt lat="44.94053" lon="3.13882">
        <ele>951</ele>
        <time>2019-01-07T23:06:59Z</time>
      </trkpt>
      <trkpt lat="44.94084" lon="3.1376">
        <ele>956</ele>
        <time>2019-01-07T23:07:59Z</time>
      </trkpt>
      <trkpt lat="44.94083" lon="3.13709">
        <ele>954</ele>
        <time>2019-01-07T23:08:59Z</time>
      </trkpt>
      <trkpt lat="44.94041" lon="3.13618">
        <ele>948</ele>
        <time>2019-01-07T23:09:59Z</time>
      </trkpt>
      <trkpt lat="44.9397" lon="3.13476">
        <ele>939</ele>
        <time>2019-01-07T23:10:59Z</time>
      </trkpt>
      <trkpt lat="44.93921" lon="3.13432">
        <ele>937</ele>
        <time>2019-01-07T23:11:59Z</time>
      </trkpt>
      <trkpt lat="44.93826" lon="3.13434">
        <ele>929</ele>
        <time>2019-01-07T23:12:59Z</time>
      </trkpt>
      <trkpt lat="44.93763" lon="3.1339">
        <ele>920</ele>
        <time>2019-01-07T23:13:59Z</time>
      </trkpt>
      <trkpt lat="44.93669" lon="3.13262">
        <ele>907</ele>
        <time>2019-01-07T23:14:59Z</time>
      </trkpt>
      <trkpt lat="44.93496" lon="3.13153">
        <ele>898</ele>
        <time>2019-01-07T23:15:59Z</time>
      </trkpt>
      <trkpt lat="44.93444" lon="3.13159">
        <ele>892</ele>
        <time>2019-01-07T23:16:59Z</time>
      </trkpt>
      <trkpt lat="44.93363" lon="3.13228">
        <ele>889</ele>
        <time>2019-01-07T23:17:59Z</time>
      </trkpt>
      <trkpt lat="44.93295" lon="3.13284">
        <ele>888</ele>
        <time>2019-01-07T23:18:59Z</time>
      </trkpt>
      <trkpt lat="44.9322" lon="3.13297">
        <ele>884</ele>
        <time>2019-01-07T23:19:59Z</time>
      </trkpt>
      <trkpt lat="44.93188" lon="3.13278">
        <ele>881</ele>
        <time>2019-01-07T23:20:59Z</time>
      </trkpt>
      <trkpt lat="44.9317" lon="3.13243">
        <ele>881</ele>
        <time>2019-01-07T23:21:59Z</time>
      </trkpt>
      <trkpt lat="44.93169" lon="3.13197">
        <ele>889</ele>
        <time>2019-01-07T23:22:59Z</time>
      </trkpt>
      <trkpt lat="44.93214" lon="3.1307">
        <ele>883</ele>
        <time>2019-01-07T23:23:59Z</time>
      </trkpt>
      <trkpt lat="44.93226" lon="3.13021">
        <ele>879</ele>
        <time>2019-01-07T23:24:59Z</time>
      </trkpt>
      <trkpt lat="44.93198" lon="3.12836">
        <ele>875</ele>
        <time>2019-01-07T23:25:59Z</time>
      </trkpt>
      <trkpt lat="44.9318" lon="3.12574">
        <ele>877</ele>
        <time>2019-01-07T23:26:59Z</time>
      </trkpt>
      <trkpt lat="44.9317" lon="3.12514">
        <ele>879</ele>
        <time>2019-01-07T23:27:59Z</time>
      </trkpt>
      <trkpt lat="44.93153" lon="3.12463">
        <ele>881</ele>
        <time>2019-01-07T23:28:59Z</time>
      </trkpt>
      <trkpt lat="44.93237" lon="3.12238">
        <ele>884</ele>
        <time>2019-01-07T23:29:59Z</time>
      </trkpt>
      <trkpt lat="44.93296" lon="3.12084">
        <ele>888</ele>
        <time>2019-01-07T23:30:59Z</time>
      </trkpt>
      <trkpt lat="44.93299" lon="3.12039">
        <ele>888</ele>
        <time>2019-01-07T23:31:59Z</time>
      </trkpt>
      <trkpt lat="44.93232" lon="3.1196">
        <ele>883</ele>
        <time>2019-01-07T23:32:59Z</time>
      </trkpt>
      <trkpt lat="44.93199" lon="3.11903">
        <ele>879</ele>
        <time>2019-01-07T23:33:59Z</time>
      </trkpt>
      <trkpt lat="44.9322" lon="3.11866">
        <ele>878</ele>
        <time>2019-01-07T23:34:59Z</time>
      </trkpt>
      <trkpt lat="44.93199" lon="3.11796">
        <ele>874</ele>
        <time>2019-01-07T23:35:59Z</time>
      </trkpt>
      <trkpt lat="44.93155" lon="3.11755">
        <ele>871</ele>
        <time>2019-01-07T23:36:59Z</time>
      </trkpt>
      <trkpt lat="44.93128" lon="3.11732">
        <ele>868</ele>
        <time>2019-01-07T23:37:59Z</time>
      </trkpt>
      <trkpt lat="44.93104" lon="3.11724">
        <ele>867</ele>
        <time>2019-01-07T23:38:59Z</time>
      </trkpt>
      <trkpt lat="44.93079" lon="3.11714">
        <ele>865</ele>
        <time>2019-01-07T23:39:59Z</time>
      </trkpt>
      <trkpt lat="44.93063" lon="3.11696">
        <ele>865</ele>
        <time>2019-01-07T23:40:59Z</time>
      </trkpt>
      <trkpt lat="44.93048" lon="3.1167">
        <ele>864</ele>
        <time>2019-01-07T23:41:59Z</time>
      </trkpt>
      <trkpt lat="44.93033" lon="3.11633">
        <ele>863</ele>
        <time>2019-01-07T23:42:59Z</time>
      </trkpt>
      <trkpt lat="44.93026" lon="3.11608">
        <ele>862</ele>
        <time>2019-01-07T23:43:59Z</time>
      </trkpt>
      <trkpt lat="44.93013" lon="3.11577">
        <ele>861</ele>
        <time>2019-01-07T23:44:59Z</time>
      </trkpt>
      <trkpt lat="44.92976" lon="3.11505">
        <ele>857</ele>
        <time>2019-01-07T23:45:59Z</time>
      </trkpt>
      <trkpt lat="44.92959" lon="3.11453">
        <ele>853</ele>
        <time>2019-01-07T23:46:59Z</time>
      </trkpt>
      <trkpt lat="44.92935" lon="3.11411">
        <ele>852</ele>
        <time>2019-01-07T23:47:59Z</time>
      </trkpt>
      <trkpt lat="44.9292" lon="3.11391">
        <ele>852</ele>
        <time>2019-01-07T23:48:59Z</time>
      </trkpt>
      <trkpt lat="44.92896" lon="3.11381">
        <ele>850</ele>
        <time>2019-01-07T23:49:59Z</time>
      </trkpt>
      <trkpt lat="44.92849" lon="3.11375">
        <ele>846</ele>
        <time>2019-01-07T23:50:59Z</time>
      </trkpt>
      <trkpt lat="44.92816" lon="3.11356">
        <ele>841</ele>
        <time>2019-01-07T23:51:59Z</time>
      </trkpt>
      <trkpt lat="44.92767" lon="3.11318">
        <ele>836</ele>
        <time>2019-01-07T23:52:59Z</time>
      </trkpt>
      <trkpt lat="44.92731" lon="3.11274">
        <ele>830</ele>
        <time>2019-01-07T23:53:59Z</time>
      </trkpt>
      <trkpt lat="44.92699" lon="3.11222">
        <ele>823</ele>
        <time>2019-01-07T23:54:59Z</time>
      </trkpt>
      <trkpt lat="44.92678" lon="3.11219">
        <ele>825</ele>
        <time>2019-01-07T23:55:59Z</time>
      </trkpt>
      <trkpt lat="44.92652" lon="3.11237">
        <ele>824</ele>
        <time>2019-01-07T23:56:59Z</time>
      </trkpt>
      <trkpt lat="44.9263" lon="3.11272">
        <ele>821</ele>
        <time>2019-01-07T23:57:59Z</time>
      </trkpt>
      <trkpt lat="44.92622" lon="3.1132">
        <ele>819</ele>
        <time>2019-01-07T23:58:59Z</time>
      </trkpt>
      <trkpt lat="44.92649" lon="3.11378">
        <ele>822</ele>
        <time>2019-01-07T23:59:59Z</time>
      </trkpt>
      <trkpt lat="44.92651" lon="3.11473">
        <ele>817</ele>
        <time>2019-01-08T00:00:59Z</time>
      </trkpt>
      <trkpt lat="44.92649" lon="3.11523">
        <ele>813</ele>
        <time>2019-01-08T00:01:59Z</time>
      </trkpt>
      <trkpt lat="44.92667" lon="3.11595">
        <ele>814</ele>
        <time>2019-01-08T00:02:59Z</time>
      </trkpt>
      <trkpt lat="44.9264" lon="3.11733">
        <ele>806</ele>
        <time>2019-01-08T00:03:59Z</time>
      </trkpt>
      <trkpt lat="44.92631" lon="3.11796">
        <ele>807</ele>
        <time>2019-01-08T00:04:59Z</time>
      </trkpt>
      <trkpt lat="44.9262" lon="3.11826">
        <ele>807</ele>
        <time>2019-01-08T00:05:59Z</time>
      </trkpt>
      <trkpt lat="44.92593" lon="3.11829">
        <ele>803</ele>
        <time>2019-01-08T00:06:59Z</time>
      </trkpt>
      <trkpt lat="44.92558" lon="3.11781">
        <ele>796</ele>
        <time>2019-01-08T00:07:59Z</time>
      </trkpt>
      <trkpt lat="44.92517" lon="3.1174">
        <ele>789</ele>
        <time>2019-01-08T00:08:59Z</time>
      </trkpt>
      <trkpt lat="44.92475" lon="3.11725">
        <ele>785</ele>
        <time>2019-01-08T00:09:59Z</time>
      </trkpt>
      <trkpt lat="44.92427" lon="3.117">
        <ele>780</ele>
        <time>2019-01-08T00:10:59Z</time>
      </trkpt>
      <trkpt lat="44.9239" lon="3.11632">
        <ele>772</ele>
        <time>2019-01-08T00:11:59Z</time>
      </trkpt>
      <trkpt lat="44.92358" lon="3.11571">
        <ele>763</ele>
        <time>2019-01-08T00:12:59Z</time>
      </trkpt>
      <trkpt lat="44.92341" lon="3.11557">
        <ele>760</ele>
        <time>2019-01-08T00:13:59Z</time>
      </trkpt>
      <trkpt lat="44.92317" lon="3.11569">
        <ele>756</ele>
        <time>2019-01-08T00:14:59Z</time>
      </trkpt>
      <trkpt lat="44.92311" lon="3.11604">
        <ele>757</ele>
        <time>2019-01-08T00:15:59Z</time>
      </trkpt>
      <trkpt lat="44.92295" lon="3.11768">
        <ele>757</ele>
        <time>2019-01-08T00:16:59Z</time>
      </trkpt>
      <trkpt lat="44.9227" lon="3.11814">
        <ele>752</ele>
        <time>2019-01-08T00:17:59Z</time>
      </trkpt>
      <trkpt lat="44.92258" lon="3.11843">
        <ele>752</ele>
        <time>2019-01-08T00:18:59Z</time>
      </trkpt>
      <trkpt lat="44.92218" lon="3.11909">
        <ele>753</ele>
        <time>2019-01-08T00:19:59Z</time>
      </trkpt>
      <trkpt lat="44.92193" lon="3.11958">
        <ele>759</ele>
        <time>2019-01-08T00:20:59Z</time>
      </trkpt>
      <trkpt lat="44.92187" lon="3.11975">
        <ele>762</ele>
        <time>2019-01-08T00:21:59Z</time>
      </trkpt>
      <trkpt lat="44.92169" lon="3.11985">
        <ele>758</ele>
        <time>2019-01-08T00:22:59Z</time>
      </trkpt>
      <trkpt lat="44.92136" lon="3.11971">
        <ele>749</ele>
        <time>2019-01-08T00:23:59Z</time>
      </trkpt>
      <trkpt lat="44.92093" lon="3.11994">
        <ele>745</ele>
        <time>2019-01-08T00:24:59Z</time>
      </trkpt>
      <trkpt lat="44.92077" lon="3.12048">
        <ele>753</ele>
        <time>2019-01-08T00:25:59Z</time>
      </trkpt>
      <trkpt lat="44.92071" lon="3.121">
        <ele>765</ele>
        <time>2019-01-08T00:26:59Z</time>
      </trkpt>
      <trkpt lat="44.92059" lon="3.12133">
        <ele>776</ele>
        <time>2019-01-08T00:27:59Z</time>
      </trkpt>
      <trkpt lat="44.92037" lon="3.12137">
        <ele>780</ele>
        <time>2019-01-08T00:28:59Z</time>
      </trkpt>
      <trkpt lat="44.92024" lon="3.12122">
        <ele>776</ele>
        <time>2019-01-08T00:29:59Z</time>
      </trkpt>
      <trkpt lat="44.92007" lon="3.12062">
        <ele>757</ele>
        <time>2019-01-08T00:30:59Z</time>
      </trkpt>
      <trkpt lat="44.91983" lon="3.12041">
        <ele>755</ele>
        <time>2019-01-08T00:31:59Z</time>
      </trkpt>
      <trkpt lat="44.91931" lon="3.12029">
        <ele>759</ele>
        <time>2019-01-08T00:32:59Z</time>
      </trkpt>
      <trkpt lat="44.91894" lon="3.12017">
        <ele>758</ele>
        <time>2019-01-08T00:33:59Z</time>
      </trkpt>
      <trkpt lat="44.91864" lon="3.12">
        <ele>753</ele>
        <time>2019-01-08T00:34:59Z</time>
      </trkpt>
      <trkpt lat="44.91849" lon="3.11983">
        <ele>750</ele>
        <time>2019-01-08T00:35:59Z</time>
      </trkpt>
      <trkpt lat="44.91813" lon="3.11985">
        <ele>747</ele>
        <time>2019-01-08T00:36:59Z</time>
      </trkpt>
      <trkpt lat="44.91797" lon="3.12008">
        <ele>749</ele>
        <time>2019-01-08T00:37:59Z</time>
      </trkpt>
      <trkpt lat="44.91779" lon="3.12039">
        <ele>753</ele>
        <time>2019-01-08T00:38:59Z</time>
      </trkpt>
      <trkpt lat="44.91722" lon="3.12117">
        <ele>756</ele>
        <time>2019-01-08T00:39:59Z</time>
      </trkpt>
      <trkpt lat="44.91707" lon="3.12136">
        <ele>756</ele>
        <time>2019-01-08T00:40:59Z</time>
      </trkpt>
      <trkpt lat="44.91682" lon="3.12161">
        <ele>752</ele>
        <time>2019-01-08T00:41:59Z</time>
      </trkpt>
      <trkpt lat="44.91636" lon="3.12245">
        <ele>753</ele>
        <time>2019-01-08T00:42:59Z</time>
      </trkpt>
      <trkpt lat="44.91614" lon="3.1228">
        <ele>749</ele>
        <time>2019-01-08T00:43:59Z</time>
      </trkpt>
      <trkpt lat="44.91606" lon="3.12283">
        <ele>746</ele>
        <time>2019-01-08T00:44:59Z</time>
      </trkpt>
      <trkpt lat="44.9157" lon="3.12248">
        <ele>736</ele>
        <time>2019-01-08T00:45:59Z</time>
      </trkpt>
      <trkpt lat="44.91472" lon="3.12152">
        <ele>736</ele>
        <time>2019-01-08T00:46:59Z</time>
      </trkpt>
      <trkpt lat="44.91424" lon="3.12107">
        <ele>739</ele>
        <time>2019-01-08T00:47:59Z</time>
      </trkpt>
      <trkpt lat="44.91331" lon="3.12015">
        <ele>753</ele>
        <time>2019-01-08T00:48:59Z</time>
      </trkpt>
      <trkpt lat="44.91293" lon="3.11987">
        <ele>757</ele>
        <time>2019-01-08T00:49:59Z</time>
      </trkpt>
      <trkpt lat="44.91258" lon="3.11969">
        <ele>762</ele>
        <time>2019-01-08T00:50:59Z</time>
      </trkpt>
      <trkpt lat="44.91188" lon="3.11905">
        <ele>766</ele>
        <time>2019-01-08T00:51:59Z</time>
      </trkpt>
      <trkpt lat="44.91157" lon="3.11855">
        <ele>763</ele>
        <time>2019-01-08T00:52:59Z</time>
      </trkpt>
      <trkpt lat="44.91134" lon="3.11824">
        <ele>765</ele>
        <time>2019-01-08T00:53:59Z</time>
      </trkpt>
      <trkpt lat="44.91119" lon="3.11774">
        <ele>761</ele>
        <time>2019-01-08T00:54:59Z</time>
      </trkpt>
      <trkpt lat="44.91087" lon="3.11723">
        <ele>760</ele>
        <time>2019-01-08T00:55:59Z</time>
      </trkpt>
      <trkpt lat="44.91045" lon="3.11689">
        <ele>765</ele>
        <time>2019-01-08T00:56:59Z</time>
      </trkpt>
      <trkpt lat="44.9102" lon="3.11667">
        <ele>766</ele>
        <time>2019-01-08T00:57:59Z</time>
      </trkpt>
      <trkpt lat="44.90967" lon="3.11647">
        <ele>776</ele>
        <time>2019-01-08T00:58:59Z</time>
      </trkpt>
      <trkpt lat="44.90925" lon="3.11627">
        <ele>780</ele>
        <time>2019-01-08T00:59:59Z</time>
      </trkpt>
      <trkpt lat="44.90887" lon="3.11607">
        <ele>785</ele>
        <time>2019-01-08T01:00:59Z</time>
      </trkpt>
      <trkpt lat="44.9084" lon="3.11557">
        <ele>790</ele>
        <time>2019-01-08T01:01:59Z</time>
      </trkpt>
      <trkpt lat="44.90827" lon="3.1153">
        <ele>793</ele>
        <time>2019-01-08T01:02:59Z</time>
      </trkpt>
      <trkpt lat="44.90833" lon="3.11502">
        <ele>786</ele>
        <time>2019-01-08T01:03:59Z</time>
      </trkpt>
      <trkpt lat="44.90851" lon="3.11475">
        <ele>789</ele>
        <time>2019-01-08T01:04:59Z</time>
      </trkpt>
      <trkpt lat="44.90874" lon="3.11467">
        <ele>793</ele>
        <time>2019-01-08T01:05:59Z</time>
      </trkpt>
      <trkpt lat="44.90923" lon="3.11509">
        <ele>784</ele>
        <time>2019-01-08T01:06:59Z</time>
      </trkpt>
      <trkpt lat="44.90964" lon="3.11499">
        <ele>785</ele>
        <time>2019-01-08T01:07:59Z</time>
      </trkpt>
      <trkpt lat="44.91005" lon="3.11489">
        <ele>786</ele>
        <time>2019-01-08T01:08:59Z</time>
      </trkpt>
      <trkpt lat="44.91016" lon="3.11457">
        <ele>792</ele>
        <time>2019-01-08T01:09:59Z</time>
      </trkpt>
      <trkpt lat="44.91018" lon="3.11416">
        <ele>804</ele>
        <time>2019-01-08T01:10:59Z</time>
      </trkpt>
      <trkpt lat="44.91039" lon="3.11372">
        <ele>802</ele>
        <time>2019-01-08T01:11:59Z</time>
      </trkpt>
      <trkpt lat="44.91049" lon="3.11346">
        <ele>802</ele>
        <time>2019-01-08T01:12:59Z</time>
      </trkpt>
      <trkpt lat="44.91055" lon="3.11278">
        <ele>815</ele>
        <time>2019-01-08T01:13:59Z</time>
      </trkpt>
      <trkpt lat="44.91068" lon="3.11237">
        <ele>819</ele>
        <time>2019-01-08T01:14:59Z</time>
      </trkpt>
      <trkpt lat="44.91106" lon="3.11198">
        <ele>818</ele>
        <time>2019-01-08T01:15:59Z</time>
      </trkpt>
      <trkpt lat="44.91141" lon="3.11176">
        <ele>815</ele>
        <time>2019-01-08T01:16:59Z</time>
      </trkpt>
      <trkpt lat="44.91162" lon="3.11141">
        <ele>822</ele>
        <time>2019-01-08T01:17:59Z</time>
      </trkpt>
      <trkpt lat="44.91182" lon="3.1112">
        <ele>826</ele>
        <time>2019-01-08T01:18:59Z</time>
      </trkpt>
      <trkpt lat="44.91216" lon="3.11121">
        <ele>818</ele>
        <time>2019-01-08T01:19:59Z</time>
      </trkpt>
      <trkpt lat="44.9124" lon="3.11102">
        <ele>821</ele>
        <time>2019-01-08T01:20:59Z</time>
      </trkpt>
      <trkpt lat="44.91279" lon="3.11068">
        <ele>825</ele>
        <time>2019-01-08T01:21:59Z</time>
      </trkpt>
      <trkpt lat="44.91327" lon="3.1107">
        <ele>819</ele>
        <time>2019-01-08T01:22:59Z</time>
      </trkpt>
      <trkpt lat="44.91338" lon="3.11053">
        <ele>818</ele>
        <time>2019-01-08T01:23:59Z</time>
      </trkpt>
      <trkpt lat="44.91327" lon="3.11032">
        <ele>822</ele>
        <time>2019-01-08T01:24:59Z</time>
      </trkpt>
      <trkpt lat="44.91298" lon="3.11022">
        <ele>828</ele>
        <time>2019-01-08T01:25:59Z</time>
      </trkpt>
      <trkpt lat="44.91241" lon="3.11">
        <ele>840</ele>
        <time>2019-01-08T01:26:59Z</time>
      </trkpt>
      <trkpt lat="44.91203" lon="3.10961">
        <ele>849</ele>
        <time>2019-01-08T01:27:59Z</time>
      </trkpt>
      <trkpt lat="44.91169" lon="3.10924">
        <ele>853</ele>
        <time>2019-01-08T01:28:59Z</time>
      </trkpt>
      <trkpt lat="44.91132" lon="3.1091">
        <ele>859</ele>
        <time>2019-01-08T01:29:59Z</time>
      </trkpt>
      <trkpt lat="44.91117" lon="3.10895">
        <ele>862</ele>
        <time>2019-01-08T01:30:59Z</time>
      </trkpt>
      <trkpt lat="44.91111" lon="3.10857">
        <ele>867</ele>
        <time>2019-01-08T01:31:59Z</time>
      </trkpt>
      <trkpt lat="44.91132" lon="3.10827">
        <ele>867</ele>
        <time>2019-01-08T01:32:59Z</time>
      </trkpt>
      <trkpt lat="44.9117" lon="3.10788">
        <ele>866</ele>
        <time>2019-01-08T01:33:59Z</time>
      </trkpt>
      <trkpt lat="44.91179" lon="3.10769">
        <ele>867</ele>
        <time>2019-01-08T01:34:59Z</time>
      </trkpt>
      <trkpt lat="44.91183" lon="3.10725">
        <ele>872</ele>
        <time>2019-01-08T01:35:59Z</time>
      </trkpt>
      <trkpt lat="44.91186" lon="3.10639">
        <ele>881</ele>
        <time>2019-01-08T01:36:59Z</time>
      </trkpt>
      <trkpt lat="44.91187" lon="3.10604">
        <ele>885</ele>
        <time>2019-01-08T01:37:59Z</time>
      </trkpt>
      <trkpt lat="44.91197" lon="3.10574">
        <ele>886</ele>
        <time>2019-01-08T01:38:59Z</time>
      </trkpt>
      <trkpt lat="44.91219" lon="3.10528">
        <ele>886</ele>
        <time>2019-01-08T01:39:59Z</time>
      </trkpt>
      <trkpt lat="44.91246" lon="3.10474">
        <ele>887</ele>
        <time>2019-01-08T01:40:59Z</time>
      </trkpt>
      <trkpt lat="44.91255" lon="3.10439">
        <ele>888</ele>
        <time>2019-01-08T01:41:59Z</time>
      </trkpt>
      <trkpt lat="44.91256" lon="3.1041">
        <ele>890</ele>
        <time>2019-01-08T01:42:59Z</time>
      </trkpt>
      <trkpt lat="44.91245" lon="3.10373">
        <ele>891</ele>
        <time>2019-01-08T01:43:59Z</time>
      </trkpt>
      <trkpt lat="44.91226" lon="3.10345">
        <ele>893</ele>
        <time>2019-01-08T01:44:59Z</time>
      </trkpt>
      <trkpt lat="44.912" lon="3.10327">
        <ele>894</ele>
        <time>2019-01-08T01:45:59Z</time>
      </trkpt>
      <trkpt lat="44.91171" lon="3.10323">
        <ele>896</ele>
        <time>2019-01-08T01:46:59Z</time>
      </trkpt>
      <trkpt lat="44.91142" lon="3.10313">
        <ele>898</ele>
        <time>2019-01-08T01:47:59Z</time>
      </trkpt>
      <trkpt lat="44.9111" lon="3.103">
        <ele>899</ele>
        <time>2019-01-08T01:48:59Z</time>
      </trkpt>
      <trkpt lat="44.91069" lon="3.10286">
        <ele>900</ele>
        <time>2019-01-08T01:49:59Z</time>
      </trkpt>
      <trkpt lat="44.91042" lon="3.10281">
        <ele>901</ele>
        <time>2019-01-08T01:50:59Z</time>
      </trkpt>
      <trkpt lat="44.9101" lon="3.10288">
        <ele>902</ele>
        <time>2019-01-08T01:51:59Z</time>
      </trkpt>
      <trkpt lat="44.90952" lon="3.10308">
        <ele>902</ele>
        <time>2019-01-08T01:52:59Z</time>
      </trkpt>
      <trkpt lat="44.90916" lon="3.10322">
        <ele>902</ele>
        <time>2019-01-08T01:53:59Z</time>
      </trkpt>
      <trkpt lat="44.90869" lon="3.10337">
        <ele>903</ele>
        <time>2019-01-08T01:54:59Z</time>
      </trkpt>
      <trkpt lat="44.90835" lon="3.10321">
        <ele>902</ele>
        <time>2019-01-08T01:55:59Z</time>
      </trkpt>
      <trkpt lat="44.90813" lon="3.10298">
        <ele>903</ele>
        <time>2019-01-08T01:56:59Z</time>
      </trkpt>
      <trkpt lat="44.90791" lon="3.10259">
        <ele>904</ele>
        <time>2019-01-08T01:57:59Z</time>
      </trkpt>
      <trkpt lat="44.90763" lon="3.10188">
        <ele>906</ele>
        <time>2019-01-08T01:58:59Z</time>
      </trkpt>
      <trkpt lat="44.90734" lon="3.10117">
        <ele>907</ele>
        <time>2019-01-08T01:59:59Z</time>
      </trkpt>
      <trkpt lat="44.9072" lon="3.10096">
        <ele>908</ele>
        <time>2019-01-08T02:00:59Z</time>
      </trkpt>
      <trkpt lat="44.90682" lon="3.10063">
        <ele>909</ele>
        <time>2019-01-08T02:01:59Z</time>
      </trkpt>
      <trkpt lat="44.90635" lon="3.10039">
        <ele>911</ele>
        <time>2019-01-08T02:02:59Z</time>
      </trkpt>
      <trkpt lat="44.9058" lon="3.10003">
        <ele>912</ele>
        <time>2019-01-08T02:03:59Z</time>
      </trkpt>
      <trkpt lat="44.90555" lon="3.0997">
        <ele>913</ele>
        <time>2019-01-08T02:04:59Z</time>
      </trkpt>
      <trkpt lat="44.9054" lon="3.09934">
        <ele>913</ele>
        <time>2019-01-08T02:05:59Z</time>
      </trkpt>
      <trkpt lat="44.90533" lon="3.09877">
        <ele>917</ele>
        <time>2019-01-08T02:06:59Z</time>
      </trkpt>
      <trkpt lat="44.90538" lon="3.09827">
        <ele>921</ele>
        <time>2019-01-08T02:07:59Z</time>
      </trkpt>
      <trkpt lat="44.90552" lon="3.09791">
        <ele>923</ele>
        <time>2019-01-08T02:08:59Z</time>
      </trkpt>
      <trkpt lat="44.90562" lon="3.0976">
        <ele>924</ele>
        <time>2019-01-08T02:09:59Z</time>
      </trkpt>
      <trkpt lat="44.90573" lon="3.09723">
        <ele>925</ele>
        <time>2019-01-08T02:10:59Z</time>
      </trkpt>
      <trkpt lat="44.90572" lon="3.0967">
        <ele>927</ele>
        <time>2019-01-08T02:11:59Z</time>
      </trkpt>
      <trkpt lat="44.90565" lon="3.09611">
        <ele>928</ele>
        <time>2019-01-08T02:12:59Z</time>
      </trkpt>
      <trkpt lat="44.90557" lon="3.09553">
        <ele>929</ele>
        <time>2019-01-08T02:13:59Z</time>
      </trkpt>
      <trkpt lat="44.90546" lon="3.09505">
        <ele>929</ele>
        <time>2019-01-08T02:14:59Z</time>
      </trkpt>
      <trkpt lat="44.90524" lon="3.09472">
        <ele>930</ele>
        <time>2019-01-08T02:15:59Z</time>
      </trkpt>
      <trkpt lat="44.90499" lon="3.09444">
        <ele>930</ele>
        <time>2019-01-08T02:16:59Z</time>
      </trkpt>
      <trkpt lat="44.90462" lon="3.09406">
        <ele>929</ele>
        <time>2019-01-08T02:17:59Z</time>
      </trkpt>
      <trkpt lat="44.90447" lon="3.09389">
        <ele>929</ele>
        <time>2019-01-08T02:18:59Z</time>
      </trkpt>
      <trkpt lat="44.9043" lon="3.09359">
        <ele>929</ele>
        <time>2019-01-08T02:19:59Z</time>
      </trkpt>
      <trkpt lat="44.90413" lon="3.09305">
        <ele>928</ele>
        <time>2019-01-08T02:20:59Z</time>
      </trkpt>
      <trkpt lat="44.90396" lon="3.09226">
        <ele>928</ele>
        <time>2019-01-08T02:21:59Z</time>
      </trkpt>
      <trkpt lat="44.90385" lon="3.09181">
        <ele>928</ele>
        <time>2019-01-08T02:22:59Z</time>
      </trkpt>
      <trkpt lat="44.90368" lon="3.09145">
        <ele>929</ele>
        <time>2019-01-08T02:23:59Z</time>
      </trkpt>
      <trkpt lat="44.90352" lon="3.09125">
        <ele>929</ele>
        <time>2019-01-08T02:24:59Z</time>
      </trkpt>
      <trkpt lat="44.90296" lon="3.09077">
        <ele>929</ele>
        <time>2019-01-08T02:25:59Z</time>
      </trkpt>
      <trkpt lat="44.90236" lon="3.08995">
        <ele>928</ele>
        <time>2019-01-08T02:26:59Z</time>
      </trkpt>
      <trkpt lat="44.90135" lon="3.08891">
        <ele>931</ele>
        <time>2019-01-08T02:27:59Z</time>
      </trkpt>
      <trkpt lat="44.90007" lon="3.08764">
        <ele>932</ele>
        <time>2019-01-08T02:28:59Z</time>
      </trkpt>
      <trkpt lat="44.89947" lon="3.08771">
        <ele>936</ele>
        <time>2019-01-08T02:29:59Z</time>
      </trkpt>
      <trkpt lat="44.89855" lon="3.08849">
        <ele>939</ele>
        <time>2019-01-08T02:30:59Z</time>
      </trkpt>
      <trkpt lat="44.8978" lon="3.08897">
        <ele>939</ele>
        <time>2019-01-08T02:31:59Z</time>
      </trkpt>
      <trkpt lat="44.8969" lon="3.08938">
        <ele>939</ele>
        <time>2019-01-08T02:32:59Z</time>
      </trkpt>
      <trkpt lat="44.8962" lon="3.08949">
        <ele>938</ele>
        <time>2019-01-08T02:33:59Z</time>
      </trkpt>
      <trkpt lat="44.89544" lon="3.08976">
        <ele>937</ele>
        <time>2019-01-08T02:34:59Z</time>
      </trkpt>
      <trkpt lat="44.8945" lon="3.08969">
        <ele>936</ele>
        <time>2019-01-08T02:35:59Z</time>
      </trkpt>
      <trkpt lat="44.89372" lon="3.08953">
        <ele>937</ele>
        <time>2019-01-08T02:36:59Z</time>
      </trkpt>
      <trkpt lat="44.89322" lon="3.08938">
        <ele>937</ele>
        <time>2019-01-08T02:37:59Z</time>
      </trkpt>
      <trkpt lat="44.89267" lon="3.08956">
        <ele>936</ele>
        <time>2019-01-08T02:38:59Z</time>
      </trkpt>
      <trkpt lat="44.89223" lon="3.08932">
        <ele>934</ele>
        <time>2019-01-08T02:39:59Z</time>
      </trkpt>
      <trkpt lat="44.89145" lon="3.08874">
        <ele>931</ele>
        <time>2019-01-08T02:40:59Z</time>
      </trkpt>
      <trkpt lat="44.89053" lon="3.08835">
        <ele>929</ele>
        <time>2019-01-08T02:41:59Z</time>
      </trkpt>
      <trkpt lat="44.88976" lon="3.08806">
        <ele>931</ele>
        <time>2019-01-08T02:42:59Z</time>
      </trkpt>
      <trkpt lat="44.88831" lon="3.08762">
        <ele>939</ele>
        <time>2019-01-08T02:43:59Z</time>
      </trkpt>
      <trkpt lat="44.88758" lon="3.08799">
        <ele>944</ele>
        <time>2019-01-08T02:44:59Z</time>
      </trkpt>
      <trkpt lat="44.88685" lon="3.08802">
        <ele>948</ele>
        <time>2019-01-08T02:45:59Z</time>
      </trkpt>
      <trkpt lat="44.88488" lon="3.08741">
        <ele>954</ele>
        <time>2019-01-08T02:46:59Z</time>
      </trkpt>
      <trkpt lat="44.88329" lon="3.08686">
        <ele>953</ele>
        <time>2019-01-08T02:47:59Z</time>
      </trkpt>
      <trkpt lat="44.88251" lon="3.08688">
        <ele>952</ele>
        <time>2019-01-08T02:48:59Z</time>
      </trkpt>
      <trkpt lat="44.8817" lon="3.08706">
        <ele>952</ele>
        <time>2019-01-08T02:49:59Z</time>
      </trkpt>
      <trkpt lat="44.88074" lon="3.08683">
        <ele>952</ele>
        <time>2019-01-08T02:50:59Z</time>
      </trkpt>
      <trkpt lat="44.88013" lon="3.08664">
        <ele>954</ele>
        <time>2019-01-08T02:51:59Z</time>
      </trkpt>
      <trkpt lat="44.87894" lon="3.0856">
        <ele>959</ele>
        <time>2019-01-08T02:52:59Z</time>
      </trkpt>
      <trkpt lat="44.87825" lon="3.08499">
        <ele>958</ele>
        <time>2019-01-08T02:53:59Z</time>
      </trkpt>
      <trkpt lat="44.87763" lon="3.08463">
        <ele>959</ele>
        <time>2019-01-08T02:54:59Z</time>
      </trkpt>
      <trkpt lat="44.87731" lon="3.08404">
        <ele>959</ele>
        <time>2019-01-08T02:55:59Z</time>
      </trkpt>
      <trkpt lat="44.87713" lon="3.08353">
        <ele>962</ele>
        <time>2019-01-08T02:56:59Z</time>
      </trkpt>
      <trkpt lat="44.87636" lon="3.08265">
        <ele>971</ele>
        <time>2019-01-08T02:57:59Z</time>
      </trkpt>
      <trkpt lat="44.87488" lon="3.08067">
        <ele>977</ele>
        <time>2019-01-08T02:58:59Z</time>
      </trkpt>
      <trkpt lat="44.87436" lon="3.0801">
        <ele>978</ele>
        <time>2019-01-08T02:59:59Z</time>
      </trkpt>
      <trkpt lat="44.87414" lon="3.07943">
        <ele>977</ele>
        <time>2019-01-08T03:00:59Z</time>
      </trkpt>
      <trkpt lat="44.87367" lon="3.07794">
        <ele>978</ele>
        <time>2019-01-08T03:01:59Z</time>
      </trkpt>
      <trkpt lat="44.87299" lon="3.07586">
        <ele>979</ele>
        <time>2019-01-08T03:02:59Z</time>
      </trkpt>
      <trkpt lat="44.87285" lon="3.07489">
        <ele>978</ele>
        <time>2019-01-08T03:03:59Z</time>
      </trkpt>
      <trkpt lat="44.87259" lon="3.07422">
        <ele>981</ele>
        <time>2019-01-08T03:04:59Z</time>
      </trkpt>
      <trkpt lat="44.87199" lon="3.07328">
        <ele>980</ele>
        <time>2019-01-08T03:05:59Z</time>
      </trkpt>
      <trkpt lat="44.87134" lon="3.07157">
        <ele>979</ele>
        <time>2019-01-08T03:06:59Z</time>
      </trkpt>
      <trkpt lat="44.8713" lon="3.07042">
        <ele>977</ele>
        <time>2019-01-08T03:07:59Z</time>
      </trkpt>
      <trkpt lat="44.87102" lon="3.06987">
        <ele>975</ele>
        <time>2019-01-08T03:08:59Z</time>
      </trkpt>
      <trkpt lat="44.87027" lon="3.06794">
        <ele>966</ele>
        <time>2019-01-08T03:09:59Z</time>
      </trkpt>
      <trkpt lat="44.86957" lon="3.0663">
        <ele>960</ele>
        <time>2019-01-08T03:10:59Z</time>
      </trkpt>
      <trkpt lat="44.86927" lon="3.06558">
        <ele>950</ele>
        <time>2019-01-08T03:11:59Z</time>
      </trkpt>
      <trkpt lat="44.86872" lon="3.06542">
        <ele>942</ele>
        <time>2019-01-08T03:12:59Z</time>
      </trkpt>
      <trkpt lat="44.86808" lon="3.06582">
        <ele>938</ele>
        <time>2019-01-08T03:13:59Z</time>
      </trkpt>
      <trkpt lat="44.86777" lon="3.06717">
        <ele>951</ele>
        <time>2019-01-08T03:14:59Z</time>
      </trkpt>
      <trkpt lat="44.8675" lon="3.06738">
        <ele>946</ele>
        <time>2019-01-08T03:15:59Z</time>
      </trkpt>
      <trkpt lat="44.86722" lon="3.06726">
        <ele>937</ele>
        <time>2019-01-08T03:16:59Z</time>
      </trkpt>
      <trkpt lat="44.86659" lon="3.06796">
        <ele>942</ele>
        <time>2019-01-08T03:17:59Z</time>
      </trkpt>
      <trkpt lat="44.86553" lon="3.0686">
        <ele>938</ele>
        <time>2019-01-08T03:18:59Z</time>
      </trkpt>
      <trkpt lat="44.86501" lon="3.06867">
        <ele>938</ele>
        <time>2019-01-08T03:19:59Z</time>
      </trkpt>
      <trkpt lat="44.86472" lon="3.06873">
        <ele>940</ele>
        <time>2019-01-08T03:20:59Z</time>
      </trkpt>
      <trkpt lat="44.86462" lon="3.0685">
        <ele>938</ele>
        <time>2019-01-08T03:21:59Z</time>
      </trkpt>
      <trkpt lat="44.86468" lon="3.06823">
        <ele>938</ele>
        <time>2019-01-08T03:22:59Z</time>
      </trkpt>
      <trkpt lat="44.86505" lon="3.06794">
        <ele>940</ele>
        <time>2019-01-08T03:23:59Z</time>
      </trkpt>
      <trkpt lat="44.8656" lon="3.06747">
        <ele>935</ele>
        <time>2019-01-08T03:24:59Z</time>
      </trkpt>
      <trkpt lat="44.86583" lon="3.06694">
        <ele>940</ele>
        <time>2019-01-08T03:25:59Z</time>
      </trkpt>
      <trkpt lat="44.86588" lon="3.06638">
        <ele>948</ele>
        <time>2019-01-08T03:26:59Z</time>
      </trkpt>
      <trkpt lat="44.86604" lon="3.06562">
        <ele>947</ele>
        <time>2019-01-08T03:27:59Z</time>
      </trkpt>
      <trkpt lat="44.8658" lon="3.06511">
        <ele>958</ele>
        <time>2019-01-08T03:28:59Z</time>
      </trkpt>
      <trkpt lat="44.86582" lon="3.0647">
        <ele>960</ele>
        <time>2019-01-08T03:29:59Z</time>
      </trkpt>
      <trkpt lat="44.86591" lon="3.06443">
        <ele>959</ele>
        <time>2019-01-08T03:30:59Z</time>
      </trkpt>
      <trkpt lat="44.86619" lon="3.06417">
        <ele>950</ele>
        <time>2019-01-08T03:31:59Z</time>
      </trkpt>
      <trkpt lat="44.86621" lon="3.06379">
        <ele>954</ele>
        <time>2019-01-08T03:32:59Z</time>
      </trkpt>
      <trkpt lat="44.86607" lon="3.06333">
        <ele>965</ele>
        <time>2019-01-08T03:33:59Z</time>
      </trkpt>
      <trkpt lat="44.86618" lon="3.063">
        <ele>968</ele>
        <time>2019-01-08T03:34:59Z</time>
      </trkpt>
      <trkpt lat="44.86655" lon="3.0628">
        <ele>963</ele>
        <time>2019-01-08T03:35:59Z</time>
      </trkpt>
      <trkpt lat="44.86685" lon="3.06252">
        <ele>962</ele>
        <time>2019-01-08T03:36:59Z</time>
      </trkpt>
      <trkpt lat="44.86708" lon="3.06207">
        <ele>959</ele>
        <time>2019-01-08T03:37:59Z</time>
      </trkpt>
      <trkpt lat="44.86702" lon="3.06172">
        <ele>966</ele>
        <time>2019-01-08T03:38:59Z</time>
      </trkpt>
      <trkpt lat="44.8668" lon="3.06137">
        <ele>970</ele>
        <time>2019-01-08T03:39:59Z</time>
      </trkpt>
      <trkpt lat="44.8664" lon="3.06109">
        <ele>973</ele>
        <time>2019-01-08T03:40:59Z</time>
      </trkpt>
      <trkpt lat="44.86598" lon="3.06078">
        <ele>976</ele>
        <time>2019-01-08T03:41:59Z</time>
      </trkpt>
      <trkpt lat="44.8659" lon="3.06026">
        <ele>973</ele>
        <time>2019-01-08T03:42:59Z</time>
      </trkpt>
      <trkpt lat="44.86521" lon="3.05935">
        <ele>977</ele>
        <time>2019-01-08T03:43:59Z</time>
      </trkpt>
      <trkpt lat="44.86467" lon="3.05863">
        <ele>983</ele>
        <time>2019-01-08T03:44:59Z</time>
      </trkpt>
      <trkpt lat="44.86453" lon="3.05809">
        <ele>985</ele>
        <time>2019-01-08T03:45:59Z</time>
      </trkpt>
      <trkpt lat="44.86459" lon="3.05735">
        <ele>985</ele>
        <time>2019-01-08T03:46:59Z</time>
      </trkpt>
      <trkpt lat="44.8649" lon="3.05695">
        <ele>982</ele>
        <time>2019-01-08T03:47:59Z</time>
      </trkpt>
      <trkpt lat="44.86532" lon="3.05652">
        <ele>980</ele>
        <time>2019-01-08T03:48:59Z</time>
      </trkpt>
      <trkpt lat="44.86559" lon="3.05614">
        <ele>978</ele>
        <time>2019-01-08T03:49:59Z</time>
      </trkpt>
      <trkpt lat="44.86573" lon="3.05522">
        <ele>977</ele>
        <time>2019-01-08T03:50:59Z</time>
      </trkpt>
      <trkpt lat="44.86584" lon="3.05436">
        <ele>973</ele>
        <time>2019-01-08T03:51:59Z</time>
      </trkpt>
      <trkpt lat="44.86612" lon="3.05366">
        <ele>973</ele>
        <time>2019-01-08T03:52:59Z</time>
      </trkpt>
      <trkpt lat="44.86657" lon="3.05321">
        <ele>973</ele>
        <time>2019-01-08T03:53:59Z</time>
      </trkpt>
      <trkpt lat="44.86769" lon="3.0528">
        <ele>969</ele>
        <time>2019-01-08T03:54:59Z</time>
      </trkpt>
      <trkpt lat="44.86854" lon="3.05206">
        <ele>966</ele>
        <time>2019-01-08T03:55:59Z</time>
      </trkpt>
      <trkpt lat="44.86901" lon="3.0515">
        <ele>966</ele>
        <time>2019-01-08T03:56:59Z</time>
      </trkpt>
      <trkpt lat="44.86907" lon="3.05035">
        <ele>967</ele>
        <time>2019-01-08T03:57:59Z</time>
      </trkpt>
      <trkpt lat="44.86909" lon="3.0489">
        <ele>962</ele>
        <time>2019-01-08T03:58:59Z</time>
      </trkpt>
      <trkpt lat="44.86894" lon="3.04762">
        <ele>955</ele>
        <time>2019-01-08T03:59:59Z</time>
      </trkpt>
      <trkpt lat="44.86903" lon="3.04545">
        <ele>950</ele>
        <time>2019-01-08T04:00:59Z</time>
      </trkpt>
      <trkpt lat="44.8691" lon="3.04479">
        <ele>946</ele>
        <time>2019-01-08T04:01:59Z</time>
      </trkpt>
      <trkpt lat="44.86878" lon="3.04351">
        <ele>943</ele>
        <time>2019-01-08T04:02:59Z</time>
      </trkpt>
      <trkpt lat="44.86885" lon="3.04214">
        <ele>941</ele>
        <time>2019-01-08T04:03:59Z</time>
      </trkpt>
      <trkpt lat="44.86909" lon="3.04073">
        <ele>938</ele>
        <time>2019-01-08T04:04:59Z</time>
      </trkpt>
      <trkpt lat="44.86912" lon="3.04007">
        <ele>939</ele>
        <time>2019-01-08T04:05:59Z</time>
      </trkpt>
      <trkpt lat="44.86891" lon="3.03902">
        <ele>937</ele>
        <time>2019-01-08T04:06:59Z</time>
      </trkpt>
      <trkpt lat="44.8691" lon="3.038">
        <ele>936</ele>
        <time>2019-01-08T04:07:59Z</time>
      </trkpt>
      <trkpt lat="44.86952" lon="3.03734">
        <ele>934</ele>
        <time>2019-01-08T04:08:59Z</time>
      </trkpt>
      <trkpt lat="44.87039" lon="3.03683">
        <ele>932</ele>
        <time>2019-01-08T04:09:59Z</time>
      </trkpt>
      <trkpt lat="44.87086" lon="3.03632">
        <ele>931</ele>
        <time>2019-01-08T04:10:59Z</time>
      </trkpt>
      <trkpt lat="44.87122" lon="3.03372">
        <ele>924</ele>
        <time>2019-01-08T04:11:59Z</time>
      </trkpt>
      <trkpt lat="44.87113" lon="3.03193">
        <ele>916</ele>
        <time>2019-01-08T04:12:59Z</time>
      </trkpt>
      <trkpt lat="44.87097" lon="3.03073">
        <ele>911</ele>
        <time>2019-01-08T04:13:59Z</time>
      </trkpt>
      <trkpt lat="44.87079" lon="3.02951">
        <ele>909</ele>
        <time>2019-01-08T04:14:59Z</time>
      </trkpt>
      <trkpt lat="44.87024" lon="3.02813">
        <ele>903</ele>
        <time>2019-01-08T04:15:59Z</time>
      </trkpt>
      <trkpt lat="44.86943" lon="3.02629">
        <ele>900</ele>
        <time>2019-01-08T04:16:59Z</time>
      </trkpt>
      <trkpt lat="44.86858" lon="3.02448">
        <ele>897</ele>
        <time>2019-01-08T04:17:59Z</time>
      </trkpt>
      <trkpt lat="44.86806" lon="3.0233">
        <ele>896</ele>
        <time>2019-01-08T04:18:59Z</time>
      </trkpt>
      <trkpt lat="44.86769" lon="3.02221">
        <ele>891</ele>
        <time>2019-01-08T04:19:59Z</time>
      </trkpt>
      <trkpt lat="44.86744" lon="3.0217">
        <ele>886</ele>
        <time>2019-01-08T04:20:59Z</time>
      </trkpt>
      <trkpt lat="44.86668" lon="3.02114">
        <ele>879</ele>
        <time>2019-01-08T04:21:59Z</time>
      </trkpt>
      <trkpt lat="44.86607" lon="3.02029">
        <ele>871</ele>
        <time>2019-01-08T04:22:59Z</time>
      </trkpt>
      <trkpt lat="44.86608" lon="3.01983">
        <ele>867</ele>
        <time>2019-01-08T04:23:59Z</time>
      </trkpt>
      <trkpt lat="44.86702" lon="3.01945">
        <ele>864</ele>
        <time>2019-01-08T04:24:59Z</time>
      </trkpt>
      <trkpt lat="44.86721" lon="3.01871">
        <ele>851</ele>
        <time>2019-01-08T04:25:59Z</time>
      </trkpt>
      <trkpt lat="44.86751" lon="3.01825">
        <ele>842</ele>
        <time>2019-01-08T04:26:59Z</time>
      </trkpt>
      <trkpt lat="44.86836" lon="3.01823">
        <ele>839</ele>
        <time>2019-01-08T04:27:59Z</time>
      </trkpt>
      <trkpt lat="44.86901" lon="3.01795">
        <ele>845</ele>
        <time>2019-01-08T04:28:59Z</time>
      </trkpt>
      <trkpt lat="44.86916" lon="3.01754">
        <ele>843</ele>
        <time>2019-01-08T04:29:59Z</time>
      </trkpt>
      <trkpt lat="44.86905" lon="3.01621">
        <ele>820</ele>
        <time>2019-01-08T04:30:59Z</time>
      </trkpt>
      <trkpt lat="44.86927" lon="3.01555">
        <ele>818</ele>
        <time>2019-01-08T04:31:59Z</time>
      </trkpt>
      <trkpt lat="44.86965" lon="3.01458">
        <ele>808</ele>
        <time>2019-01-08T04:32:59Z</time>
      </trkpt>
      <trkpt lat="44.87012" lon="3.01389">
        <ele>806</ele>
        <time>2019-01-08T04:33:59Z</time>
      </trkpt>
      <trkpt lat="44.87053" lon="3.01328">
        <ele>802</ele>
        <time>2019-01-08T04:34:59Z</time>
      </trkpt>
      <trkpt lat="44.871" lon="3.01289">
        <ele>803</ele>
        <time>2019-01-08T04:35:59Z</time>
      </trkpt>
      <trkpt lat="44.87088" lon="3.01254">
        <ele>794</ele>
        <time>2019-01-08T04:36:59Z</time>
      </trkpt>
      <trkpt lat="44.87019" lon="3.0132">
        <ele>791</ele>
        <time>2019-01-08T04:37:59Z</time>
      </trkpt>
      <trkpt lat="44.86939" lon="3.01363">
        <ele>777</ele>
        <time>2019-01-08T04:38:59Z</time>
      </trkpt>
      <trkpt lat="44.86881" lon="3.01463">
        <ele>775</ele>
        <time>2019-01-08T04:39:59Z</time>
      </trkpt>
      <trkpt lat="44.86834" lon="3.01529">
        <ele>767</ele>
        <time>2019-01-08T04:40:59Z</time>
      </trkpt>
      <trkpt lat="44.86809" lon="3.01629">
        <ele>777</ele>
        <time>2019-01-08T04:41:59Z</time>
      </trkpt>
      <trkpt lat="44.86773" lon="3.01667">
        <ele>777</ele>
        <time>2019-01-08T04:42:59Z</time>
      </trkpt>
      <trkpt lat="44.86726" lon="3.01631">
        <ele>760</ele>
        <time>2019-01-08T04:43:59Z</time>
      </trkpt>
      <trkpt lat="44.86648" lon="3.01629">
        <ele>770</ele>
        <time>2019-01-08T04:44:59Z</time>
      </trkpt>
      <trkpt lat="44.86619" lon="3.01542">
        <ele>756</ele>
        <time>2019-01-08T04:45:59Z</time>
      </trkpt>
      <trkpt lat="44.86574" lon="3.01412">
        <ele>739</ele>
        <time>2019-01-08T04:46:59Z</time>
      </trkpt>
      <trkpt lat="44.86522" lon="3.0131">
        <ele>726</ele>
        <time>2019-01-08T04:47:59Z</time>
      </trkpt>
      <trkpt lat="44.8644" lon="3.0131">
        <ele>720</ele>
        <time>2019-01-08T04:48:59Z</time>
      </trkpt>
      <trkpt lat="44.86402" lon="3.01389">
        <ele>726</ele>
        <time>2019-01-08T04:49:59Z</time>
      </trkpt>
      <trkpt lat="44.86357" lon="3.01463">
        <ele>726</ele>
        <time>2019-01-08T04:50:59Z</time>
      </trkpt>
      <trkpt lat="44.86277" lon="3.01455">
        <ele>719</ele>
        <time>2019-01-08T04:51:59Z</time>
      </trkpt>
      <trkpt lat="44.86191" lon="3.01425">
        <ele>725</ele>
        <time>2019-01-08T04:52:59Z</time>
      </trkpt>
      <trkpt lat="44.86171" lon="3.01363">
        <ele>725</ele>
        <time>2019-01-08T04:53:59Z</time>
      </trkpt>
      <trkpt lat="44.86165" lon="3.01264">
        <ele>734</ele>
        <time>2019-01-08T04:54:59Z</time>
      </trkpt>
      <trkpt lat="44.86113" lon="3.01215">
        <ele>739</ele>
        <time>2019-01-08T04:55:59Z</time>
      </trkpt>
      <trkpt lat="44.85968" lon="3.01177">
        <ele>732</ele>
        <time>2019-01-08T04:56:59Z</time>
      </trkpt>
      <trkpt lat="44.85941" lon="3.01136">
        <ele>733</ele>
        <time>2019-01-08T04:57:59Z</time>
      </trkpt>
      <trkpt lat="44.85925" lon="3.01049">
        <ele>741</ele>
        <time>2019-01-08T04:58:59Z</time>
      </trkpt>
      <trkpt lat="44.8591" lon="3.00986">
        <ele>751</ele>
        <time>2019-01-08T04:59:59Z</time>
      </trkpt>
      <trkpt lat="44.8587" lon="3.00937">
        <ele>758</ele>
        <time>2019-01-08T05:00:59Z</time>
      </trkpt>
      <trkpt lat="44.85811" lon="3.00919">
        <ele>756</ele>
        <time>2019-01-08T05:01:59Z</time>
      </trkpt>
      <trkpt lat="44.85751" lon="3.00932">
        <ele>754</ele>
        <time>2019-01-08T05:02:59Z</time>
      </trkpt>
      <trkpt lat="44.85713" lon="3.00925">
        <ele>753</ele>
        <time>2019-01-08T05:03:59Z</time>
      </trkpt>
      <trkpt lat="44.85682" lon="3.00913">
        <ele>751</ele>
        <time>2019-01-08T05:04:59Z</time>
      </trkpt>
      <trkpt lat="44.85666" lon="3.00878">
        <ele>751</ele>
        <time>2019-01-08T05:05:59Z</time>
      </trkpt>
      <trkpt lat="44.85686" lon="3.00777">
        <ele>767</ele>
        <time>2019-01-08T05:06:59Z</time>
      </trkpt>
      <trkpt lat="44.85629" lon="3.00648">
        <ele>759</ele>
        <time>2019-01-08T05:07:59Z</time>
      </trkpt>
      <trkpt lat="44.85603" lon="3.00629">
        <ele>753</ele>
        <time>2019-01-08T05:08:59Z</time>
      </trkpt>
      <trkpt lat="44.85553" lon="3.00638">
        <ele>753</ele>
        <time>2019-01-08T05:09:59Z</time>
      </trkpt>
      <trkpt lat="44.85484" lon="3.00546">
        <ele>754</ele>
        <time>2019-01-08T05:10:59Z</time>
      </trkpt>
      <trkpt lat="44.85443" lon="3.00476">
        <ele>755</ele>
        <time>2019-01-08T05:11:59Z</time>
      </trkpt>
      <trkpt lat="44.85379" lon="3.00407">
        <ele>756</ele>
        <time>2019-01-08T05:12:59Z</time>
      </trkpt>
      <trkpt lat="44.8533" lon="3.00373">
        <ele>759</ele>
        <time>2019-01-08T05:13:59Z</time>
      </trkpt>
      <trkpt lat="44.85225" lon="3.00334">
        <ele>762</ele>
        <time>2019-01-08T05:14:59Z</time>
      </trkpt>
      <trkpt lat="44.85171" lon="3.00311">
        <ele>767</ele>
        <time>2019-01-08T05:15:59Z</time>
      </trkpt>
      <trkpt lat="44.85127" lon="3.00296">
        <ele>770</ele>
        <time>2019-01-08T05:16:59Z</time>
      </trkpt>
      <trkpt lat="44.85106" lon="3.00263">
        <ele>774</ele>
        <time>2019-01-08T05:17:59Z</time>
      </trkpt>
      <trkpt lat="44.8506" lon="3.00239">
        <ele>777</ele>
        <time>2019-01-08T05:18:59Z</time>
      </trkpt>
      <trkpt lat="44.85027" lon="3.002">
        <ele>783</ele>
        <time>2019-01-08T05:19:59Z</time>
      </trkpt>
      <trkpt lat="44.85012" lon="3.00139">
        <ele>792</ele>
        <time>2019-01-08T05:20:59Z</time>
      </trkpt>
      <trkpt lat="44.85009" lon="3.00085">
        <ele>802</ele>
        <time>2019-01-08T05:21:59Z</time>
      </trkpt>
      <trkpt lat="44.84992" lon="3.00082">
        <ele>801</ele>
        <time>2019-01-08T05:22:59Z</time>
      </trkpt>
      <trkpt lat="44.84979" lon="3.00112">
        <ele>798</ele>
        <time>2019-01-08T05:23:59Z</time>
      </trkpt>
      <trkpt lat="44.84972" lon="3.00166">
        <ele>792</ele>
        <time>2019-01-08T05:24:59Z</time>
      </trkpt>
      <trkpt lat="44.84958" lon="3.00196">
        <ele>790</ele>
        <time>2019-01-08T05:25:59Z</time>
      </trkpt>
      <trkpt lat="44.84899" lon="3.00244">
        <ele>792</ele>
        <time>2019-01-08T05:26:59Z</time>
      </trkpt>
      <trkpt lat="44.84862" lon="3.00254">
        <ele>798</ele>
        <time>2019-01-08T05:27:59Z</time>
      </trkpt>
      <trkpt lat="44.84795" lon="3.00235">
        <ele>814</ele>
        <time>2019-01-08T05:28:59Z</time>
      </trkpt>
      <trkpt lat="44.84815" lon="3.00218">
        <ele>818</ele>
        <time>2019-01-08T05:29:59Z</time>
      </trkpt>
      <trkpt lat="44.84849" lon="3.00236">
        <ele>806</ele>
        <time>2019-01-08T05:30:59Z</time>
      </trkpt>
      <trkpt lat="44.84878" lon="3.00233">
        <ele>800</ele>
        <time>2019-01-08T05:31:59Z</time>
      </trkpt>
      <trkpt lat="44.84907" lon="3.00195">
        <ele>802</ele>
        <time>2019-01-08T05:32:59Z</time>
      </trkpt>
      <trkpt lat="44.84913" lon="3.00158">
        <ele>807</ele>
        <time>2019-01-08T05:33:59Z</time>
      </trkpt>
      <trkpt lat="44.84912" lon="3.00119">
        <ele>810</ele>
        <time>2019-01-08T05:34:59Z</time>
      </trkpt>
      <trkpt lat="44.84904" lon="3.00055">
        <ele>820</ele>
        <time>2019-01-08T05:35:59Z</time>
      </trkpt>
      <trkpt lat="44.8492" lon="3.00023">
        <ele>820</ele>
        <time>2019-01-08T05:36:59Z</time>
      </trkpt>
      <trkpt lat="44.84977" lon="3.00009">
        <ele>822</ele>
        <time>2019-01-08T05:37:59Z</time>
      </trkpt>
      <trkpt lat="44.8504" lon="2.99999">
        <ele>830</ele>
        <time>2019-01-08T05:38:59Z</time>
      </trkpt>
      <trkpt lat="44.85076" lon="3.00021">
        <ele>829</ele>
        <time>2019-01-08T05:39:59Z</time>
      </trkpt>
      <trkpt lat="44.85123" lon="3.00048">
        <ele>833</ele>
        <time>2019-01-08T05:40:59Z</time>
      </trkpt>
      <trkpt lat="44.85171" lon="3.00066">
        <ele>836</ele>
        <time>2019-01-08T05:41:59Z</time>
      </trkpt>
      <trkpt lat="44.85236" lon="3.00064">
        <ele>842</ele>
        <time>2019-01-08T05:42:59Z</time>
      </trkpt>
      <trkpt lat="44.85316" lon="3.00036">
        <ele>849</ele>
        <time>2019-01-08T05:43:59Z</time>
      </trkpt>
      <trkpt lat="44.85353" lon="3.00013">
        <ele>853</ele>
        <time>2019-01-08T05:44:59Z</time>
      </trkpt>
      <trkpt lat="44.85374" lon="2.99972">
        <ele>863</ele>
        <time>2019-01-08T05:45:59Z</time>
      </trkpt>
      <trkpt lat="44.85413" lon="2.99926">
        <ele>870</ele>
        <time>2019-01-08T05:46:59Z</time>
      </trkpt>
      <trkpt lat="44.85479" lon="2.99927">
        <ele>870</ele>
        <time>2019-01-08T05:47:59Z</time>
      </trkpt>
      <trkpt lat="44.85563" lon="2.99935">
        <ele>869</ele>
        <time>2019-01-08T05:48:59Z</time>
      </trkpt>
      <trkpt lat="44.85605" lon="2.9991">
        <ele>871</ele>
        <time>2019-01-08T05:49:59Z</time>
      </trkpt>
      <trkpt lat="44.85614" lon="2.99869">
        <ele>877</ele>
        <time>2019-01-08T05:50:59Z</time>
      </trkpt>
      <trkpt lat="44.85618" lon="2.99773">
        <ele>887</ele>
        <time>2019-01-08T05:51:59Z</time>
      </trkpt>
      <trkpt lat="44.85621" lon="2.99688">
        <ele>897</ele>
        <time>2019-01-08T05:52:59Z</time>
      </trkpt>
      <trkpt lat="44.8565" lon="2.99648">
        <ele>896</ele>
        <time>2019-01-08T05:53:59Z</time>
      </trkpt>
      <trkpt lat="44.85666" lon="2.99627">
        <ele>897</ele>
        <time>2019-01-08T05:54:59Z</time>
      </trkpt>
      <trkpt lat="44.85674" lon="2.99592">
        <ele>905</ele>
        <time>2019-01-08T05:55:59Z</time>
      </trkpt>
      <trkpt lat="44.85693" lon="2.99583">
        <ele>907</ele>
        <time>2019-01-08T05:56:59Z</time>
      </trkpt>
      <trkpt lat="44.85729" lon="2.99613">
        <ele>903</ele>
        <time>2019-01-08T05:57:59Z</time>
      </trkpt>
      <trkpt lat="44.85753" lon="2.99622">
        <ele>903</ele>
        <time>2019-01-08T05:58:59Z</time>
      </trkpt>
      <trkpt lat="44.8577" lon="2.99605">
        <ele>904</ele>
        <time>2019-01-08T05:59:59Z</time>
      </trkpt>
      <trkpt lat="44.85754" lon="2.99586">
        <ele>908</ele>
        <time>2019-01-08T06:00:59Z</time>
      </trkpt>
      <trkpt lat="44.85729" lon="2.99568">
        <ele>910</ele>
        <time>2019-01-08T06:01:59Z</time>
      </trkpt>
      <trkpt lat="44.85702" lon="2.99531">
        <ele>912</ele>
        <time>2019-01-08T06:02:59Z</time>
      </trkpt>
      <trkpt lat="44.85677" lon="2.99501">
        <ele>915</ele>
        <time>2019-01-08T06:03:59Z</time>
      </trkpt>
      <trkpt lat="44.85617" lon="2.99437">
        <ele>921</ele>
        <time>2019-01-08T06:04:59Z</time>
      </trkpt>
      <trkpt lat="44.85589" lon="2.9941">
        <ele>923</ele>
        <time>2019-01-08T06:05:59Z</time>
      </trkpt>
      <trkpt lat="44.85564" lon="2.9934">
        <ele>925</ele>
        <time>2019-01-08T06:06:59Z</time>
      </trkpt>
      <trkpt lat="44.85518" lon="2.99234">
        <ele>925</ele>
        <time>2019-01-08T06:07:59Z</time>
      </trkpt>
      <trkpt lat="44.85487" lon="2.99145">
        <ele>928</ele>
        <time>2019-01-08T06:08:59Z</time>
      </trkpt>
      <trkpt lat="44.85483" lon="2.99086">
        <ele>926</ele>
        <time>2019-01-08T06:09:59Z</time>
      </trkpt>
      <trkpt lat="44.85455" lon="2.99021">
        <ele>925</ele>
        <time>2019-01-08T06:10:59Z</time>
      </trkpt>
      <trkpt lat="44.85425" lon="2.99">
        <ele>925</ele>
        <time>2019-01-08T06:11:59Z</time>
      </trkpt>
      <trkpt lat="44.85376" lon="2.99013">
        <ele>932</ele>
        <time>2019-01-08T06:12:59Z</time>
      </trkpt>
      <trkpt lat="44.85339" lon="2.98993">
        <ele>933</ele>
        <time>2019-01-08T06:13:59Z</time>
      </trkpt>
      <trkpt lat="44.85308" lon="2.98947">
        <ele>936</ele>
        <time>2019-01-08T06:14:59Z</time>
      </trkpt>
      <trkpt lat="44.85308" lon="2.98885">
        <ele>931</ele>
        <time>2019-01-08T06:15:59Z</time>
      </trkpt>
      <trkpt lat="44.85303" lon="2.98833">
        <ele>930</ele>
        <time>2019-01-08T06:16:59Z</time>
      </trkpt>
      <trkpt lat="44.85285" lon="2.98779">
        <ele>931</ele>
        <time>2019-01-08T06:17:59Z</time>
      </trkpt>
      <trkpt lat="44.85266" lon="2.98705">
        <ele>930</ele>
        <time>2019-01-08T06:18:59Z</time>
      </trkpt>
      <trkpt lat="44.85245" lon="2.98648">
        <ele>930</ele>
        <time>2019-01-08T06:19:59Z</time>
      </trkpt>
      <trkpt lat="44.85221" lon="2.98607">
        <ele>931</ele>
        <time>2019-01-08T06:20:59Z</time>
      </trkpt>
      <trkpt lat="44.85163" lon="2.9848">
        <ele>930</ele>
        <time>2019-01-08T06:21:59Z</time>
      </trkpt>
      <trkpt lat="44.85064" lon="2.98302">
        <ele>934</ele>
        <time>2019-01-08T06:22:59Z</time>
      </trkpt>
      <trkpt lat="44.85037" lon="2.98238">
        <ele>936</ele>
        <time>2019-01-08T06:23:59Z</time>
      </trkpt>
      <trkpt lat="44.85019" lon="2.98173">
        <ele>939</ele>
        <time>2019-01-08T06:24:59Z</time>
      </trkpt>
      <trkpt lat="44.85012" lon="2.98099">
        <ele>941</ele>
        <time>2019-01-08T06:25:59Z</time>
      </trkpt>
      <trkpt lat="44.85004" lon="2.98063">
        <ele>941</ele>
        <time>2019-01-08T06:26:59Z</time>
      </trkpt>
      <trkpt lat="44.84945" lon="2.97951">
        <ele>943</ele>
        <time>2019-01-08T06:27:59Z</time>
      </trkpt>
      <trkpt lat="44.84892" lon="2.97849">
        <ele>946</ele>
        <time>2019-01-08T06:28:59Z</time>
      </trkpt>
      <trkpt lat="44.84824" lon="2.97736">
        <ele>948</ele>
        <time>2019-01-08T06:29:59Z</time>
      </trkpt>
      <trkpt lat="44.8482" lon="2.97705">
        <ele>949</ele>
        <time>2019-01-08T06:30:59Z</time>
      </trkpt>
      <trkpt lat="44.84849" lon="2.97583">
        <ele>943</ele>
        <time>2019-01-08T06:31:59Z</time>
      </trkpt>
      <trkpt lat="44.84849" lon="2.97558">
        <ele>942</ele>
        <time>2019-01-08T06:32:59Z</time>
      </trkpt>
      <trkpt lat="44.84836" lon="2.97501">
        <ele>942</ele>
        <time>2019-01-08T06:33:59Z</time>
      </trkpt>
      <trkpt lat="44.84841" lon="2.97445">
        <ele>945</ele>
        <time>2019-01-08T06:34:59Z</time>
      </trkpt>
      <trkpt lat="44.84858" lon="2.97389">
        <ele>948</ele>
        <time>2019-01-08T06:35:59Z</time>
      </trkpt>
      <trkpt lat="44.84892" lon="2.97361">
        <ele>945</ele>
        <time>2019-01-08T06:36:59Z</time>
      </trkpt>
      <trkpt lat="44.84934" lon="2.97334">
        <ele>943</ele>
        <time>2019-01-08T06:37:59Z</time>
      </trkpt>
      <trkpt lat="44.84969" lon="2.973">
        <ele>943</ele>
        <time>2019-01-08T06:38:59Z</time>
      </trkpt>
      <trkpt lat="44.84989" lon="2.97261">
        <ele>944</ele>
        <time>2019-01-08T06:39:59Z</time>
      </trkpt>
      <trkpt lat="44.85012" lon="2.97079">
        <ele>944</ele>
        <time>2019-01-08T06:40:59Z</time>
      </trkpt>
      <trkpt lat="44.85026" lon="2.9698">
        <ele>944</ele>
        <time>2019-01-08T06:41:59Z</time>
      </trkpt>
      <trkpt lat="44.85067" lon="2.9687">
        <ele>942</ele>
        <time>2019-01-08T06:42:59Z</time>
      </trkpt>
      <trkpt lat="44.85095" lon="2.96785">
        <ele>941</ele>
        <time>2019-01-08T06:43:59Z</time>
      </trkpt>
      <trkpt lat="44.85093" lon="2.96722">
        <ele>941</ele>
        <time>2019-01-08T06:44:59Z</time>
      </trkpt>
      <trkpt lat="44.85085" lon="2.96666">
        <ele>941</ele>
        <time>2019-01-08T06:45:59Z</time>
      </trkpt>
      <trkpt lat="44.8506" lon="2.96623">
        <ele>939</ele>
        <time>2019-01-08T06:46:59Z</time>
      </trkpt>
      <trkpt lat="44.85013" lon="2.96578">
        <ele>940</ele>
        <time>2019-01-08T06:47:59Z</time>
      </trkpt>
      <trkpt lat="44.84981" lon="2.96533">
        <ele>940</ele>
        <time>2019-01-08T06:48:59Z</time>
      </trkpt>
      <trkpt lat="44.84946" lon="2.96467">
        <ele>940</ele>
        <time>2019-01-08T06:49:59Z</time>
      </trkpt>
      <trkpt lat="44.84938" lon="2.96401">
        <ele>937</ele>
        <time>2019-01-08T06:50:59Z</time>
      </trkpt>
      <trkpt lat="44.84937" lon="2.96278">
        <ele>936</ele>
        <time>2019-01-08T06:51:59Z</time>
      </trkpt>
      <trkpt lat="44.84937" lon="2.96178">
        <ele>939</ele>
        <time>2019-01-08T06:52:59Z</time>
      </trkpt>
      <trkpt lat="44.84956" lon="2.95987">
        <ele>939</ele>
        <time>2019-01-08T06:53:59Z</time>
      </trkpt>
      <trkpt lat="44.84968" lon="2.95891">
        <ele>941</ele>
        <time>2019-01-08T06:54:59Z</time>
      </trkpt>
      <trkpt lat="44.84982" lon="2.95807">
        <ele>942</ele>
        <time>2019-01-08T06:55:59Z</time>
      </trkpt>
      <trkpt lat="44.85007" lon="2.9575">
        <ele>940</ele>
        <time>2019-01-08T06:56:59Z</time>
      </trkpt>
      <trkpt lat="44.85057" lon="2.95661">
        <ele>940</ele>
        <time>2019-01-08T06:57:59Z</time>
      </trkpt>
      <trkpt lat="44.85131" lon="2.95572">
        <ele>936</ele>
        <time>2019-01-08T06:58:59Z</time>
      </trkpt>
      <trkpt lat="44.85202" lon="2.95508">
        <ele>937</ele>
        <time>2019-01-08T06:59:59Z</time>
      </trkpt>
      <trkpt lat="44.85263" lon="2.9548">
        <ele>936</ele>
        <time>2019-01-08T07:00:59Z</time>
      </trkpt>
      <trkpt lat="44.85326" lon="2.95449">
        <ele>935</ele>
        <time>2019-01-08T07:01:59Z</time>
      </trkpt>
      <trkpt lat="44.85396" lon="2.95381">
        <ele>936</ele>
        <time>2019-01-08T07:02:59Z</time>
      </trkpt>
      <trkpt lat="44.85445" lon="2.95312">
        <ele>935</ele>
        <time>2019-01-08T07:03:59Z</time>
      </trkpt>
      <trkpt lat="44.85455" lon="2.95267">
        <ele>932</ele>
        <time>2019-01-08T07:04:59Z</time>
      </trkpt>
      <trkpt lat="44.85466" lon="2.95213">
        <ele>930</ele>
        <time>2019-01-08T07:05:59Z</time>
      </trkpt>
      <trkpt lat="44.85489" lon="2.95182">
        <ele>931</ele>
        <time>2019-01-08T07:06:59Z</time>
      </trkpt>
      <trkpt lat="44.85584" lon="2.95096">
        <ele>930</ele>
        <time>2019-01-08T07:07:59Z</time>
      </trkpt>
      <trkpt lat="44.85619" lon="2.95062">
        <ele>931</ele>
        <time>2019-01-08T07:08:59Z</time>
      </trkpt>
      <trkpt lat="44.85644" lon="2.95011">
        <ele>931</ele>
        <time>2019-01-08T07:09:59Z</time>
      </trkpt>
      <trkpt lat="44.8566" lon="2.94964">
        <ele>931</ele>
        <time>2019-01-08T07:10:59Z</time>
      </trkpt>
      <trkpt lat="44.85674" lon="2.94889">
        <ele>930</ele>
        <time>2019-01-08T07:11:59Z</time>
      </trkpt>
      <trkpt lat="44.85708" lon="2.94844">
        <ele>935</ele>
        <time>2019-01-08T07:12:59Z</time>
      </trkpt>
      <trkpt lat="44.85746" lon="2.94788">
        <ele>937</ele>
        <time>2019-01-08T07:13:59Z</time>
      </trkpt>
      <trkpt lat="44.85803" lon="2.9472">
        <ele>942</ele>
        <time>2019-01-08T07:14:59Z</time>
      </trkpt>
      <trkpt lat="44.85825" lon="2.94681">
        <ele>945</ele>
        <time>2019-01-08T07:15:59Z</time>
      </trkpt>
      <trkpt lat="44.85864" lon="2.94567">
        <ele>946</ele>
        <time>2019-01-08T07:16:59Z</time>
      </trkpt>
      <trkpt lat="44.8591" lon="2.94465">
        <ele>947</ele>
        <time>2019-01-08T07:17:59Z</time>
      </trkpt>
      <trkpt lat="44.85929" lon="2.94404">
        <ele>946</ele>
        <time>2019-01-08T07:18:59Z</time>
      </trkpt>
      <trkpt lat="44.85931" lon="2.94356">
        <ele>946</ele>
        <time>2019-01-08T07:19:59Z</time>
      </trkpt>
      <trkpt lat="44.85922" lon="2.94302">
        <ele>945</ele>
        <time>2019-01-08T07:20:59Z</time>
      </trkpt>
      <trkpt lat="44.85914" lon="2.94259">
        <ele>945</ele>
        <time>2019-01-08T07:21:59Z</time>
      </trkpt>
      <trkpt lat="44.85914" lon="2.94196">
        <ele>946</ele>
        <time>2019-01-08T07:22:59Z</time>
      </trkpt>
      <trkpt lat="44.85873" lon="2.94091">
        <ele>944</ele>
        <time>2019-01-08T07:23:59Z</time>
      </trkpt>
      <trkpt lat="44.85844" lon="2.94032">
        <ele>945</ele>
        <time>2019-01-08T07:24:59Z</time>
      </trkpt>
      <trkpt lat="44.85791" lon="2.93968">
        <ele>948</ele>
        <time>2019-01-08T07:25:59Z</time>
      </trkpt>
      <trkpt lat="44.85766" lon="2.93914">
        <ele>947</ele>
        <time>2019-01-08T07:26:59Z</time>
      </trkpt>
      <trkpt lat="44.85725" lon="2.93776">
        <ele>938</ele>
        <time>2019-01-08T07:27:59Z</time>
      </trkpt>
      <trkpt lat="44.85737" lon="2.93719">
        <ele>939</ele>
        <time>2019-01-08T07:28:59Z</time>
      </trkpt>
      <trkpt lat="44.85734" lon="2.937">
        <ele>939</ele>
        <time>2019-01-08T07:29:59Z</time>
      </trkpt>
      <trkpt lat="44.85695" lon="2.93647">
        <ele>932</ele>
        <time>2019-01-08T07:30:59Z</time>
      </trkpt>
      <trkpt lat="44.85667" lon="2.93617">
        <ele>928</ele>
        <time>2019-01-08T07:31:59Z</time>
      </trkpt>
      <trkpt lat="44.85646" lon="2.93597">
        <ele>922</ele>
        <time>2019-01-08T07:32:59Z</time>
      </trkpt>
      <trkpt lat="44.8561" lon="2.93493">
        <ele>913</ele>
        <time>2019-01-08T07:33:59Z</time>
      </trkpt>
      <trkpt lat="44.85594" lon="2.93457">
        <ele>906</ele>
        <time>2019-01-08T07:34:59Z</time>
      </trkpt>
      <trkpt lat="44.85622" lon="2.93396">
        <ele>916</ele>
        <time>2019-01-08T07:35:59Z</time>
      </trkpt>
      <trkpt lat="44.85619" lon="2.93365">
        <ele>918</ele>
        <time>2019-01-08T07:36:59Z</time>
      </trkpt>
      <trkpt lat="44.85591" lon="2.9335">
        <ele>911</ele>
        <time>2019-01-08T07:37:59Z</time>
      </trkpt>
      <trkpt lat="44.85558" lon="2.93313">
        <ele>905</ele>
        <time>2019-01-08T07:38:59Z</time>
      </trkpt>
      <trkpt lat="44.85513" lon="2.93257">
        <ele>903</ele>
        <time>2019-01-08T07:39:59Z</time>
      </trkpt>
      <trkpt lat="44.85468" lon="2.93236">
        <ele>889</ele>
        <time>2019-01-08T07:40:59Z</time>
      </trkpt>
      <trkpt lat="44.85459" lon="2.93197">
        <ele>892</ele>
        <time>2019-01-08T07:41:59Z</time>
      </trkpt>
      <trkpt lat="44.85436" lon="2.93172">
        <ele>887</ele>
        <time>2019-01-08T07:42:59Z</time>
      </trkpt>
      <trkpt lat="44.8541" lon="2.93152">
        <ele>878</ele>
        <time>2019-01-08T07:43:59Z</time>
      </trkpt>
      <trkpt lat="44.85393" lon="2.92935">
        <ele>873</ele>
        <time>2019-01-08T07:44:59Z</time>
      </trkpt>
      <trkpt lat="44.85406" lon="2.92884">
        <ele>870</ele>
        <time>2019-01-08T07:45:59Z</time>
      </trkpt>
      <trkpt lat="44.85425" lon="2.92832">
        <ele>865</ele>
        <time>2019-01-08T07:46:59Z</time>
      </trkpt>
      <trkpt lat="44.85466" lon="2.92784">
        <ele>861</ele>
        <time>2019-01-08T07:47:59Z</time>
      </trkpt>
      <trkpt lat="44.85549" lon="2.92759">
        <ele>856</ele>
        <time>2019-01-08T07:48:59Z</time>
      </trkpt>
      <trkpt lat="44.85588" lon="2.92787">
        <ele>859</ele>
        <time>2019-01-08T07:49:59Z</time>
      </trkpt>
      <trkpt lat="44.85635" lon="2.9284">
        <ele>862</ele>
        <time>2019-01-08T07:50:59Z</time>
      </trkpt>
      <trkpt lat="44.85681" lon="2.92839">
        <ele>851</ele>
        <time>2019-01-08T07:51:59Z</time>
      </trkpt>
      <trkpt lat="44.85712" lon="2.92864">
        <ele>854</ele>
        <time>2019-01-08T07:52:59Z</time>
      </trkpt>
      <trkpt lat="44.85775" lon="2.92935">
        <ele>874</ele>
        <time>2019-01-08T07:53:59Z</time>
      </trkpt>
      <trkpt lat="44.85793" lon="2.92924">
        <ele>875</ele>
        <time>2019-01-08T07:54:59Z</time>
      </trkpt>
      <trkpt lat="44.85796" lon="2.92829">
        <ele>853</ele>
        <time>2019-01-08T07:55:59Z</time>
      </trkpt>
      <trkpt lat="44.85784" lon="2.9278">
        <ele>838</ele>
        <time>2019-01-08T07:56:59Z</time>
      </trkpt>
      <trkpt lat="44.85796" lon="2.92749">
        <ele>836</ele>
        <time>2019-01-08T07:57:59Z</time>
      </trkpt>
      <trkpt lat="44.85841" lon="2.92718">
        <ele>854</ele>
        <time>2019-01-08T07:58:59Z</time>
      </trkpt>
      <trkpt lat="44.85843" lon="2.92697">
        <ele>855</ele>
        <time>2019-01-08T07:59:59Z</time>
      </trkpt>
      <trkpt lat="44.85834" lon="2.92681">
        <ele>853</ele>
        <time>2019-01-08T08:00:59Z</time>
      </trkpt>
      <trkpt lat="44.85795" lon="2.92676">
        <ele>839</ele>
        <time>2019-01-08T08:01:59Z</time>
      </trkpt>
      <trkpt lat="44.85762" lon="2.9267">
        <ele>827</ele>
        <time>2019-01-08T08:02:59Z</time>
      </trkpt>
      <trkpt lat="44.85735" lon="2.92607">
        <ele>824</ele>
        <time>2019-01-08T08:03:59Z</time>
      </trkpt>
      <trkpt lat="44.85724" lon="2.92555">
        <ele>823</ele>
        <time>2019-01-08T08:04:59Z</time>
      </trkpt>
      <trkpt lat="44.85703" lon="2.92499">
        <ele>817</ele>
        <time>2019-01-08T08:05:59Z</time>
      </trkpt>
      <trkpt lat="44.85695" lon="2.92459">
        <ele>814</ele>
        <time>2019-01-08T08:06:59Z</time>
      </trkpt>
      <trkpt lat="44.85707" lon="2.92402">
        <ele>825</ele>
        <time>2019-01-08T08:07:59Z</time>
      </trkpt>
      <trkpt lat="44.85712" lon="2.92375">
        <ele>832</ele>
        <time>2019-01-08T08:08:59Z</time>
      </trkpt>
      <trkpt lat="44.85677" lon="2.9236">
        <ele>820</ele>
        <time>2019-01-08T08:09:59Z</time>
      </trkpt>
      <trkpt lat="44.85628" lon="2.92354">
        <ele>800</ele>
        <time>2019-01-08T08:10:59Z</time>
      </trkpt>
      <trkpt lat="44.85601" lon="2.92307">
        <ele>799</ele>
        <time>2019-01-08T08:11:59Z</time>
      </trkpt>
      <trkpt lat="44.85573" lon="2.9228">
        <ele>791</ele>
        <time>2019-01-08T08:12:59Z</time>
      </trkpt>
      <trkpt lat="44.85566" lon="2.92254">
        <ele>792</ele>
        <time>2019-01-08T08:13:59Z</time>
      </trkpt>
      <trkpt lat="44.8559" lon="2.92195">
        <ele>795</ele>
        <time>2019-01-08T08:14:59Z</time>
      </trkpt>
      <trkpt lat="44.85617" lon="2.92086">
        <ele>795</ele>
        <time>2019-01-08T08:15:59Z</time>
      </trkpt>
      <trkpt lat="44.85621" lon="2.92029">
        <ele>794</ele>
        <time>2019-01-08T08:16:59Z</time>
      </trkpt>
      <trkpt lat="44.85613" lon="2.91987">
        <ele>788</ele>
        <time>2019-01-08T08:17:59Z</time>
      </trkpt>
      <trkpt lat="44.85615" lon="2.91954">
        <ele>789</ele>
        <time>2019-01-08T08:18:59Z</time>
      </trkpt>
      <trkpt lat="44.85592" lon="2.91902">
        <ele>773</ele>
        <time>2019-01-08T08:19:59Z</time>
      </trkpt>
      <trkpt lat="44.85597" lon="2.91819">
        <ele>775</ele>
        <time>2019-01-08T08:20:59Z</time>
      </trkpt>
      <trkpt lat="44.85592" lon="2.91781">
        <ele>770</ele>
        <time>2019-01-08T08:21:59Z</time>
      </trkpt>
      <trkpt lat="44.85578" lon="2.91694">
        <ele>760</ele>
        <time>2019-01-08T08:22:59Z</time>
      </trkpt>
      <trkpt lat="44.85573" lon="2.91633">
        <ele>754</ele>
        <time>2019-01-08T08:23:59Z</time>
      </trkpt>
      <trkpt lat="44.85587" lon="2.91577">
        <ele>758</ele>
        <time>2019-01-08T08:24:59Z</time>
      </trkpt>
      <trkpt lat="44.85583" lon="2.91499">
        <ele>746</ele>
        <time>2019-01-08T08:25:59Z</time>
      </trkpt>
      <trkpt lat="44.85594" lon="2.91459">
        <ele>742</ele>
        <time>2019-01-08T08:26:59Z</time>
      </trkpt>
      <trkpt lat="44.85598" lon="2.91403">
        <ele>733</ele>
        <time>2019-01-08T08:27:59Z</time>
      </trkpt>
      <trkpt lat="44.85619" lon="2.914">
        <ele>739</ele>
        <time>2019-01-08T08:28:59Z</time>
      </trkpt>
      <trkpt lat="44.85645" lon="2.91419">
        <ele>749</ele>
        <time>2019-01-08T08:29:59Z</time>
      </trkpt>
      <trkpt lat="44.85688" lon="2.91251">
        <ele>737</ele>
        <time>2019-01-08T08:30:59Z</time>
      </trkpt>
      <trkpt lat="44.85699" lon="2.91199">
        <ele>725</ele>
        <time>2019-01-08T08:31:59Z</time>
      </trkpt>
      <trkpt lat="44.85873" lon="2.91079">
        <ele>708</ele>
        <time>2019-01-08T08:32:59Z</time>
      </trkpt>
      <trkpt lat="44.85917" lon="2.91122">
        <ele>719</ele>
        <time>2019-01-08T08:33:59Z</time>
      </trkpt>
      <trkpt lat="44.85995" lon="2.91222">
        <ele>728</ele>
        <time>2019-01-08T08:34:59Z</time>
      </trkpt>
      <trkpt lat="44.86017" lon="2.91221">
        <ele>732</ele>
        <time>2019-01-08T08:35:59Z</time>
      </trkpt>
      <trkpt lat="44.86022" lon="2.91205">
        <ele>732</ele>
        <time>2019-01-08T08:36:59Z</time>
      </trkpt>
      <trkpt lat="44.86014" lon="2.91167">
        <ele>722</ele>
        <time>2019-01-08T08:37:59Z</time>
      </trkpt>
      <trkpt lat="44.85983" lon="2.91058">
        <ele>709</ele>
        <time>2019-01-08T08:38:59Z</time>
      </trkpt>
      <trkpt lat="44.85977" lon="2.9099">
        <ele>699</ele>
        <time>2019-01-08T08:39:59Z</time>
      </trkpt>
      <trkpt lat="44.8596" lon="2.90922">
        <ele>684</ele>
        <time>2019-01-08T08:40:59Z</time>
      </trkpt>
      <trkpt lat="44.85963" lon="2.90903">
        <ele>682</ele>
        <time>2019-01-08T08:41:59Z</time>
      </trkpt>
      <trkpt lat="44.85986" lon="2.90886">
        <ele>689</ele>
        <time>2019-01-08T08:42:59Z</time>
      </trkpt>
      <trkpt lat="44.85987" lon="2.9085">
        <ele>684</ele>
        <time>2019-01-08T08:43:59Z</time>
      </trkpt>
      <trkpt lat="44.8599" lon="2.90808">
        <ele>679</ele>
        <time>2019-01-08T08:44:59Z</time>
      </trkpt>
      <trkpt lat="44.86034" lon="2.90764">
        <ele>687</ele>
        <time>2019-01-08T08:45:59Z</time>
      </trkpt>
      <trkpt lat="44.86034" lon="2.90745">
        <ele>685</ele>
        <time>2019-01-08T08:46:59Z</time>
      </trkpt>
      <trkpt lat="44.86024" lon="2.90727">
        <ele>681</ele>
        <time>2019-01-08T08:47:59Z</time>
      </trkpt>
      <trkpt lat="44.86008" lon="2.9072">
        <ele>675</ele>
        <time>2019-01-08T08:48:59Z</time>
      </trkpt>
      <trkpt lat="44.85999" lon="2.90701">
        <ele>671</ele>
        <time>2019-01-08T08:49:59Z</time>
      </trkpt>
      <trkpt lat="44.86014" lon="2.90628">
        <ele>672</ele>
        <time>2019-01-08T08:50:59Z</time>
      </trkpt>
      <trkpt lat="44.86029" lon="2.90582">
        <ele>672</ele>
        <time>2019-01-08T08:51:59Z</time>
      </trkpt>
      <trkpt lat="44.86056" lon="2.90546">
        <ele>677</ele>
        <time>2019-01-08T08:52:59Z</time>
      </trkpt>
      <trkpt lat="44.86062" lon="2.90518">
        <ele>675</ele>
        <time>2019-01-08T08:53:59Z</time>
      </trkpt>
      <trkpt lat="44.86046" lon="2.90495">
        <ele>667</ele>
        <time>2019-01-08T08:54:59Z</time>
      </trkpt>
      <trkpt lat="44.8603" lon="2.90515">
        <ele>664</ele>
        <time>2019-01-08T08:55:59Z</time>
      </trkpt>
      <trkpt lat="44.85997" lon="2.90629">
        <ele>666</ele>
        <time>2019-01-08T08:56:59Z</time>
      </trkpt>
      <trkpt lat="44.85963" lon="2.90697">
        <ele>661</ele>
        <time>2019-01-08T08:57:59Z</time>
      </trkpt>
      <trkpt lat="44.85959" lon="2.9073">
        <ele>661</ele>
        <time>2019-01-08T08:58:59Z</time>
      </trkpt>
      <trkpt lat="44.85919" lon="2.90841">
        <ele>657</ele>
        <time>2019-01-08T08:59:59Z</time>
      </trkpt>
      <trkpt lat="44.8589" lon="2.90905">
        <ele>661</ele>
        <time>2019-01-08T09:00:59Z</time>
      </trkpt>
      <trkpt lat="44.85812" lon="2.90982">
        <ele>669</ele>
        <time>2019-01-08T09:01:59Z</time>
      </trkpt>
      <trkpt lat="44.85803" lon="2.9097">
        <ele>666</ele>
        <time>2019-01-08T09:02:59Z</time>
      </trkpt>
      <trkpt lat="44.85796" lon="2.90953">
        <ele>663</ele>
        <time>2019-01-08T09:03:59Z</time>
      </trkpt>
      <trkpt lat="44.85777" lon="2.90912">
        <ele>660</ele>
        <time>2019-01-08T09:04:59Z</time>
      </trkpt>
      <trkpt lat="44.85776" lon="2.90895">
        <ele>666</ele>
        <time>2019-01-08T09:05:59Z</time>
      </trkpt>
      <trkpt lat="44.85786" lon="2.90877">
        <ele>668</ele>
        <time>2019-01-08T09:06:59Z</time>
      </trkpt>
      <trkpt lat="44.85806" lon="2.90867">
        <ele>665</ele>
        <time>2019-01-08T09:07:59Z</time>
      </trkpt>
      <trkpt lat="44.85823" lon="2.90847">
        <ele>661</ele>
        <time>2019-01-08T09:08:59Z</time>
      </trkpt>
      <trkpt lat="44.8583" lon="2.90823">
        <ele>661</ele>
        <time>2019-01-08T09:09:59Z</time>
      </trkpt>
      <trkpt lat="44.85837" lon="2.90777">
        <ele>663</ele>
        <time>2019-01-08T09:10:59Z</time>
      </trkpt>
      <trkpt lat="44.8584" lon="2.90719">
        <ele>666</ele>
        <time>2019-01-08T09:11:59Z</time>
      </trkpt>
      <trkpt lat="44.85837" lon="2.90691">
        <ele>667</ele>
        <time>2019-01-08T09:12:59Z</time>
      </trkpt>
      <trkpt lat="44.85831" lon="2.90653">
        <ele>669</ele>
        <time>2019-01-08T09:13:59Z</time>
      </trkpt>
      <trkpt lat="44.85833" lon="2.90619">
        <ele>665</ele>
        <time>2019-01-08T09:14:59Z</time>
      </trkpt>
      <trkpt lat="44.85827" lon="2.9059">
        <ele>666</ele>
        <time>2019-01-08T09:15:59Z</time>
      </trkpt>
      <trkpt lat="44.85816" lon="2.90549">
        <ele>668</ele>
        <time>2019-01-08T09:16:59Z</time>
      </trkpt>
      <trkpt lat="44.85814" lon="2.90517">
        <ele>667</ele>
        <time>2019-01-08T09:17:59Z</time>
      </trkpt>
      <trkpt lat="44.85817" lon="2.90482">
        <ele>665</ele>
        <time>2019-01-08T09:18:59Z</time>
      </trkpt>
      <trkpt lat="44.85817" lon="2.90414">
        <ele>667</ele>
        <time>2019-01-08T09:19:59Z</time>
      </trkpt>
      <trkpt lat="44.85839" lon="2.90352">
        <ele>668</ele>
        <time>2019-01-08T09:20:59Z</time>
      </trkpt>
      <trkpt lat="44.85843" lon="2.90308">
        <ele>673</ele>
        <time>2019-01-08T09:21:59Z</time>
      </trkpt>
      <trkpt lat="44.85847" lon="2.90255">
        <ele>677</ele>
        <time>2019-01-08T09:22:59Z</time>
      </trkpt>
      <trkpt lat="44.85866" lon="2.90153">
        <ele>681</ele>
        <time>2019-01-08T09:23:59Z</time>
      </trkpt>
      <trkpt lat="44.8588" lon="2.90094">
        <ele>679</ele>
        <time>2019-01-08T09:24:59Z</time>
      </trkpt>
      <trkpt lat="44.85883" lon="2.90029">
        <ele>683</ele>
        <time>2019-01-08T09:25:59Z</time>
      </trkpt>
      <trkpt lat="44.85902" lon="2.89981">
        <ele>678</ele>
        <time>2019-01-08T09:26:59Z</time>
      </trkpt>
      <trkpt lat="44.85928" lon="2.89933">
        <ele>674</ele>
        <time>2019-01-08T09:27:59Z</time>
      </trkpt>
      <trkpt lat="44.85932" lon="2.89908">
        <ele>674</ele>
        <time>2019-01-08T09:28:59Z</time>
      </trkpt>
      <trkpt lat="44.85926" lon="2.89888">
        <ele>672</ele>
        <time>2019-01-08T09:29:59Z</time>
      </trkpt>
      <trkpt lat="44.8591" lon="2.89868">
        <ele>671</ele>
        <time>2019-01-08T09:30:59Z</time>
      </trkpt>
      <trkpt lat="44.85842" lon="2.89873">
        <ele>678</ele>
        <time>2019-01-08T09:31:59Z</time>
      </trkpt>
      <trkpt lat="44.85798" lon="2.89866">
        <ele>680</ele>
        <time>2019-01-08T09:32:59Z</time>
      </trkpt>
      <trkpt lat="44.85773" lon="2.89856">
        <ele>680</ele>
        <time>2019-01-08T09:33:59Z</time>
      </trkpt>
      <trkpt lat="44.85763" lon="2.89833">
        <ele>675</ele>
        <time>2019-01-08T09:34:59Z</time>
      </trkpt>
      <trkpt lat="44.85766" lon="2.89808">
        <ele>680</ele>
        <time>2019-01-08T09:35:59Z</time>
      </trkpt>
      <trkpt lat="44.8578" lon="2.89787">
        <ele>682</ele>
        <time>2019-01-08T09:36:59Z</time>
      </trkpt>
      <trkpt lat="44.85807" lon="2.89777">
        <ele>678</ele>
        <time>2019-01-08T09:37:59Z</time>
      </trkpt>
      <trkpt lat="44.85831" lon="2.89767">
        <ele>675</ele>
        <time>2019-01-08T09:38:59Z</time>
      </trkpt>
      <trkpt lat="44.8585" lon="2.89753">
        <ele>672</ele>
        <time>2019-01-08T09:39:59Z</time>
      </trkpt>
      <trkpt lat="44.85886" lon="2.89727">
        <ele>669</ele>
        <time>2019-01-08T09:40:59Z</time>
      </trkpt>
      <trkpt lat="44.85923" lon="2.89703">
        <ele>663</ele>
        <time>2019-01-08T09:41:59Z</time>
      </trkpt>
      <trkpt lat="44.85969" lon="2.89667">
        <ele>662</ele>
        <time>2019-01-08T09:42:59Z</time>
      </trkpt>
      <trkpt lat="44.86012" lon="2.89635">
        <ele>661</ele>
        <time>2019-01-08T09:43:59Z</time>
      </trkpt>
      <trkpt lat="44.86033" lon="2.89612">
        <ele>660</ele>
        <time>2019-01-08T09:44:59Z</time>
      </trkpt>
      <trkpt lat="44.86037" lon="2.89596">
        <ele>659</ele>
        <time>2019-01-08T09:45:59Z</time>
      </trkpt>
      <trkpt lat="44.86035" lon="2.89567">
        <ele>659</ele>
        <time>2019-01-08T09:46:59Z</time>
      </trkpt>
      <trkpt lat="44.86038" lon="2.89543">
        <ele>658</ele>
        <time>2019-01-08T09:47:59Z</time>
      </trkpt>
      <trkpt lat="44.86053" lon="2.8953">
        <ele>656</ele>
        <time>2019-01-08T09:48:59Z</time>
      </trkpt>
      <trkpt lat="44.86074" lon="2.89518">
        <ele>653</ele>
        <time>2019-01-08T09:49:59Z</time>
      </trkpt>
      <trkpt lat="44.86082" lon="2.89503">
        <ele>652</ele>
        <time>2019-01-08T09:50:59Z</time>
      </trkpt>
      <trkpt lat="44.86091" lon="2.89477">
        <ele>658</ele>
        <time>2019-01-08T09:51:59Z</time>
      </trkpt>
      <trkpt lat="44.86101" lon="2.89469">
        <ele>659</ele>
        <time>2019-01-08T09:52:59Z</time>
      </trkpt>
      <trkpt lat="44.86132" lon="2.89455">
        <ele>663</ele>
        <time>2019-01-08T09:53:59Z</time>
      </trkpt>
      <trkpt lat="44.86153" lon="2.8944">
        <ele>667</ele>
        <time>2019-01-08T09:54:59Z</time>
      </trkpt>
      <trkpt lat="44.86175" lon="2.89433">
        <ele>669</ele>
        <time>2019-01-08T09:55:59Z</time>
      </trkpt>
      <trkpt lat="44.86227" lon="2.89442">
        <ele>666</ele>
        <time>2019-01-08T09:56:59Z</time>
      </trkpt>
      <trkpt lat="44.86252" lon="2.89477">
        <ele>659</ele>
        <time>2019-01-08T09:57:59Z</time>
      </trkpt>
      <trkpt lat="44.86284" lon="2.89525">
        <ele>653</ele>
        <time>2019-01-08T09:58:59Z</time>
      </trkpt>
      <trkpt lat="44.86307" lon="2.89535">
        <ele>652</ele>
        <time>2019-01-08T09:59:59Z</time>
      </trkpt>
      <trkpt lat="44.86329" lon="2.89516">
        <ele>653</ele>
        <time>2019-01-08T10:00:59Z</time>
      </trkpt>
      <trkpt lat="44.86344" lon="2.89485">
        <ele>654</ele>
        <time>2019-01-08T10:01:59Z</time>
      </trkpt>
      <trkpt lat="44.86369" lon="2.89434">
        <ele>654</ele>
        <time>2019-01-08T10:02:59Z</time>
      </trkpt>
      <trkpt lat="44.86374" lon="2.89369">
        <ele>656</ele>
        <time>2019-01-08T10:03:59Z</time>
      </trkpt>
      <trkpt lat="44.86386" lon="2.89302">
        <ele>659</ele>
        <time>2019-01-08T10:04:59Z</time>
      </trkpt>
      <trkpt lat="44.86402" lon="2.89263">
        <ele>659</ele>
        <time>2019-01-08T10:05:59Z</time>
      </trkpt>
      <trkpt lat="44.86421" lon="2.8923">
        <ele>659</ele>
        <time>2019-01-08T10:06:59Z</time>
      </trkpt>
      <trkpt lat="44.86451" lon="2.89173">
        <ele>660</ele>
        <time>2019-01-08T10:07:59Z</time>
      </trkpt>
      <trkpt lat="44.86471" lon="2.89132">
        <ele>661</ele>
        <time>2019-01-08T10:08:59Z</time>
      </trkpt>
      <trkpt lat="44.86501" lon="2.8908">
        <ele>660</ele>
        <time>2019-01-08T10:09:59Z</time>
      </trkpt>
      <trkpt lat="44.86524" lon="2.89037">
        <ele>662</ele>
        <time>2019-01-08T10:10:59Z</time>
      </trkpt>
      <trkpt lat="44.86535" lon="2.89008">
        <ele>663</ele>
        <time>2019-01-08T10:11:59Z</time>
      </trkpt>
      <trkpt lat="44.8654" lon="2.8894">
        <ele>672</ele>
        <time>2019-01-08T10:12:59Z</time>
      </trkpt>
      <trkpt lat="44.86551" lon="2.88909">
        <ele>676</ele>
        <time>2019-01-08T10:13:59Z</time>
      </trkpt>
      <trkpt lat="44.86578" lon="2.88901">
        <ele>675</ele>
        <time>2019-01-08T10:14:59Z</time>
      </trkpt>
      <trkpt lat="44.8661" lon="2.88914">
        <ele>673</ele>
        <time>2019-01-08T10:15:59Z</time>
      </trkpt>
      <trkpt lat="44.86637" lon="2.88918">
        <ele>673</ele>
        <time>2019-01-08T10:16:59Z</time>
      </trkpt>
      <trkpt lat="44.86674" lon="2.88905">
        <ele>676</ele>
        <time>2019-01-08T10:17:59Z</time>
      </trkpt>
      <trkpt lat="44.86709" lon="2.88885">
        <ele>677</ele>
        <time>2019-01-08T10:18:59Z</time>
      </trkpt>
      <trkpt lat="44.86757" lon="2.88849">
        <ele>677</ele>
        <time>2019-01-08T10:19:59Z</time>
      </trkpt>
      <trkpt lat="44.8677" lon="2.88823">
        <ele>677</ele>
        <time>2019-01-08T10:20:59Z</time>
      </trkpt>
      <trkpt lat="44.86742" lon="2.8877">
        <ele>681</ele>
        <time>2019-01-08T10:21:59Z</time>
      </trkpt>
      <trkpt lat="44.8671" lon="2.88729">
        <ele>685</ele>
        <time>2019-01-08T10:22:59Z</time>
      </trkpt>
      <trkpt lat="44.86661" lon="2.88691">
        <ele>692</ele>
        <time>2019-01-08T10:23:59Z</time>
      </trkpt>
      <trkpt lat="44.86634" lon="2.88623">
        <ele>690</ele>
        <time>2019-01-08T10:24:59Z</time>
      </trkpt>
      <trkpt lat="44.86575" lon="2.88559">
        <ele>695</ele>
        <time>2019-01-08T10:25:59Z</time>
      </trkpt>
      <trkpt lat="44.86512" lon="2.88513">
        <ele>704</ele>
        <time>2019-01-08T10:26:59Z</time>
      </trkpt>
      <trkpt lat="44.86489" lon="2.88479">
        <ele>711</ele>
        <time>2019-01-08T10:27:59Z</time>
      </trkpt>
      <trkpt lat="44.86514" lon="2.88444">
        <ele>705</ele>
        <time>2019-01-08T10:28:59Z</time>
      </trkpt>
      <trkpt lat="44.86553" lon="2.88424">
        <ele>695</ele>
        <time>2019-01-08T10:29:59Z</time>
      </trkpt>
      <trkpt lat="44.86562" lon="2.88375">
        <ele>699</ele>
        <time>2019-01-08T10:30:59Z</time>
      </trkpt>
      <trkpt lat="44.86594" lon="2.88354">
        <ele>690</ele>
        <time>2019-01-08T10:31:59Z</time>
      </trkpt>
      <trkpt lat="44.86613" lon="2.88236">
        <ele>691</ele>
        <time>2019-01-08T10:32:59Z</time>
      </trkpt>
      <trkpt lat="44.86622" lon="2.88181">
        <ele>689</ele>
        <time>2019-01-08T10:33:59Z</time>
      </trkpt>
      <trkpt lat="44.86622" lon="2.88162">
        <ele>691</ele>
        <time>2019-01-08T10:34:59Z</time>
      </trkpt>
      <trkpt lat="44.86613" lon="2.88143">
        <ele>698</ele>
        <time>2019-01-08T10:35:59Z</time>
      </trkpt>
      <trkpt lat="44.866" lon="2.88129">
        <ele>704</ele>
        <time>2019-01-08T10:36:59Z</time>
      </trkpt>
      <trkpt lat="44.86599" lon="2.88109">
        <ele>706</ele>
        <time>2019-01-08T10:37:59Z</time>
      </trkpt>
      <trkpt lat="44.86615" lon="2.88094">
        <ele>703</ele>
        <time>2019-01-08T10:38:59Z</time>
      </trkpt>
      <trkpt lat="44.86655" lon="2.881">
        <ele>692</ele>
        <time>2019-01-08T10:39:59Z</time>
      </trkpt>
      <trkpt lat="44.86677" lon="2.88108">
        <ele>683</ele>
        <time>2019-01-08T10:40:59Z</time>
      </trkpt>
      <trkpt lat="44.86696" lon="2.8811">
        <ele>676</ele>
        <time>2019-01-08T10:41:59Z</time>
      </trkpt>
      <trkpt lat="44.86723" lon="2.88076">
        <ele>677</ele>
        <time>2019-01-08T10:42:59Z</time>
      </trkpt>
      <trkpt lat="44.86733" lon="2.88054">
        <ele>679</ele>
        <time>2019-01-08T10:43:59Z</time>
      </trkpt>
      <trkpt lat="44.8674" lon="2.88013">
        <ele>687</ele>
        <time>2019-01-08T10:44:59Z</time>
      </trkpt>
      <trkpt lat="44.86756" lon="2.88">
        <ele>683</ele>
        <time>2019-01-08T10:45:59Z</time>
      </trkpt>
      <trkpt lat="44.86777" lon="2.88008">
        <ele>673</ele>
        <time>2019-01-08T10:46:59Z</time>
      </trkpt>
      <trkpt lat="44.86793" lon="2.88004">
        <ele>667</ele>
        <time>2019-01-08T10:47:59Z</time>
      </trkpt>
      <trkpt lat="44.86799" lon="2.87989">
        <ele>667</ele>
        <time>2019-01-08T10:48:59Z</time>
      </trkpt>
      <trkpt lat="44.86797" lon="2.87971">
        <ele>671</ele>
        <time>2019-01-08T10:49:59Z</time>
      </trkpt>
      <trkpt lat="44.86792" lon="2.87955">
        <ele>676</ele>
        <time>2019-01-08T10:50:59Z</time>
      </trkpt>
      <trkpt lat="44.86786" lon="2.8794">
        <ele>681</ele>
        <time>2019-01-08T10:51:59Z</time>
      </trkpt>
      <trkpt lat="44.86785" lon="2.87924">
        <ele>684</ele>
        <time>2019-01-08T10:52:59Z</time>
      </trkpt>
      <trkpt lat="44.86802" lon="2.87901">
        <ele>682</ele>
        <time>2019-01-08T10:53:59Z</time>
      </trkpt>
      <trkpt lat="44.86838" lon="2.87874">
        <ele>674</ele>
        <time>2019-01-08T10:54:59Z</time>
      </trkpt>
      <trkpt lat="44.86848" lon="2.87846">
        <ele>677</ele>
        <time>2019-01-08T10:55:59Z</time>
      </trkpt>
      <trkpt lat="44.86877" lon="2.87767">
        <ele>674</ele>
        <time>2019-01-08T10:56:59Z</time>
      </trkpt>
      <trkpt lat="44.86882" lon="2.87746">
        <ele>674</ele>
        <time>2019-01-08T10:57:59Z</time>
      </trkpt>
      <trkpt lat="44.86875" lon="2.87705">
        <ele>685</ele>
        <time>2019-01-08T10:58:59Z</time>
      </trkpt>
      <trkpt lat="44.86878" lon="2.87673">
        <ele>688</ele>
        <time>2019-01-08T10:59:59Z</time>
      </trkpt>
      <trkpt lat="44.86894" lon="2.87619">
        <ele>687</ele>
        <time>2019-01-08T11:00:59Z</time>
      </trkpt>
      <trkpt lat="44.86909" lon="2.87579">
        <ele>685</ele>
        <time>2019-01-08T11:01:59Z</time>
      </trkpt>
      <trkpt lat="44.86925" lon="2.87555">
        <ele>681</ele>
        <time>2019-01-08T11:02:59Z</time>
      </trkpt>
      <trkpt lat="44.86934" lon="2.87514">
        <ele>685</ele>
        <time>2019-01-08T11:03:59Z</time>
      </trkpt>
      <trkpt lat="44.86944" lon="2.87496">
        <ele>684</ele>
        <time>2019-01-08T11:04:59Z</time>
      </trkpt>
      <trkpt lat="44.86954" lon="2.87463">
        <ele>689</ele>
        <time>2019-01-08T11:05:59Z</time>
      </trkpt>
      <trkpt lat="44.8697" lon="2.87439">
        <ele>688</ele>
        <time>2019-01-08T11:06:59Z</time>
      </trkpt>
      <trkpt lat="44.86986" lon="2.87431">
        <ele>682</ele>
        <time>2019-01-08T11:07:59Z</time>
      </trkpt>
      <trkpt lat="44.87001" lon="2.87415">
        <ele>678</ele>
        <time>2019-01-08T11:08:59Z</time>
      </trkpt>
      <trkpt lat="44.87008" lon="2.87377">
        <ele>686</ele>
        <time>2019-01-08T11:09:59Z</time>
      </trkpt>
      <trkpt lat="44.87029" lon="2.87357">
        <ele>681</ele>
        <time>2019-01-08T11:10:59Z</time>
      </trkpt>
      <trkpt lat="44.87046" lon="2.87336">
        <ele>677</ele>
        <time>2019-01-08T11:11:59Z</time>
      </trkpt>
      <trkpt lat="44.87053" lon="2.873">
        <ele>678</ele>
        <time>2019-01-08T11:12:59Z</time>
      </trkpt>
      <trkpt lat="44.87058" lon="2.87247">
        <ele>682</ele>
        <time>2019-01-08T11:13:59Z</time>
      </trkpt>
      <trkpt lat="44.87067" lon="2.87194">
        <ele>681</ele>
        <time>2019-01-08T11:14:59Z</time>
      </trkpt>
      <trkpt lat="44.87071" lon="2.87174">
        <ele>681</ele>
        <time>2019-01-08T11:15:59Z</time>
      </trkpt>
      <trkpt lat="44.87064" lon="2.87151">
        <ele>685</ele>
        <time>2019-01-08T11:16:59Z</time>
      </trkpt>
      <trkpt lat="44.87048" lon="2.8712">
        <ele>693</ele>
        <time>2019-01-08T11:17:59Z</time>
      </trkpt>
      <trkpt lat="44.87053" lon="2.87098">
        <ele>691</ele>
        <time>2019-01-08T11:18:59Z</time>
      </trkpt>
      <trkpt lat="44.87068" lon="2.87077">
        <ele>687</ele>
        <time>2019-01-08T11:19:59Z</time>
      </trkpt>
      <trkpt lat="44.87104" lon="2.87076">
        <ele>675</ele>
        <time>2019-01-08T11:20:59Z</time>
      </trkpt>
      <trkpt lat="44.87127" lon="2.87056">
        <ele>670</ele>
        <time>2019-01-08T11:21:59Z</time>
      </trkpt>
      <trkpt lat="44.87134" lon="2.87029">
        <ele>670</ele>
        <time>2019-01-08T11:22:59Z</time>
      </trkpt>
      <trkpt lat="44.87142" lon="2.86965">
        <ele>671</ele>
        <time>2019-01-08T11:23:59Z</time>
      </trkpt>
      <trkpt lat="44.87151" lon="2.86889">
        <ele>669</ele>
        <time>2019-01-08T11:24:59Z</time>
      </trkpt>
      <trkpt lat="44.87158" lon="2.86806">
        <ele>669</ele>
        <time>2019-01-08T11:25:59Z</time>
      </trkpt>
      <trkpt lat="44.87174" lon="2.86739">
        <ele>666</ele>
        <time>2019-01-08T11:26:59Z</time>
      </trkpt>
      <trkpt lat="44.87184" lon="2.86697">
        <ele>668</ele>
        <time>2019-01-08T11:27:59Z</time>
      </trkpt>
      <trkpt lat="44.87201" lon="2.86698">
        <ele>662</ele>
        <time>2019-01-08T11:28:59Z</time>
      </trkpt>
      <trkpt lat="44.87229" lon="2.86711">
        <ele>651</ele>
        <time>2019-01-08T11:29:59Z</time>
      </trkpt>
      <trkpt lat="44.8734" lon="2.86757">
        <ele>645</ele>
        <time>2019-01-08T11:30:59Z</time>
      </trkpt>
      <trkpt lat="44.87355" lon="2.86741">
        <ele>649</ele>
        <time>2019-01-08T11:31:59Z</time>
      </trkpt>
      <trkpt lat="44.87367" lon="2.86703">
        <ele>651</ele>
        <time>2019-01-08T11:32:59Z</time>
      </trkpt>
      <trkpt lat="44.87391" lon="2.86673">
        <ele>653</ele>
        <time>2019-01-08T11:33:59Z</time>
      </trkpt>
      <trkpt lat="44.87426" lon="2.86645">
        <ele>653</ele>
        <time>2019-01-08T11:34:59Z</time>
      </trkpt>
      <trkpt lat="44.87459" lon="2.86634">
        <ele>654</ele>
        <time>2019-01-08T11:35:59Z</time>
      </trkpt>
      <trkpt lat="44.8751" lon="2.86644">
        <ele>660</ele>
        <time>2019-01-08T11:36:59Z</time>
      </trkpt>
      <trkpt lat="44.87553" lon="2.8664">
        <ele>664</ele>
        <time>2019-01-08T11:37:59Z</time>
      </trkpt>
      <trkpt lat="44.87591" lon="2.86652">
        <ele>670</ele>
        <time>2019-01-08T11:38:59Z</time>
      </trkpt>
      <trkpt lat="44.87607" lon="2.86638">
        <ele>671</ele>
        <time>2019-01-08T11:39:59Z</time>
      </trkpt>
      <trkpt lat="44.87609" lon="2.86617">
        <ele>671</ele>
        <time>2019-01-08T11:40:59Z</time>
      </trkpt>
      <trkpt lat="44.87602" lon="2.86593">
        <ele>668</ele>
        <time>2019-01-08T11:41:59Z</time>
      </trkpt>
      <trkpt lat="44.87573" lon="2.8655">
        <ele>664</ele>
        <time>2019-01-08T11:42:59Z</time>
      </trkpt>
      <trkpt lat="44.87535" lon="2.86517">
        <ele>658</ele>
        <time>2019-01-08T11:43:59Z</time>
      </trkpt>
      <trkpt lat="44.87533" lon="2.86473">
        <ele>659</ele>
        <time>2019-01-08T11:44:59Z</time>
      </trkpt>
      <trkpt lat="44.87562" lon="2.86421">
        <ele>665</ele>
        <time>2019-01-08T11:45:59Z</time>
      </trkpt>
      <trkpt lat="44.87586" lon="2.86379">
        <ele>668</ele>
        <time>2019-01-08T11:46:59Z</time>
      </trkpt>
      <trkpt lat="44.87594" lon="2.86358">
        <ele>669</ele>
        <time>2019-01-08T11:47:59Z</time>
      </trkpt>
      <trkpt lat="44.87607" lon="2.86201">
        <ele>665</ele>
        <time>2019-01-08T11:48:59Z</time>
      </trkpt>
      <trkpt lat="44.8762" lon="2.8614">
        <ele>665</ele>
        <time>2019-01-08T11:49:59Z</time>
      </trkpt>
      <trkpt lat="44.87646" lon="2.86076">
        <ele>670</ele>
        <time>2019-01-08T11:50:59Z</time>
      </trkpt>
      <trkpt lat="44.87653" lon="2.86056">
        <ele>672</ele>
        <time>2019-01-08T11:51:59Z</time>
      </trkpt>
      <trkpt lat="44.87647" lon="2.86028">
        <ele>672</ele>
        <time>2019-01-08T11:52:59Z</time>
      </trkpt>
      <trkpt lat="44.87606" lon="2.86006">
        <ele>660</ele>
        <time>2019-01-08T11:53:59Z</time>
      </trkpt>
      <trkpt lat="44.8759" lon="2.85988">
        <ele>656</ele>
        <time>2019-01-08T11:54:59Z</time>
      </trkpt>
      <trkpt lat="44.87587" lon="2.8597">
        <ele>654</ele>
        <time>2019-01-08T11:55:59Z</time>
      </trkpt>
      <trkpt lat="44.87591" lon="2.85945">
        <ele>655</ele>
        <time>2019-01-08T11:56:59Z</time>
      </trkpt>
      <trkpt lat="44.87613" lon="2.85916">
        <ele>662</ele>
        <time>2019-01-08T11:57:59Z</time>
      </trkpt>
      <trkpt lat="44.87628" lon="2.8589">
        <ele>665</ele>
        <time>2019-01-08T11:58:59Z</time>
      </trkpt>
      <trkpt lat="44.87645" lon="2.85834">
        <ele>666</ele>
        <time>2019-01-08T11:59:59Z</time>
      </trkpt>
      <trkpt lat="44.87655" lon="2.85764">
        <ele>665</ele>
        <time>2019-01-08T12:00:59Z</time>
      </trkpt>
      <trkpt lat="44.87659" lon="2.85715">
        <ele>666</ele>
        <time>2019-01-08T12:01:59Z</time>
      </trkpt>
      <trkpt lat="44.87662" lon="2.85672">
        <ele>669</ele>
        <time>2019-01-08T12:02:59Z</time>
      </trkpt>
      <trkpt lat="44.87665" lon="2.85615">
        <ele>673</ele>
        <time>2019-01-08T12:03:59Z</time>
      </trkpt>
      <trkpt lat="44.87654" lon="2.85547">
        <ele>672</ele>
        <time>2019-01-08T12:04:59Z</time>
      </trkpt>
      <trkpt lat="44.87648" lon="2.85505">
        <ele>672</ele>
        <time>2019-01-08T12:05:59Z</time>
      </trkpt>
      <trkpt lat="44.87636" lon="2.8547">
        <ele>665</ele>
        <time>2019-01-08T12:06:59Z</time>
      </trkpt>
      <trkpt lat="44.87637" lon="2.85448">
        <ele>663</ele>
        <time>2019-01-08T12:07:59Z</time>
      </trkpt>
      <trkpt lat="44.87659" lon="2.85423">
        <ele>661</ele>
        <time>2019-01-08T12:08:59Z</time>
      </trkpt>
      <trkpt lat="44.87748" lon="2.85462">
        <ele>676</ele>
        <time>2019-01-08T12:09:59Z</time>
      </trkpt>
      <trkpt lat="44.8779" lon="2.85488">
        <ele>678</ele>
        <time>2019-01-08T12:10:59Z</time>
      </trkpt>
      <trkpt lat="44.87823" lon="2.85507">
        <ele>676</ele>
        <time>2019-01-08T12:11:59Z</time>
      </trkpt>
      <trkpt lat="44.87837" lon="2.85504">
        <ele>675</ele>
        <time>2019-01-08T12:12:59Z</time>
      </trkpt>
      <trkpt lat="44.87843" lon="2.85487">
        <ele>677</ele>
        <time>2019-01-08T12:13:59Z</time>
      </trkpt>
      <trkpt lat="44.87843" lon="2.85469">
        <ele>680</ele>
        <time>2019-01-08T12:14:59Z</time>
      </trkpt>
      <trkpt lat="44.87801" lon="2.85399">
        <ele>681</ele>
        <time>2019-01-08T12:15:59Z</time>
      </trkpt>
      <trkpt lat="44.87793" lon="2.85374">
        <ele>683</ele>
        <time>2019-01-08T12:16:59Z</time>
      </trkpt>
      <trkpt lat="44.87791" lon="2.85348">
        <ele>687</ele>
        <time>2019-01-08T12:17:59Z</time>
      </trkpt>
      <trkpt lat="44.87779" lon="2.85331">
        <ele>686</ele>
        <time>2019-01-08T12:18:59Z</time>
      </trkpt>
      <trkpt lat="44.87739" lon="2.85327">
        <ele>677</ele>
        <time>2019-01-08T12:19:59Z</time>
      </trkpt>
      <trkpt lat="44.877" lon="2.8532">
        <ele>673</ele>
        <time>2019-01-08T12:20:59Z</time>
      </trkpt>
      <trkpt lat="44.8766" lon="2.85268">
        <ele>680</ele>
        <time>2019-01-08T12:21:59Z</time>
      </trkpt>
      <trkpt lat="44.87654" lon="2.85237">
        <ele>685</ele>
        <time>2019-01-08T12:22:59Z</time>
      </trkpt>
      <trkpt lat="44.87654" lon="2.85203">
        <ele>693</ele>
        <time>2019-01-08T12:23:59Z</time>
      </trkpt>
      <trkpt lat="44.87649" lon="2.8517">
        <ele>699</ele>
        <time>2019-01-08T12:24:59Z</time>
      </trkpt>
      <trkpt lat="44.87635" lon="2.85137">
        <ele>705</ele>
        <time>2019-01-08T12:25:59Z</time>
      </trkpt>
      <trkpt lat="44.87609" lon="2.85106">
        <ele>707</ele>
        <time>2019-01-08T12:26:59Z</time>
      </trkpt>
      <trkpt lat="44.87585" lon="2.8509">
        <ele>704</ele>
        <time>2019-01-08T12:27:59Z</time>
      </trkpt>
      <trkpt lat="44.87568" lon="2.85081">
        <ele>706</ele>
        <time>2019-01-08T12:28:59Z</time>
      </trkpt>
      <trkpt lat="44.87543" lon="2.85078">
        <ele>705</ele>
        <time>2019-01-08T12:29:59Z</time>
      </trkpt>
      <trkpt lat="44.87516" lon="2.85075">
        <ele>704</ele>
        <time>2019-01-08T12:30:59Z</time>
      </trkpt>
      <trkpt lat="44.87485" lon="2.85089">
        <ele>696</ele>
        <time>2019-01-08T12:31:59Z</time>
      </trkpt>
      <trkpt lat="44.87475" lon="2.85076">
        <ele>695</ele>
        <time>2019-01-08T12:32:59Z</time>
      </trkpt>
      <trkpt lat="44.87479" lon="2.85065">
        <ele>698</ele>
        <time>2019-01-08T12:33:59Z</time>
      </trkpt>
      <trkpt lat="44.87502" lon="2.85058">
        <ele>705</ele>
        <time>2019-01-08T12:34:59Z</time>
      </trkpt>
      <trkpt lat="44.8754" lon="2.8505">
        <ele>712</ele>
        <time>2019-01-08T12:35:59Z</time>
      </trkpt>
      <trkpt lat="44.8759" lon="2.85053">
        <ele>718</ele>
        <time>2019-01-08T12:36:59Z</time>
      </trkpt>
      <trkpt lat="44.87627" lon="2.85071">
        <ele>723</ele>
        <time>2019-01-08T12:37:59Z</time>
      </trkpt>
      <trkpt lat="44.87663" lon="2.851">
        <ele>725</ele>
        <time>2019-01-08T12:38:59Z</time>
      </trkpt>
      <trkpt lat="44.87696" lon="2.85143">
        <ele>722</ele>
        <time>2019-01-08T12:39:59Z</time>
      </trkpt>
      <trkpt lat="44.8772" lon="2.85202">
        <ele>714</ele>
        <time>2019-01-08T12:40:59Z</time>
      </trkpt>
      <trkpt lat="44.87733" lon="2.85212">
        <ele>715</ele>
        <time>2019-01-08T12:41:59Z</time>
      </trkpt>
      <trkpt lat="44.87776" lon="2.85208">
        <ele>723</ele>
        <time>2019-01-08T12:42:59Z</time>
      </trkpt>
      <trkpt lat="44.87814" lon="2.852">
        <ele>728</ele>
        <time>2019-01-08T12:43:59Z</time>
      </trkpt>
      <trkpt lat="44.87828" lon="2.85189">
        <ele>732</ele>
        <time>2019-01-08T12:44:59Z</time>
      </trkpt>
      <trkpt lat="44.87822" lon="2.8517">
        <ele>736</ele>
        <time>2019-01-08T12:45:59Z</time>
      </trkpt>
      <trkpt lat="44.87808" lon="2.85179">
        <ele>733</ele>
        <time>2019-01-08T12:46:59Z</time>
      </trkpt>
      <trkpt lat="44.87785" lon="2.85185">
        <ele>730</ele>
        <time>2019-01-08T12:47:59Z</time>
      </trkpt>
      <trkpt lat="44.87764" lon="2.85182">
        <ele>730</ele>
        <time>2019-01-08T12:48:59Z</time>
      </trkpt>
      <trkpt lat="44.87734" lon="2.85121">
        <ele>740</ele>
        <time>2019-01-08T12:49:59Z</time>
      </trkpt>
      <trkpt lat="44.8771" lon="2.8508">
        <ele>744</ele>
        <time>2019-01-08T12:50:59Z</time>
      </trkpt>
      <trkpt lat="44.87684" lon="2.85049">
        <ele>744</ele>
        <time>2019-01-08T12:51:59Z</time>
      </trkpt>
      <trkpt lat="44.8766" lon="2.85018">
        <ele>747</ele>
        <time>2019-01-08T12:52:59Z</time>
      </trkpt>
      <trkpt lat="44.87638" lon="2.84973">
        <ele>751</ele>
        <time>2019-01-08T12:53:59Z</time>
      </trkpt>
      <trkpt lat="44.87632" lon="2.84931">
        <ele>756</ele>
        <time>2019-01-08T12:54:59Z</time>
      </trkpt>
      <trkpt lat="44.87631" lon="2.84899">
        <ele>761</ele>
        <time>2019-01-08T12:55:59Z</time>
      </trkpt>
      <trkpt lat="44.87611" lon="2.84852">
        <ele>763</ele>
        <time>2019-01-08T12:56:59Z</time>
      </trkpt>
      <trkpt lat="44.87594" lon="2.84826">
        <ele>761</ele>
        <time>2019-01-08T12:57:59Z</time>
      </trkpt>
      <trkpt lat="44.87578" lon="2.84718">
        <ele>770</ele>
        <time>2019-01-08T12:58:59Z</time>
      </trkpt>
      <trkpt lat="44.87573" lon="2.84633">
        <ele>772</ele>
        <time>2019-01-08T12:59:59Z</time>
      </trkpt>
      <trkpt lat="44.87577" lon="2.8458">
        <ele>774</ele>
        <time>2019-01-08T13:00:59Z</time>
      </trkpt>
      <trkpt lat="44.8758" lon="2.84527">
        <ele>769</ele>
        <time>2019-01-08T13:01:59Z</time>
      </trkpt>
      <trkpt lat="44.87587" lon="2.84494">
        <ele>770</ele>
        <time>2019-01-08T13:02:59Z</time>
      </trkpt>
      <trkpt lat="44.87611" lon="2.84473">
        <ele>782</ele>
        <time>2019-01-08T13:03:59Z</time>
      </trkpt>
      <trkpt lat="44.8762" lon="2.84453">
        <ele>787</ele>
        <time>2019-01-08T13:04:59Z</time>
      </trkpt>
      <trkpt lat="44.87621" lon="2.84427">
        <ele>788</ele>
        <time>2019-01-08T13:05:59Z</time>
      </trkpt>
      <trkpt lat="44.87612" lon="2.84386">
        <ele>784</ele>
        <time>2019-01-08T13:06:59Z</time>
      </trkpt>
      <trkpt lat="44.87607" lon="2.84358">
        <ele>783</ele>
        <time>2019-01-08T13:07:59Z</time>
      </trkpt>
      <trkpt lat="44.87614" lon="2.84327">
        <ele>787</ele>
        <time>2019-01-08T13:08:59Z</time>
      </trkpt>
      <trkpt lat="44.87637" lon="2.84253">
        <ele>792</ele>
        <time>2019-01-08T13:09:59Z</time>
      </trkpt>
      <trkpt lat="44.87637" lon="2.84223">
        <ele>790</ele>
        <time>2019-01-08T13:10:59Z</time>
      </trkpt>
      <trkpt lat="44.87635" lon="2.84155">
        <ele>786</ele>
        <time>2019-01-08T13:11:59Z</time>
      </trkpt>
      <trkpt lat="44.87641" lon="2.84134">
        <ele>786</ele>
        <time>2019-01-08T13:12:59Z</time>
      </trkpt>
      <trkpt lat="44.87659" lon="2.84122">
        <ele>789</ele>
        <time>2019-01-08T13:13:59Z</time>
      </trkpt>
      <trkpt lat="44.87726" lon="2.84127">
        <ele>805</ele>
        <time>2019-01-08T13:14:59Z</time>
      </trkpt>
      <trkpt lat="44.87749" lon="2.84118">
        <ele>808</ele>
        <time>2019-01-08T13:15:59Z</time>
      </trkpt>
      <trkpt lat="44.87796" lon="2.84061">
        <ele>804</ele>
        <time>2019-01-08T13:16:59Z</time>
      </trkpt>
      <trkpt lat="44.87833" lon="2.84042">
        <ele>808</ele>
        <time>2019-01-08T13:17:59Z</time>
      </trkpt>
      <trkpt lat="44.879" lon="2.84037">
        <ele>815</ele>
        <time>2019-01-08T13:18:59Z</time>
      </trkpt>
      <trkpt lat="44.87941" lon="2.84026">
        <ele>818</ele>
        <time>2019-01-08T13:19:59Z</time>
      </trkpt>
      <trkpt lat="44.88023" lon="2.83994">
        <ele>818</ele>
        <time>2019-01-08T13:20:59Z</time>
      </trkpt>
      <trkpt lat="44.8804" lon="2.83994">
        <ele>817</ele>
        <time>2019-01-08T13:21:59Z</time>
      </trkpt>
      <trkpt lat="44.88069" lon="2.84023">
        <ele>826</ele>
        <time>2019-01-08T13:22:59Z</time>
      </trkpt>
      <trkpt lat="44.88104" lon="2.84064">
        <ele>838</ele>
        <time>2019-01-08T13:23:59Z</time>
      </trkpt>
      <trkpt lat="44.88122" lon="2.84074">
        <ele>840</ele>
        <time>2019-01-08T13:24:59Z</time>
      </trkpt>
      <trkpt lat="44.88165" lon="2.84069">
        <ele>834</ele>
        <time>2019-01-08T13:25:59Z</time>
      </trkpt>
      <trkpt lat="44.88262" lon="2.84076">
        <ele>838</ele>
        <time>2019-01-08T13:26:59Z</time>
      </trkpt>
      <trkpt lat="44.88293" lon="2.84099">
        <ele>843</ele>
        <time>2019-01-08T13:27:59Z</time>
      </trkpt>
      <trkpt lat="44.88337" lon="2.84111">
        <ele>843</ele>
        <time>2019-01-08T13:28:59Z</time>
      </trkpt>
      <trkpt lat="44.884" lon="2.84119">
        <ele>840</ele>
        <time>2019-01-08T13:29:59Z</time>
      </trkpt>
      <trkpt lat="44.88441" lon="2.84155">
        <ele>846</ele>
        <time>2019-01-08T13:30:59Z</time>
      </trkpt>
      <trkpt lat="44.8847" lon="2.84186">
        <ele>852</ele>
        <time>2019-01-08T13:31:59Z</time>
      </trkpt>
      <trkpt lat="44.88487" lon="2.84188">
        <ele>852</ele>
        <time>2019-01-08T13:32:59Z</time>
      </trkpt>
      <trkpt lat="44.88547" lon="2.84169">
        <ele>851</ele>
        <time>2019-01-08T13:33:59Z</time>
      </trkpt>
      <trkpt lat="44.88576" lon="2.84191">
        <ele>855</ele>
        <time>2019-01-08T13:34:59Z</time>
      </trkpt>
      <trkpt lat="44.88649" lon="2.84245">
        <ele>860</ele>
        <time>2019-01-08T13:35:59Z</time>
      </trkpt>
      <trkpt lat="44.88679" lon="2.84249">
        <ele>861</ele>
        <time>2019-01-08T13:36:59Z</time>
      </trkpt>
      <trkpt lat="44.88696" lon="2.84237">
        <ele>861</ele>
        <time>2019-01-08T13:37:59Z</time>
      </trkpt>
      <trkpt lat="44.88716" lon="2.84204">
        <ele>857</ele>
        <time>2019-01-08T13:38:59Z</time>
      </trkpt>
      <trkpt lat="44.88733" lon="2.84184">
        <ele>855</ele>
        <time>2019-01-08T13:39:59Z</time>
      </trkpt>
      <trkpt lat="44.88821" lon="2.84147">
        <ele>858</ele>
        <time>2019-01-08T13:40:59Z</time>
      </trkpt>
      <trkpt lat="44.88874" lon="2.84125">
        <ele>861</ele>
        <time>2019-01-08T13:41:59Z</time>
      </trkpt>
      <trkpt lat="44.88936" lon="2.84068">
        <ele>859</ele>
        <time>2019-01-08T13:42:59Z</time>
      </trkpt>
      <trkpt lat="44.88983" lon="2.84018">
        <ele>857</ele>
        <time>2019-01-08T13:43:59Z</time>
      </trkpt>
      <trkpt lat="44.89028" lon="2.84003">
        <ele>859</ele>
        <time>2019-01-08T13:44:59Z</time>
      </trkpt>
      <trkpt lat="44.89063" lon="2.84024">
        <ele>861</ele>
        <time>2019-01-08T13:45:59Z</time>
      </trkpt>
      <trkpt lat="44.8907" lon="2.84055">
        <ele>863</ele>
        <time>2019-01-08T13:46:59Z</time>
      </trkpt>
      <trkpt lat="44.89087" lon="2.84159">
        <ele>864</ele>
        <time>2019-01-08T13:47:59Z</time>
      </trkpt>
      <trkpt lat="44.89107" lon="2.84267">
        <ele>868</ele>
        <time>2019-01-08T13:48:59Z</time>
      </trkpt>
      <trkpt lat="44.89152" lon="2.8432">
        <ele>862</ele>
        <time>2019-01-08T13:49:59Z</time>
      </trkpt>
      <trkpt lat="44.89194" lon="2.8445">
        <ele>869</ele>
        <time>2019-01-08T13:50:59Z</time>
      </trkpt>
      <trkpt lat="44.89217" lon="2.84472">
        <ele>870</ele>
        <time>2019-01-08T13:51:59Z</time>
      </trkpt>
      <trkpt lat="44.89238" lon="2.84468">
        <ele>867</ele>
        <time>2019-01-08T13:52:59Z</time>
      </trkpt>
      <trkpt lat="44.89305" lon="2.84427">
        <ele>863</ele>
        <time>2019-01-08T13:53:59Z</time>
      </trkpt>
      <trkpt lat="44.89324" lon="2.844">
        <ele>862</ele>
        <time>2019-01-08T13:54:59Z</time>
      </trkpt>
      <trkpt lat="44.89361" lon="2.84334">
        <ele>860</ele>
        <time>2019-01-08T13:55:59Z</time>
      </trkpt>
      <trkpt lat="44.894" lon="2.84276">
        <ele>860</ele>
        <time>2019-01-08T13:56:59Z</time>
      </trkpt>
      <trkpt lat="44.89436" lon="2.84261">
        <ele>861</ele>
        <time>2019-01-08T13:57:59Z</time>
      </trkpt>
      <trkpt lat="44.89453" lon="2.84277">
        <ele>861</ele>
        <time>2019-01-08T13:58:59Z</time>
      </trkpt>
      <trkpt lat="44.89493" lon="2.8437">
        <ele>866</ele>
        <time>2019-01-08T13:59:59Z</time>
      </trkpt>
      <trkpt lat="44.89524" lon="2.84452">
        <ele>874</ele>
        <time>2019-01-08T14:00:59Z</time>
      </trkpt>
      <trkpt lat="44.8954" lon="2.84458">
        <ele>875</ele>
        <time>2019-01-08T14:01:59Z</time>
      </trkpt>
      <trkpt lat="44.89557" lon="2.84454">
        <ele>875</ele>
        <time>2019-01-08T14:02:59Z</time>
      </trkpt>
      <trkpt lat="44.89577" lon="2.84428">
        <ele>874</ele>
        <time>2019-01-08T14:03:59Z</time>
      </trkpt>
      <trkpt lat="44.89582" lon="2.84409">
        <ele>872</ele>
        <time>2019-01-08T14:04:59Z</time>
      </trkpt>
      <trkpt lat="44.89588" lon="2.84371">
        <ele>870</ele>
        <time>2019-01-08T14:05:59Z</time>
      </trkpt>
      <trkpt lat="44.89596" lon="2.84358">
        <ele>869</ele>
        <time>2019-01-08T14:06:59Z</time>
      </trkpt>
      <trkpt lat="44.89622" lon="2.8434">
        <ele>869</ele>
        <time>2019-01-08T14:07:59Z</time>
      </trkpt>
      <trkpt lat="44.8966" lon="2.84322">
        <ele>868</ele>
        <time>2019-01-08T14:08:59Z</time>
      </trkpt>
      <trkpt lat="44.8969" lon="2.8429">
        <ele>866</ele>
        <time>2019-01-08T14:09:59Z</time>
      </trkpt>
      <trkpt lat="44.89734" lon="2.84258">
        <ele>865</ele>
        <time>2019-01-08T14:10:59Z</time>
      </trkpt>
      <trkpt lat="44.89784" lon="2.84254">
        <ele>862</ele>
        <time>2019-01-08T14:11:59Z</time>
      </trkpt>
      <trkpt lat="44.89819" lon="2.84278">
        <ele>861</ele>
        <time>2019-01-08T14:12:59Z</time>
      </trkpt>
      <trkpt lat="44.89861" lon="2.84333">
        <ele>861</ele>
        <time>2019-01-08T14:13:59Z</time>
      </trkpt>
      <trkpt lat="44.89878" lon="2.84355">
        <ele>861</ele>
        <time>2019-01-08T14:14:59Z</time>
      </trkpt>
      <trkpt lat="44.89935" lon="2.84392">
        <ele>857</ele>
        <time>2019-01-08T14:15:59Z</time>
      </trkpt>
      <trkpt lat="44.89975" lon="2.84405">
        <ele>855</ele>
        <time>2019-01-08T14:16:59Z</time>
      </trkpt>
      <trkpt lat="44.90016" lon="2.84432">
        <ele>854</ele>
        <time>2019-01-08T14:17:59Z</time>
      </trkpt>
      <trkpt lat="44.9008" lon="2.84493">
        <ele>854</ele>
        <time>2019-01-08T14:18:59Z</time>
      </trkpt>
      <trkpt lat="44.90103" lon="2.84513">
        <ele>851</ele>
        <time>2019-01-08T14:19:59Z</time>
      </trkpt>
      <trkpt lat="44.90115" lon="2.84555">
        <ele>851</ele>
        <time>2019-01-08T14:20:59Z</time>
      </trkpt>
      <trkpt lat="44.90136" lon="2.84611">
        <ele>850</ele>
        <time>2019-01-08T14:21:59Z</time>
      </trkpt>
      <trkpt lat="44.9016" lon="2.84656">
        <ele>847</ele>
        <time>2019-01-08T14:22:59Z</time>
      </trkpt>
      <trkpt lat="44.90181" lon="2.84657">
        <ele>847</ele>
        <time>2019-01-08T14:23:59Z</time>
      </trkpt>
      <trkpt lat="44.90194" lon="2.84642">
        <ele>848</ele>
        <time>2019-01-08T14:24:59Z</time>
      </trkpt>
      <trkpt lat="44.90211" lon="2.84569">
        <ele>846</ele>
        <time>2019-01-08T14:25:59Z</time>
      </trkpt>
      <trkpt lat="44.90231" lon="2.84503">
        <ele>841</ele>
        <time>2019-01-08T14:26:59Z</time>
      </trkpt>
      <trkpt lat="44.90246" lon="2.84484">
        <ele>839</ele>
        <time>2019-01-08T14:27:59Z</time>
      </trkpt>
      <trkpt lat="44.90298" lon="2.84492">
        <ele>842</ele>
        <time>2019-01-08T14:28:59Z</time>
      </trkpt>
      <trkpt lat="44.90333" lon="2.84497">
        <ele>844</ele>
        <time>2019-01-08T14:29:59Z</time>
      </trkpt>
      <trkpt lat="44.90391" lon="2.84481">
        <ele>847</ele>
        <time>2019-01-08T14:30:59Z</time>
      </trkpt>
      <trkpt lat="44.90434" lon="2.84468">
        <ele>847</ele>
        <time>2019-01-08T14:31:59Z</time>
      </trkpt>
      <trkpt lat="44.90485" lon="2.84466">
        <ele>848</ele>
        <time>2019-01-08T14:32:59Z</time>
      </trkpt>
      <trkpt lat="44.90512" lon="2.84458">
        <ele>847</ele>
        <time>2019-01-08T14:33:59Z</time>
      </trkpt>
      <trkpt lat="44.90566" lon="2.84408">
        <ele>846</ele>
        <time>2019-01-08T14:34:59Z</time>
      </trkpt>
      <trkpt lat="44.90613" lon="2.84366">
        <ele>848</ele>
        <time>2019-01-08T14:35:59Z</time>
      </trkpt>
      <trkpt lat="44.90643" lon="2.8432">
        <ele>849</ele>
        <time>2019-01-08T14:36:59Z</time>
      </trkpt>
      <trkpt lat="44.90678" lon="2.84253">
        <ele>851</ele>
        <time>2019-01-08T14:37:59Z</time>
      </trkpt>
      <trkpt lat="44.90731" lon="2.84149">
        <ele>859</ele>
        <time>2019-01-08T14:38:59Z</time>
      </trkpt>
      <trkpt lat="44.90789" lon="2.84045">
        <ele>861</ele>
        <time>2019-01-08T14:39:59Z</time>
      </trkpt>
      <trkpt lat="44.90808" lon="2.84034">
        <ele>862</ele>
        <time>2019-01-08T14:40:59Z</time>
      </trkpt>
      <trkpt lat="44.90832" lon="2.84027">
        <ele>863</ele>
        <time>2019-01-08T14:41:59Z</time>
      </trkpt>
      <trkpt lat="44.9093" lon="2.83994">
        <ele>869</ele>
        <time>2019-01-08T14:42:59Z</time>
      </trkpt>
      <trkpt lat="44.90958" lon="2.83987">
        <ele>870</ele>
        <time>2019-01-08T14:43:59Z</time>
      </trkpt>
      <trkpt lat="44.91064" lon="2.84009">
        <ele>876</ele>
        <time>2019-01-08T14:44:59Z</time>
      </trkpt>
      <trkpt lat="44.91216" lon="2.8404">
        <ele>880</ele>
        <time>2019-01-08T14:45:59Z</time>
      </trkpt>
      <trkpt lat="44.91352" lon="2.84017">
        <ele>879</ele>
        <time>2019-01-08T14:46:59Z</time>
      </trkpt>
      <trkpt lat="44.91468" lon="2.84015">
        <ele>887</ele>
        <time>2019-01-08T14:47:59Z</time>
      </trkpt>
      <trkpt lat="44.91526" lon="2.84016">
        <ele>888</ele>
        <time>2019-01-08T14:48:59Z</time>
      </trkpt>
      <trkpt lat="44.91573" lon="2.84038">
        <ele>891</ele>
        <time>2019-01-08T14:49:59Z</time>
      </trkpt>
      <trkpt lat="44.91603" lon="2.84053">
        <ele>892</ele>
        <time>2019-01-08T14:50:59Z</time>
      </trkpt>
      <trkpt lat="44.91695" lon="2.84063">
        <ele>891</ele>
        <time>2019-01-08T14:51:59Z</time>
      </trkpt>
      <trkpt lat="44.91728" lon="2.84059">
        <ele>892</ele>
        <time>2019-01-08T14:52:59Z</time>
      </trkpt>
      <trkpt lat="44.91824" lon="2.84027">
        <ele>892</ele>
        <time>2019-01-08T14:53:59Z</time>
      </trkpt>
      <trkpt lat="44.91856" lon="2.84004">
        <ele>892</ele>
        <time>2019-01-08T14:54:59Z</time>
      </trkpt>
      <trkpt lat="44.91914" lon="2.83958">
        <ele>895</ele>
        <time>2019-01-08T14:55:59Z</time>
      </trkpt>
      <trkpt lat="44.91976" lon="2.83899">
        <ele>900</ele>
        <time>2019-01-08T14:56:59Z</time>
      </trkpt>
      <trkpt lat="44.91996" lon="2.83856">
        <ele>898</ele>
        <time>2019-01-08T14:57:59Z</time>
      </trkpt>
      <trkpt lat="44.92004" lon="2.838">
        <ele>898</ele>
        <time>2019-01-08T14:58:59Z</time>
      </trkpt>
      <trkpt lat="44.92017" lon="2.83701">
        <ele>904</ele>
        <time>2019-01-08T14:59:59Z</time>
      </trkpt>
      <trkpt lat="44.92032" lon="2.83611">
        <ele>905</ele>
        <time>2019-01-08T15:00:59Z</time>
      </trkpt>
      <trkpt lat="44.92041" lon="2.83588">
        <ele>905</ele>
        <time>2019-01-08T15:01:59Z</time>
      </trkpt>
      <trkpt lat="44.92069" lon="2.83568">
        <ele>907</ele>
        <time>2019-01-08T15:02:59Z</time>
      </trkpt>
      <trkpt lat="44.92131" lon="2.83581">
        <ele>907</ele>
        <time>2019-01-08T15:03:59Z</time>
      </trkpt>
      <trkpt lat="44.9221" lon="2.83596">
        <ele>909</ele>
        <time>2019-01-08T15:04:59Z</time>
      </trkpt>
      <trkpt lat="44.92289" lon="2.83615">
        <ele>913</ele>
        <time>2019-01-08T15:05:59Z</time>
      </trkpt>
      <trkpt lat="44.9233" lon="2.83634">
        <ele>916</ele>
        <time>2019-01-08T15:06:59Z</time>
      </trkpt>
      <trkpt lat="44.92264" lon="2.83657">
        <ele>918</ele>
        <time>2019-01-08T15:07:59Z</time>
      </trkpt>
      <trkpt lat="44.92201" lon="2.83668">
        <ele>920</ele>
        <time>2019-01-08T15:08:59Z</time>
      </trkpt>
      <trkpt lat="44.92155" lon="2.83665">
        <ele>920</ele>
        <time>2019-01-08T15:09:59Z</time>
      </trkpt>
      <trkpt lat="44.92128" lon="2.83677">
        <ele>919</ele>
        <time>2019-01-08T15:10:59Z</time>
      </trkpt>
      <trkpt lat="44.92126" lon="2.83733">
        <ele>922</ele>
        <time>2019-01-08T15:11:59Z</time>
      </trkpt>
      <trkpt lat="44.92131" lon="2.83809">
        <ele>926</ele>
        <time>2019-01-08T15:12:59Z</time>
      </trkpt>
      <trkpt lat="44.92116" lon="2.839">
        <ele>929</ele>
        <time>2019-01-08T15:13:59Z</time>
      </trkpt>
      <trkpt lat="44.92098" lon="2.8398">
        <ele>934</ele>
        <time>2019-01-08T15:14:59Z</time>
      </trkpt>
      <trkpt lat="44.92055" lon="2.84049">
        <ele>938</ele>
        <time>2019-01-08T15:15:59Z</time>
      </trkpt>
      <trkpt lat="44.92015" lon="2.84058">
        <ele>936</ele>
        <time>2019-01-08T15:16:59Z</time>
      </trkpt>
      <trkpt lat="44.91985" lon="2.84126">
        <ele>940</ele>
        <time>2019-01-08T15:17:59Z</time>
      </trkpt>
      <trkpt lat="44.92002" lon="2.84234">
        <ele>951</ele>
        <time>2019-01-08T15:18:59Z</time>
      </trkpt>
      <trkpt lat="44.91981" lon="2.843">
        <ele>954</ele>
        <time>2019-01-08T15:19:59Z</time>
      </trkpt>
      <trkpt lat="44.9191" lon="2.84341">
        <ele>955</ele>
        <time>2019-01-08T15:20:59Z</time>
      </trkpt>
      <trkpt lat="44.91827" lon="2.84381">
        <ele>958</ele>
        <time>2019-01-08T15:21:59Z</time>
      </trkpt>
      <trkpt lat="44.91771" lon="2.84396">
        <ele>959</ele>
        <time>2019-01-08T15:22:59Z</time>
      </trkpt>
      <trkpt lat="44.9171" lon="2.84393">
        <ele>960</ele>
        <time>2019-01-08T15:23:59Z</time>
      </trkpt>
      <trkpt lat="44.91661" lon="2.84376">
        <ele>960</ele>
        <time>2019-01-08T15:24:59Z</time>
      </trkpt>
      <trkpt lat="44.91614" lon="2.84361">
        <ele>960</ele>
        <time>2019-01-08T15:25:59Z</time>
      </trkpt>
      <trkpt lat="44.9156" lon="2.84357">
        <ele>959</ele>
        <time>2019-01-08T15:26:59Z</time>
      </trkpt>
      <trkpt lat="44.91525" lon="2.84399">
        <ele>961</ele>
        <time>2019-01-08T15:27:59Z</time>
      </trkpt>
      <trkpt lat="44.91521" lon="2.84464">
        <ele>962</ele>
        <time>2019-01-08T15:28:59Z</time>
      </trkpt>
      <trkpt lat="44.91561" lon="2.84539">
        <ele>965</ele>
        <time>2019-01-08T15:29:59Z</time>
      </trkpt>
      <trkpt lat="44.91604" lon="2.84621">
        <ele>967</ele>
        <time>2019-01-08T15:30:59Z</time>
      </trkpt>
      <trkpt lat="44.9162" lon="2.84706">
        <ele>965</ele>
        <time>2019-01-08T15:31:59Z</time>
      </trkpt>
      <trkpt lat="44.91643" lon="2.8481">
        <ele>964</ele>
        <time>2019-01-08T15:32:59Z</time>
      </trkpt>
      <trkpt lat="44.9168" lon="2.84883">
        <ele>966</ele>
        <time>2019-01-08T15:33:59Z</time>
      </trkpt>
      <trkpt lat="44.91693" lon="2.84909">
        <ele>966</ele>
        <time>2019-01-08T15:34:59Z</time>
      </trkpt>
      <trkpt lat="44.91673" lon="2.84939">
        <ele>966</ele>
        <time>2019-01-08T15:35:59Z</time>
      </trkpt>
      <trkpt lat="44.9157" lon="2.8497">
        <ele>974</ele>
        <time>2019-01-08T15:36:59Z</time>
      </trkpt>
      <trkpt lat="44.91524" lon="2.84934">
        <ele>972</ele>
        <time>2019-01-08T15:37:59Z</time>
      </trkpt>
      <trkpt lat="44.91491" lon="2.84994">
        <ele>979</ele>
        <time>2019-01-08T15:38:59Z</time>
      </trkpt>
      <trkpt lat="44.91506" lon="2.85127">
        <ele>986</ele>
        <time>2019-01-08T15:39:59Z</time>
      </trkpt>
      <trkpt lat="44.91543" lon="2.85265">
        <ele>993</ele>
        <time>2019-01-08T15:40:59Z</time>
      </trkpt>
      <trkpt lat="44.9161" lon="2.85432">
        <ele>997</ele>
        <time>2019-01-08T15:41:59Z</time>
      </trkpt>
      <trkpt lat="44.91646" lon="2.85634">
        <ele>1001</ele>
        <time>2019-01-08T15:42:59Z</time>
      </trkpt>
      <trkpt lat="44.91795" lon="2.85836">
        <ele>1008</ele>
        <time>2019-01-08T15:43:59Z</time>
      </trkpt>
      <trkpt lat="44.91947" lon="2.86029">
        <ele>1015</ele>
        <time>2019-01-08T15:44:59Z</time>
      </trkpt>
      <trkpt lat="44.92126" lon="2.86252">
        <ele>1026</ele>
        <time>2019-01-08T15:45:59Z</time>
      </trkpt>
      <trkpt lat="44.92096" lon="2.86488">
        <ele>1026</ele>
        <time>2019-01-08T15:46:59Z</time>
      </trkpt>
      <trkpt lat="44.92059" lon="2.86715">
        <ele>1028</ele>
        <time>2019-01-08T15:47:59Z</time>
      </trkpt>
      <trkpt lat="44.92065" lon="2.8729">
        <ele>1021</ele>
        <time>2019-01-08T15:48:59Z</time>
      </trkpt>
      <trkpt lat="44.92081" lon="2.87951">
        <ele>1047</ele>
        <time>2019-01-08T15:49:59Z</time>
      </trkpt>
      <trkpt lat="44.9215" lon="2.88127">
        <ele>1048</ele>
        <time>2019-01-08T15:50:59Z</time>
      </trkpt>
      <trkpt lat="44.92169" lon="2.88295">
        <ele>1052</ele>
        <time>2019-01-08T15:51:59Z</time>
      </trkpt>
      <trkpt lat="44.92243" lon="2.88495">
        <ele>1048</ele>
        <time>2019-01-08T15:52:59Z</time>
      </trkpt>
      <trkpt lat="44.92299" lon="2.88704">
        <ele>1043</ele>
        <time>2019-01-08T15:53:59Z</time>
      </trkpt>
      <trkpt lat="44.92406" lon="2.88781">
        <ele>1037</ele>
        <time>2019-01-08T15:54:59Z</time>
      </trkpt>
      <trkpt lat="44.92483" lon="2.88827">
        <ele>1035</ele>
        <time>2019-01-08T15:55:59Z</time>
      </trkpt>
      <trkpt lat="44.92498" lon="2.88883">
        <ele>1034</ele>
        <time>2019-01-08T15:56:59Z</time>
      </trkpt>
      <trkpt lat="44.92467" lon="2.89018">
        <ele>1025</ele>
        <time>2019-01-08T15:57:59Z</time>
      </trkpt>
      <trkpt lat="44.92496" lon="2.89153">
        <ele>1019</ele>
        <time>2019-01-08T15:58:59Z</time>
      </trkpt>
      <trkpt lat="44.92525" lon="2.8923">
        <ele>1018</ele>
        <time>2019-01-08T15:59:59Z</time>
      </trkpt>
      <trkpt lat="44.92525" lon="2.89281">
        <ele>1019</ele>
        <time>2019-01-08T16:00:59Z</time>
      </trkpt>
      <trkpt lat="44.92496" lon="2.89334">
        <ele>1019</ele>
        <time>2019-01-08T16:01:59Z</time>
      </trkpt>
      <trkpt lat="44.92454" lon="2.89367">
        <ele>1018</ele>
        <time>2019-01-08T16:02:59Z</time>
      </trkpt>
      <trkpt lat="44.92407" lon="2.89498">
        <ele>1020</ele>
        <time>2019-01-08T16:03:59Z</time>
      </trkpt>
      <trkpt lat="44.92344" lon="2.89681">
        <ele>1021</ele>
        <time>2019-01-08T16:04:59Z</time>
      </trkpt>
      <trkpt lat="44.9231" lon="2.89855">
        <ele>1026</ele>
        <time>2019-01-08T16:05:59Z</time>
      </trkpt>
      <trkpt lat="44.92351" lon="2.90033">
        <ele>1024</ele>
        <time>2019-01-08T16:06:59Z</time>
      </trkpt>
      <trkpt lat="44.92422" lon="2.90151">
        <ele>1021</ele>
        <time>2019-01-08T16:07:59Z</time>
      </trkpt>
      <trkpt lat="44.92462" lon="2.90204">
        <ele>1020</ele>
        <time>2019-01-08T16:08:59Z</time>
      </trkpt>
      <trkpt lat="44.92456" lon="2.90337">
        <ele>1020</ele>
        <time>2019-01-08T16:09:59Z</time>
      </trkpt>
      <trkpt lat="44.92409" lon="2.90414">
        <ele>1023</ele>
        <time>2019-01-08T16:10:59Z</time>
      </trkpt>
      <trkpt lat="44.92301" lon="2.90467">
        <ele>1020</ele>
        <time>2019-01-08T16:11:59Z</time>
      </trkpt>
      <trkpt lat="44.9225" lon="2.90506">
        <ele>1018</ele>
        <time>2019-01-08T16:12:59Z</time>
      </trkpt>
      <trkpt lat="44.92217" lon="2.90557">
        <ele>1016</ele>
        <time>2019-01-08T16:13:59Z</time>
      </trkpt>
      <trkpt lat="44.92182" lon="2.90684">
        <ele>1016</ele>
        <time>2019-01-08T16:14:59Z</time>
      </trkpt>
      <trkpt lat="44.92159" lon="2.90793">
        <ele>1017</ele>
        <time>2019-01-08T16:15:59Z</time>
      </trkpt>
      <trkpt lat="44.92157" lon="2.90896">
        <ele>1016</ele>
        <time>2019-01-08T16:16:59Z</time>
      </trkpt>
      <trkpt lat="44.92235" lon="2.9116">
        <ele>1015</ele>
        <time>2019-01-08T16:17:59Z</time>
      </trkpt>
      <trkpt lat="44.92245" lon="2.91219">
        <ele>1015</ele>
        <time>2019-01-08T16:18:59Z</time>
      </trkpt>
      <trkpt lat="44.92311" lon="2.91691">
        <ele>1005</ele>
        <time>2019-01-08T16:19:59Z</time>
      </trkpt>
      <trkpt lat="44.92325" lon="2.91791">
        <ele>1001</ele>
        <time>2019-01-08T16:20:59Z</time>
      </trkpt>
      <trkpt lat="44.92348" lon="2.91839">
        <ele>999</ele>
        <time>2019-01-08T16:21:59Z</time>
      </trkpt>
      <trkpt lat="44.92378" lon="2.91886">
        <ele>997</ele>
        <time>2019-01-08T16:22:59Z</time>
      </trkpt>
      <trkpt lat="44.92444" lon="2.91957">
        <ele>998</ele>
        <time>2019-01-08T16:23:59Z</time>
      </trkpt>
      <trkpt lat="44.92431" lon="2.92022">
        <ele>995</ele>
        <time>2019-01-08T16:24:59Z</time>
      </trkpt>
      <trkpt lat="44.92405" lon="2.92132">
        <ele>989</ele>
        <time>2019-01-08T16:25:59Z</time>
      </trkpt>
      <trkpt lat="44.92381" lon="2.92188">
        <ele>986</ele>
        <time>2019-01-08T16:26:59Z</time>
      </trkpt>
      <trkpt lat="44.92373" lon="2.92265">
        <ele>983</ele>
        <time>2019-01-08T16:27:59Z</time>
      </trkpt>
      <trkpt lat="44.92352" lon="2.92363">
        <ele>979</ele>
        <time>2019-01-08T16:28:59Z</time>
      </trkpt>
      <trkpt lat="44.92313" lon="2.92414">
        <ele>974</ele>
        <time>2019-01-08T16:29:59Z</time>
      </trkpt>
      <trkpt lat="44.92257" lon="2.92535">
        <ele>968</ele>
        <time>2019-01-08T16:30:59Z</time>
      </trkpt>
      <trkpt lat="44.92233" lon="2.92586">
        <ele>965</ele>
        <time>2019-01-08T16:31:59Z</time>
      </trkpt>
      <trkpt lat="44.92215" lon="2.92651">
        <ele>964</ele>
        <time>2019-01-08T16:32:59Z</time>
      </trkpt>
      <trkpt lat="44.92124" lon="2.92767">
        <ele>956</ele>
        <time>2019-01-08T16:33:59Z</time>
      </trkpt>
      <trkpt lat="44.92094" lon="2.92811">
        <ele>953</ele>
        <time>2019-01-08T16:34:59Z</time>
      </trkpt>
      <trkpt lat="44.92063" lon="2.93024">
        <ele>944</ele>
        <time>2019-01-08T16:35:59Z</time>
      </trkpt>
      <trkpt lat="44.92057" lon="2.93191">
        <ele>937</ele>
        <time>2019-01-08T16:36:59Z</time>
      </trkpt>
      <trkpt lat="44.92062" lon="2.93324">
        <ele>927</ele>
        <time>2019-01-08T16:37:59Z</time>
      </trkpt>
      <trkpt lat="44.92017" lon="2.93474">
        <ele>921</ele>
        <time>2019-01-08T16:38:59Z</time>
      </trkpt>
      <trkpt lat="44.92223" lon="2.93474">
        <ele>917</ele>
        <time>2019-01-08T16:39:59Z</time>
      </trkpt>
      <trkpt lat="44.92503" lon="2.93552">
        <ele>900</ele>
        <time>2019-01-08T16:40:59Z</time>
      </trkpt>
      <trkpt lat="44.92691" lon="2.93556">
        <ele>898</ele>
        <time>2019-01-08T16:41:59Z</time>
      </trkpt>
      <trkpt lat="44.92618" lon="2.93741">
        <ele>895</ele>
        <time>2019-01-08T16:42:59Z</time>
      </trkpt>
      <trkpt lat="44.92536" lon="2.94024">
        <ele>897</ele>
        <time>2019-01-08T16:43:59Z</time>
      </trkpt>
      <trkpt lat="44.92494" lon="2.94157">
        <ele>894</ele>
        <time>2019-01-08T16:44:59Z</time>
      </trkpt>
      <trkpt lat="44.92594" lon="2.94273">
        <ele>906</ele>
        <time>2019-01-08T16:45:59Z</time>
      </trkpt>
      <trkpt lat="44.92552" lon="2.94337">
        <ele>904</ele>
        <time>2019-01-08T16:46:59Z</time>
      </trkpt>
      <trkpt lat="44.92518" lon="2.94431">
        <ele>902</ele>
        <time>2019-01-08T16:47:59Z</time>
      </trkpt>
      <trkpt lat="44.92579" lon="2.94577">
        <ele>900</ele>
        <time>2019-01-08T16:48:59Z</time>
      </trkpt>
      <trkpt lat="44.92609" lon="2.94676">
        <ele>892</ele>
        <time>2019-01-08T16:49:59Z</time>
      </trkpt>
      <trkpt lat="44.92716" lon="2.94728">
        <ele>906</ele>
        <time>2019-01-08T16:50:59Z</time>
      </trkpt>
      <trkpt lat="44.92762" lon="2.94814">
        <ele>890</ele>
        <time>2019-01-08T16:51:59Z</time>
      </trkpt>
      <trkpt lat="44.92843" lon="2.94841">
        <ele>899</ele>
        <time>2019-01-08T16:52:59Z</time>
      </trkpt>
      <trkpt lat="44.92877" lon="2.94867">
        <ele>894</ele>
        <time>2019-01-08T16:53:59Z</time>
      </trkpt>
      <trkpt lat="44.92911" lon="2.94864">
        <ele>897</ele>
        <time>2019-01-08T16:54:59Z</time>
      </trkpt>
      <trkpt lat="44.92948" lon="2.94837">
        <ele>904</ele>
        <time>2019-01-08T16:55:59Z</time>
      </trkpt>
      <trkpt lat="44.92977" lon="2.94865">
        <ele>896</ele>
        <time>2019-01-08T16:56:59Z</time>
      </trkpt>
      <trkpt lat="44.92985" lon="2.949">
        <ele>887</ele>
        <time>2019-01-08T16:57:59Z</time>
      </trkpt>
      <trkpt lat="44.93044" lon="2.94887">
        <ele>890</ele>
        <time>2019-01-08T16:58:59Z</time>
      </trkpt>
      <trkpt lat="44.93086" lon="2.94862">
        <ele>893</ele>
        <time>2019-01-08T16:59:59Z</time>
      </trkpt>
      <trkpt lat="44.93103" lon="2.94793">
        <ele>893</ele>
        <time>2019-01-08T17:00:59Z</time>
      </trkpt>
      <trkpt lat="44.93115" lon="2.94714">
        <ele>895</ele>
        <time>2019-01-08T17:01:59Z</time>
      </trkpt>
      <trkpt lat="44.93154" lon="2.94671">
        <ele>892</ele>
        <time>2019-01-08T17:02:59Z</time>
      </trkpt>
      <trkpt lat="44.93189" lon="2.94642">
        <ele>889</ele>
        <time>2019-01-08T17:03:59Z</time>
      </trkpt>
      <trkpt lat="44.93219" lon="2.94591">
        <ele>892</ele>
        <time>2019-01-08T17:04:59Z</time>
      </trkpt>
      <trkpt lat="44.93244" lon="2.94539">
        <ele>897</ele>
        <time>2019-01-08T17:05:59Z</time>
      </trkpt>
      <trkpt lat="44.93302" lon="2.94545">
        <ele>888</ele>
        <time>2019-01-08T17:06:59Z</time>
      </trkpt>
      <trkpt lat="44.93344" lon="2.94503">
        <ele>898</ele>
        <time>2019-01-08T17:07:59Z</time>
      </trkpt>
      <trkpt lat="44.93383" lon="2.94503">
        <ele>896</ele>
        <time>2019-01-08T17:08:59Z</time>
      </trkpt>
      <trkpt lat="44.93413" lon="2.94565">
        <ele>884</ele>
        <time>2019-01-08T17:09:59Z</time>
      </trkpt>
      <trkpt lat="44.93445" lon="2.94604">
        <ele>878</ele>
        <time>2019-01-08T17:10:59Z</time>
      </trkpt>
      <trkpt lat="44.93484" lon="2.94597">
        <ele>883</ele>
        <time>2019-01-08T17:11:59Z</time>
      </trkpt>
      <trkpt lat="44.935" lon="2.94553">
        <ele>891</ele>
        <time>2019-01-08T17:12:59Z</time>
      </trkpt>
      <trkpt lat="44.9353" lon="2.94509">
        <ele>894</ele>
        <time>2019-01-08T17:13:59Z</time>
      </trkpt>
      <trkpt lat="44.93563" lon="2.94529">
        <ele>889</ele>
        <time>2019-01-08T17:14:59Z</time>
      </trkpt>
      <trkpt lat="44.93559" lon="2.9458">
        <ele>886</ele>
        <time>2019-01-08T17:15:59Z</time>
      </trkpt>
      <trkpt lat="44.93544" lon="2.94627">
        <ele>883</ele>
        <time>2019-01-08T17:16:59Z</time>
      </trkpt>
      <trkpt lat="44.93542" lon="2.94694">
        <ele>876</ele>
        <time>2019-01-08T17:17:59Z</time>
      </trkpt>
      <trkpt lat="44.93565" lon="2.94741">
        <ele>874</ele>
        <time>2019-01-08T17:18:59Z</time>
      </trkpt>
      <trkpt lat="44.93606" lon="2.94765">
        <ele>876</ele>
        <time>2019-01-08T17:19:59Z</time>
      </trkpt>
      <trkpt lat="44.93645" lon="2.94724">
        <ele>883</ele>
        <time>2019-01-08T17:20:59Z</time>
      </trkpt>
      <trkpt lat="44.93705" lon="2.94694">
        <ele>885</ele>
        <time>2019-01-08T17:21:59Z</time>
      </trkpt>
      <trkpt lat="44.93789" lon="2.94692">
        <ele>883</ele>
        <time>2019-01-08T17:22:59Z</time>
      </trkpt>
      <trkpt lat="44.9386" lon="2.94712">
        <ele>885</ele>
        <time>2019-01-08T17:23:59Z</time>
      </trkpt>
      <trkpt lat="44.93915" lon="2.94735">
        <ele>888</ele>
        <time>2019-01-08T17:24:59Z</time>
      </trkpt>
      <trkpt lat="44.93957" lon="2.94782">
        <ele>888</ele>
        <time>2019-01-08T17:25:59Z</time>
      </trkpt>
      <trkpt lat="44.94005" lon="2.94808">
        <ele>888</ele>
        <time>2019-01-08T17:26:59Z</time>
      </trkpt>
      <trkpt lat="44.94099" lon="2.94821">
        <ele>887</ele>
        <time>2019-01-08T17:27:59Z</time>
      </trkpt>
      <trkpt lat="44.94134" lon="2.94791">
        <ele>889</ele>
        <time>2019-01-08T17:28:59Z</time>
      </trkpt>
      <trkpt lat="44.94199" lon="2.94689">
        <ele>893</ele>
        <time>2019-01-08T17:29:59Z</time>
      </trkpt>
      <trkpt lat="44.94348" lon="2.9451">
        <ele>898</ele>
        <time>2019-01-08T17:30:59Z</time>
      </trkpt>
      <trkpt lat="44.94568" lon="2.94176">
        <ele>909</ele>
        <time>2019-01-08T17:31:59Z</time>
      </trkpt>
      <trkpt lat="44.9461" lon="2.93988">
        <ele>919</ele>
        <time>2019-01-08T17:32:59Z</time>
      </trkpt>
      <trkpt lat="44.94782" lon="2.93721">
        <ele>920</ele>
        <time>2019-01-08T17:33:59Z</time>
      </trkpt>
      <trkpt lat="44.94924" lon="2.93575">
        <ele>902</ele>
        <time>2019-01-08T17:34:59Z</time>
      </trkpt>
      <trkpt lat="44.95096" lon="2.93472">
        <ele>892</ele>
        <time>2019-01-08T17:35:59Z</time>
      </trkpt>
      <trkpt lat="44.953" lon="2.93474">
        <ele>879</ele>
        <time>2019-01-08T17:36:59Z</time>
      </trkpt>
      <trkpt lat="44.9518" lon="2.93612">
        <ele>876</ele>
        <time>2019-01-08T17:37:59Z</time>
      </trkpt>
      <trkpt lat="44.95142" lon="2.93785">
        <ele>885</ele>
        <time>2019-01-08T17:38:59Z</time>
      </trkpt>
      <trkpt lat="44.95147" lon="2.93929">
        <ele>901</ele>
        <time>2019-01-08T17:39:59Z</time>
      </trkpt>
      <trkpt lat="44.95099" lon="2.94066">
        <ele>904</ele>
        <time>2019-01-08T17:40:59Z</time>
      </trkpt>
      <trkpt lat="44.94887" lon="2.94348">
        <ele>920</ele>
        <time>2019-01-08T17:41:59Z</time>
      </trkpt>
      <trkpt lat="44.94797" lon="2.94416">
        <ele>918</ele>
        <time>2019-01-08T17:42:59Z</time>
      </trkpt>
      <trkpt lat="44.94713" lon="2.94615">
        <ele>936</ele>
        <time>2019-01-08T17:43:59Z</time>
      </trkpt>
      <trkpt lat="44.94583" lon="2.94849">
        <ele>935</ele>
        <time>2019-01-08T17:44:59Z</time>
      </trkpt>
      <trkpt lat="44.9447" lon="2.95221">
        <ele>947</ele>
        <time>2019-01-08T17:45:59Z</time>
      </trkpt>
      <trkpt lat="44.94406" lon="2.95409">
        <ele>957</ele>
        <time>2019-01-08T17:46:59Z</time>
      </trkpt>
      <trkpt lat="44.94325" lon="2.95521">
        <ele>952</ele>
        <time>2019-01-08T17:47:59Z</time>
      </trkpt>
      <trkpt lat="44.94345" lon="2.95651">
        <ele>952</ele>
        <time>2019-01-08T17:48:59Z</time>
      </trkpt>
      <trkpt lat="44.94503" lon="2.95766">
        <ele>964</ele>
        <time>2019-01-08T17:49:59Z</time>
      </trkpt>
      <trkpt lat="44.94662" lon="2.95827">
        <ele>973</ele>
        <time>2019-01-08T17:50:59Z</time>
      </trkpt>
      <trkpt lat="44.94736" lon="2.95881">
        <ele>978</ele>
        <time>2019-01-08T17:51:59Z</time>
      </trkpt>
      <trkpt lat="44.94675" lon="2.95928">
        <ele>979</ele>
        <time>2019-01-08T17:52:59Z</time>
      </trkpt>
      <trkpt lat="44.9459" lon="2.95961">
        <ele>980</ele>
        <time>2019-01-08T17:53:59Z</time>
      </trkpt>
      <trkpt lat="44.94468" lon="2.96044">
        <ele>982</ele>
        <time>2019-01-08T17:54:59Z</time>
      </trkpt>
      <trkpt lat="44.94343" lon="2.96141">
        <ele>987</ele>
        <time>2019-01-08T17:55:59Z</time>
      </trkpt>
      <trkpt lat="44.94205" lon="2.96253">
        <ele>994</ele>
        <time>2019-01-08T17:56:59Z</time>
      </trkpt>
      <trkpt lat="44.93987" lon="2.96354">
        <ele>998</ele>
        <time>2019-01-08T17:57:59Z</time>
      </trkpt>
      <trkpt lat="44.93783" lon="2.96538">
        <ele>992</ele>
        <time>2019-01-08T17:58:59Z</time>
      </trkpt>
      <trkpt lat="44.93645" lon="2.96715">
        <ele>983</ele>
        <time>2019-01-08T17:59:59Z</time>
      </trkpt>
      <trkpt lat="44.93592" lon="2.96957">
        <ele>972</ele>
        <time>2019-01-08T18:00:59Z</time>
      </trkpt>
      <trkpt lat="44.93293" lon="2.9735">
        <ele>965</ele>
        <time>2019-01-08T18:01:59Z</time>
      </trkpt>
      <trkpt lat="44.93242" lon="2.9743">
        <ele>959</ele>
        <time>2019-01-08T18:02:59Z</time>
      </trkpt>
      <trkpt lat="44.93139" lon="2.97534">
        <ele>953</ele>
        <time>2019-01-08T18:03:59Z</time>
      </trkpt>
      <trkpt lat="44.93035" lon="2.97736">
        <ele>940</ele>
        <time>2019-01-08T18:04:59Z</time>
      </trkpt>
      <trkpt lat="44.92927" lon="2.97848">
        <ele>937</ele>
        <time>2019-01-08T18:05:59Z</time>
      </trkpt>
      <trkpt lat="44.92889" lon="2.97971">
        <ele>932</ele>
        <time>2019-01-08T18:06:59Z</time>
      </trkpt>
      <trkpt lat="44.92825" lon="2.98083">
        <ele>932</ele>
        <time>2019-01-08T18:07:59Z</time>
      </trkpt>
      <trkpt lat="44.92782" lon="2.9826">
        <ele>935</ele>
        <time>2019-01-08T18:08:59Z</time>
      </trkpt>
      <trkpt lat="44.92789" lon="2.98368">
        <ele>935</ele>
        <time>2019-01-08T18:09:59Z</time>
      </trkpt>
      <trkpt lat="44.92807" lon="2.98505">
        <ele>935</ele>
        <time>2019-01-08T18:10:59Z</time>
      </trkpt>
      <trkpt lat="44.92948" lon="2.98455">
        <ele>932</ele>
        <time>2019-01-08T18:11:59Z</time>
      </trkpt>
      <trkpt lat="44.92993" lon="2.98428">
        <ele>931</ele>
        <time>2019-01-08T18:12:59Z</time>
      </trkpt>
      <trkpt lat="44.93061" lon="2.98429">
        <ele>930</ele>
        <time>2019-01-08T18:13:59Z</time>
      </trkpt>
      <trkpt lat="44.93101" lon="2.98482">
        <ele>927</ele>
        <time>2019-01-08T18:14:59Z</time>
      </trkpt>
      <trkpt lat="44.93107" lon="2.98525">
        <ele>927</ele>
        <time>2019-01-08T18:15:59Z</time>
      </trkpt>
      <trkpt lat="44.93091" lon="2.98589">
        <ele>927</ele>
        <time>2019-01-08T18:16:59Z</time>
      </trkpt>
      <trkpt lat="44.93077" lon="2.98653">
        <ele>929</ele>
        <time>2019-01-08T18:17:59Z</time>
      </trkpt>
      <trkpt lat="44.93065" lon="2.98739">
        <ele>930</ele>
        <time>2019-01-08T18:18:59Z</time>
      </trkpt>
      <trkpt lat="44.93082" lon="2.98816">
        <ele>930</ele>
        <time>2019-01-08T18:19:59Z</time>
      </trkpt>
      <trkpt lat="44.93116" lon="2.98856">
        <ele>935</ele>
        <time>2019-01-08T18:20:59Z</time>
      </trkpt>
      <trkpt lat="44.93157" lon="2.98921">
        <ele>935</ele>
        <time>2019-01-08T18:21:59Z</time>
      </trkpt>
      <trkpt lat="44.93148" lon="2.98981">
        <ele>937</ele>
        <time>2019-01-08T18:22:59Z</time>
      </trkpt>
      <trkpt lat="44.93061" lon="2.99053">
        <ele>937</ele>
        <time>2019-01-08T18:23:59Z</time>
      </trkpt>
      <trkpt lat="44.93003" lon="2.99116">
        <ele>936</ele>
        <time>2019-01-08T18:24:59Z</time>
      </trkpt>
      <trkpt lat="44.92967" lon="2.99215">
        <ele>939</ele>
        <time>2019-01-08T18:25:59Z</time>
      </trkpt>
      <trkpt lat="44.92975" lon="2.99331">
        <ele>941</ele>
        <time>2019-01-08T18:26:59Z</time>
      </trkpt>
      <trkpt lat="44.92987" lon="2.99408">
        <ele>944</ele>
        <time>2019-01-08T18:27:59Z</time>
      </trkpt>
      <trkpt lat="44.92972" lon="2.99483">
        <ele>945</ele>
        <time>2019-01-08T18:28:59Z</time>
      </trkpt>
      <trkpt lat="44.92906" lon="2.99541">
        <ele>943</ele>
        <time>2019-01-08T18:29:59Z</time>
      </trkpt>
      <trkpt lat="44.92845" lon="2.99579">
        <ele>945</ele>
        <time>2019-01-08T18:30:59Z</time>
      </trkpt>
      <trkpt lat="44.92809" lon="2.99657">
        <ele>945</ele>
        <time>2019-01-08T18:31:59Z</time>
      </trkpt>
      <trkpt lat="44.92802" lon="2.99727">
        <ele>943</ele>
        <time>2019-01-08T18:32:59Z</time>
      </trkpt>
      <trkpt lat="44.92848" lon="2.99806">
        <ele>940</ele>
        <time>2019-01-08T18:33:59Z</time>
      </trkpt>
      <trkpt lat="44.92773" lon="2.99885">
        <ele>936</ele>
        <time>2019-01-08T18:34:59Z</time>
      </trkpt>
      <trkpt lat="44.92651" lon="3.00036">
        <ele>924</ele>
        <time>2019-01-08T18:35:59Z</time>
      </trkpt>
      <trkpt lat="44.92591" lon="3.00105">
        <ele>918</ele>
        <time>2019-01-08T18:36:59Z</time>
      </trkpt>
      <trkpt lat="44.92619" lon="3.00117">
        <ele>915</ele>
        <time>2019-01-08T18:37:59Z</time>
      </trkpt>
      <trkpt lat="44.92695" lon="3.00092">
        <ele>917</ele>
        <time>2019-01-08T18:38:59Z</time>
      </trkpt>
      <trkpt lat="44.92787" lon="3.00097">
        <ele>913</ele>
        <time>2019-01-08T18:39:59Z</time>
      </trkpt>
      <trkpt lat="44.9279" lon="3.00149">
        <ele>910</ele>
        <time>2019-01-08T18:40:59Z</time>
      </trkpt>
      <trkpt lat="44.92782" lon="3.00245">
        <ele>908</ele>
        <time>2019-01-08T18:41:59Z</time>
      </trkpt>
      <trkpt lat="44.92743" lon="3.00357">
        <ele>905</ele>
        <time>2019-01-08T18:42:59Z</time>
      </trkpt>
      <trkpt lat="44.92735" lon="3.00517">
        <ele>908</ele>
        <time>2019-01-08T18:43:59Z</time>
      </trkpt>
      <trkpt lat="44.92745" lon="3.0063">
        <ele>910</ele>
        <time>2019-01-08T18:44:59Z</time>
      </trkpt>
      <trkpt lat="44.92734" lon="3.00734">
        <ele>909</ele>
        <time>2019-01-08T18:45:59Z</time>
      </trkpt>
      <trkpt lat="44.92826" lon="3.00826">
        <ele>914</ele>
        <time>2019-01-08T18:46:59Z</time>
      </trkpt>
      <trkpt lat="44.92895" lon="3.00921">
        <ele>918</ele>
        <time>2019-01-08T18:47:59Z</time>
      </trkpt>
      <trkpt lat="44.92942" lon="3.00988">
        <ele>921</ele>
        <time>2019-01-08T18:48:59Z</time>
      </trkpt>
      <trkpt lat="44.92965" lon="3.01046">
        <ele>920</ele>
        <time>2019-01-08T18:49:59Z</time>
      </trkpt>
      <trkpt lat="44.93008" lon="3.01059">
        <ele>928</ele>
        <time>2019-01-08T18:50:59Z</time>
      </trkpt>
      <trkpt lat="44.92982" lon="3.01248">
        <ele>929</ele>
        <time>2019-01-08T18:51:59Z</time>
      </trkpt>
      <trkpt lat="44.92987" lon="3.01354">
        <ele>932</ele>
        <time>2019-01-08T18:52:59Z</time>
      </trkpt>
      <trkpt lat="44.93001" lon="3.01405">
        <ele>933</ele>
        <time>2019-01-08T18:53:59Z</time>
      </trkpt>
      <trkpt lat="44.93042" lon="3.01467">
        <ele>937</ele>
        <time>2019-01-08T18:54:59Z</time>
      </trkpt>
      <trkpt lat="44.93059" lon="3.0152">
        <ele>938</ele>
        <time>2019-01-08T18:55:59Z</time>
      </trkpt>
      <trkpt lat="44.9304" lon="3.01568">
        <ele>938</ele>
        <time>2019-01-08T18:56:59Z</time>
      </trkpt>
      <trkpt lat="44.92978" lon="3.01654">
        <ele>942</ele>
        <time>2019-01-08T18:57:59Z</time>
      </trkpt>
      <trkpt lat="44.92953" lon="3.01703">
        <ele>942</ele>
        <time>2019-01-08T18:58:59Z</time>
      </trkpt>
      <trkpt lat="44.92939" lon="3.01772">
        <ele>941</ele>
        <time>2019-01-08T18:59:59Z</time>
      </trkpt>
      <trkpt lat="44.92952" lon="3.01874">
        <ele>938</ele>
        <time>2019-01-08T19:00:59Z</time>
      </trkpt>
      <trkpt lat="44.93004" lon="3.01984">
        <ele>938</ele>
        <time>2019-01-08T19:01:59Z</time>
      </trkpt>
      <trkpt lat="44.93034" lon="3.02016">
        <ele>936</ele>
        <time>2019-01-08T19:02:59Z</time>
      </trkpt>
      <trkpt lat="44.93077" lon="3.02017">
        <ele>938</ele>
        <time>2019-01-08T19:03:59Z</time>
      </trkpt>
      <trkpt lat="44.93108" lon="3.02085">
        <ele>937</ele>
        <time>2019-01-08T19:04:59Z</time>
      </trkpt>
      <trkpt lat="44.9314" lon="3.02166">
        <ele>939</ele>
        <time>2019-01-08T19:05:59Z</time>
      </trkpt>
      <trkpt lat="44.93162" lon="3.02239">
        <ele>940</ele>
        <time>2019-01-08T19:06:59Z</time>
      </trkpt>
      <trkpt lat="44.93188" lon="3.02318">
        <ele>942</ele>
        <time>2019-01-08T19:07:59Z</time>
      </trkpt>
      <trkpt lat="44.93218" lon="3.02419">
        <ele>942</ele>
        <time>2019-01-08T19:08:59Z</time>
      </trkpt>
      <trkpt lat="44.93297" lon="3.02472">
        <ele>942</ele>
        <time>2019-01-08T19:09:59Z</time>
      </trkpt>
      <trkpt lat="44.93408" lon="3.02579">
        <ele>940</ele>
        <time>2019-01-08T19:10:59Z</time>
      </trkpt>
      <trkpt lat="44.9354" lon="3.02709">
        <ele>928</ele>
        <time>2019-01-08T19:11:59Z</time>
      </trkpt>
      <trkpt lat="44.93567" lon="3.02699">
        <ele>931</ele>
        <time>2019-01-08T19:12:59Z</time>
      </trkpt>
      <trkpt lat="44.93581" lon="3.02644">
        <ele>934</ele>
        <time>2019-01-08T19:13:59Z</time>
      </trkpt>
      <trkpt lat="44.93591" lon="3.02605">
        <ele>934</ele>
        <time>2019-01-08T19:14:59Z</time>
      </trkpt>
      <trkpt lat="44.93619" lon="3.02613">
        <ele>934</ele>
        <time>2019-01-08T19:15:59Z</time>
      </trkpt>
      <trkpt lat="44.93672" lon="3.02795">
        <ele>930</ele>
        <time>2019-01-08T19:16:59Z</time>
      </trkpt>
      <trkpt lat="44.93703" lon="3.02848">
        <ele>932</ele>
        <time>2019-01-08T19:17:59Z</time>
      </trkpt>
      <trkpt lat="44.93761" lon="3.0287">
        <ele>941</ele>
        <time>2019-01-08T19:18:59Z</time>
      </trkpt>
      <trkpt lat="44.93794" lon="3.02943">
        <ele>942</ele>
        <time>2019-01-08T19:19:59Z</time>
      </trkpt>
      <trkpt lat="44.93805" lon="3.03019">
        <ele>941</ele>
        <time>2019-01-08T19:20:59Z</time>
      </trkpt>
      <trkpt lat="44.93808" lon="3.03094">
        <ele>941</ele>
        <time>2019-01-08T19:21:59Z</time>
      </trkpt>
      <trkpt lat="44.93778" lon="3.03222">
        <ele>943</ele>
        <time>2019-01-08T19:22:59Z</time>
      </trkpt>
      <trkpt lat="44.93745" lon="3.0332">
        <ele>942</ele>
        <time>2019-01-08T19:23:59Z</time>
      </trkpt>
      <trkpt lat="44.93722" lon="3.03474">
        <ele>943</ele>
        <time>2019-01-08T19:24:59Z</time>
      </trkpt>
      <trkpt lat="44.93733" lon="3.03577">
        <ele>943</ele>
        <time>2019-01-08T19:25:59Z</time>
      </trkpt>
      <trkpt lat="44.93757" lon="3.03736">
        <ele>943</ele>
        <time>2019-01-08T19:26:59Z</time>
      </trkpt>
      <trkpt lat="44.93758" lon="3.03854">
        <ele>944</ele>
        <time>2019-01-08T19:27:59Z</time>
      </trkpt>
      <trkpt lat="44.93725" lon="3.03952">
        <ele>950</ele>
        <time>2019-01-08T19:28:59Z</time>
      </trkpt>
      <trkpt lat="44.93702" lon="3.04054">
        <ele>956</ele>
        <time>2019-01-08T19:29:59Z</time>
      </trkpt>
      <trkpt lat="44.93685" lon="3.04086">
        <ele>957</ele>
        <time>2019-01-08T19:30:59Z</time>
      </trkpt>
      <trkpt lat="44.93634" lon="3.04095">
        <ele>959</ele>
        <time>2019-01-08T19:31:59Z</time>
      </trkpt>
      <trkpt lat="44.93578" lon="3.04177">
        <ele>966</ele>
        <time>2019-01-08T19:32:59Z</time>
      </trkpt>
      <trkpt lat="44.93559" lon="3.04233">
        <ele>968</ele>
        <time>2019-01-08T19:33:59Z</time>
      </trkpt>
      <trkpt lat="44.93455" lon="3.04141">
        <ele>966</ele>
        <time>2019-01-08T19:34:59Z</time>
      </trkpt>
      <trkpt lat="44.93436" lon="3.04163">
        <ele>965</ele>
        <time>2019-01-08T19:35:59Z</time>
      </trkpt>
      <trkpt lat="44.93444" lon="3.04244">
        <ele>963</ele>
        <time>2019-01-08T19:36:59Z</time>
      </trkpt>
      <trkpt lat="44.93432" lon="3.04297">
        <ele>960</ele>
        <time>2019-01-08T19:37:59Z</time>
      </trkpt>
      <trkpt lat="44.93447" lon="3.04374">
        <ele>961</ele>
        <time>2019-01-08T19:38:59Z</time>
      </trkpt>
      <trkpt lat="44.93404" lon="3.04501">
        <ele>959</ele>
        <time>2019-01-08T19:39:59Z</time>
      </trkpt>
      <trkpt lat="44.93359" lon="3.04765">
        <ele>961</ele>
        <time>2019-01-08T19:40:59Z</time>
      </trkpt>
      <trkpt lat="44.93366" lon="3.0489">
        <ele>957</ele>
        <time>2019-01-08T19:41:59Z</time>
      </trkpt>
      <trkpt lat="44.9339" lon="3.04955">
        <ele>955</ele>
        <time>2019-01-08T19:42:59Z</time>
      </trkpt>
      <trkpt lat="44.93467" lon="3.0502">
        <ele>956</ele>
        <time>2019-01-08T19:43:59Z</time>
      </trkpt>
      <trkpt lat="44.93506" lon="3.05102">
        <ele>954</ele>
        <time>2019-01-08T19:44:59Z</time>
      </trkpt>
      <trkpt lat="44.93591" lon="3.05174">
        <ele>953</ele>
        <time>2019-01-08T19:45:59Z</time>
      </trkpt>
      <trkpt lat="44.93676" lon="3.05206">
        <ele>950</ele>
        <time>2019-01-08T19:46:59Z</time>
      </trkpt>
      <trkpt lat="44.93711" lon="3.05243">
        <ele>948</ele>
        <time>2019-01-08T19:47:59Z</time>
      </trkpt>
      <trkpt lat="44.93748" lon="3.0532">
        <ele>945</ele>
        <time>2019-01-08T19:48:59Z</time>
      </trkpt>
      <trkpt lat="44.93789" lon="3.054">
        <ele>939</ele>
        <time>2019-01-08T19:49:59Z</time>
      </trkpt>
      <trkpt lat="44.93843" lon="3.05548">
        <ele>936</ele>
        <time>2019-01-08T19:50:59Z</time>
      </trkpt>
      <trkpt lat="44.93907" lon="3.05707">
        <ele>932</ele>
        <time>2019-01-08T19:51:59Z</time>
      </trkpt>
      <trkpt lat="44.93937" lon="3.05794">
        <ele>930</ele>
        <time>2019-01-08T19:52:59Z</time>
      </trkpt>
      <trkpt lat="44.93979" lon="3.05934">
        <ele>927</ele>
        <time>2019-01-08T19:53:59Z</time>
      </trkpt>
      <trkpt lat="44.94045" lon="3.06088">
        <ele>923</ele>
        <time>2019-01-08T19:54:59Z</time>
      </trkpt>
      <trkpt lat="44.94081" lon="3.06154">
        <ele>924</ele>
        <time>2019-01-08T19:55:59Z</time>
      </trkpt>
      <trkpt lat="44.94135" lon="3.06238">
        <ele>924</ele>
        <time>2019-01-08T19:56:59Z</time>
      </trkpt>
      <trkpt lat="44.94224" lon="3.06373">
        <ele>921</ele>
        <time>2019-01-08T19:57:59Z</time>
      </trkpt>
      <trkpt lat="44.94266" lon="3.06445">
        <ele>920</ele>
        <time>2019-01-08T19:58:59Z</time>
      </trkpt>
      <trkpt lat="44.94342" lon="3.06575">
        <ele>924</ele>
        <time>2019-01-08T19:59:59Z</time>
      </trkpt>
      <trkpt lat="44.94402" lon="3.06773">
        <ele>927</ele>
        <time>2019-01-08T20:00:59Z</time>
      </trkpt>
      <trkpt lat="44.94418" lon="3.06848">
        <ele>927</ele>
        <time>2019-01-08T20:01:59Z</time>
      </trkpt>
      <trkpt lat="44.94421" lon="3.06963">
        <ele>928</ele>
        <time>2019-01-08T20:02:59Z</time>
      </trkpt>
      <trkpt lat="44.94426" lon="3.07064">
        <ele>927</ele>
        <time>2019-01-08T20:03:59Z</time>
      </trkpt>
      <trkpt lat="44.94386" lon="3.07201">
        <ele>926</ele>
        <time>2019-01-08T20:04:59Z</time>
      </trkpt>
      <trkpt lat="44.94334" lon="3.07322">
        <ele>925</ele>
        <time>2019-01-08T20:05:59Z</time>
      </trkpt>
      <trkpt lat="44.94282" lon="3.07414">
        <ele>925</ele>
        <time>2019-01-08T20:06:59Z</time>
      </trkpt>
      <trkpt lat="44.94243" lon="3.07486">
        <ele>927</ele>
        <time>2019-01-08T20:07:59Z</time>
      </trkpt>
      <trkpt lat="44.94233" lon="3.07589">
        <ele>931</ele>
        <time>2019-01-08T20:08:59Z</time>
      </trkpt>
      <trkpt lat="44.94243" lon="3.0782">
        <ele>931</ele>
        <time>2019-01-08T20:09:59Z</time>
      </trkpt>
      <trkpt lat="44.94252" lon="3.07936">
        <ele>933</ele>
        <time>2019-01-08T20:10:59Z</time>
      </trkpt>
      <trkpt lat="44.94274" lon="3.08004">
        <ele>931</ele>
        <time>2019-01-08T20:11:59Z</time>
      </trkpt>
      <trkpt lat="44.9428" lon="3.08181">
        <ele>926</ele>
        <time>2019-01-08T20:12:59Z</time>
      </trkpt>
      <trkpt lat="44.94242" lon="3.08275">
        <ele>923</ele>
        <time>2019-01-08T20:13:59Z</time>
      </trkpt>
      <trkpt lat="44.94233" lon="3.08361">
        <ele>921</ele>
        <time>2019-01-08T20:14:59Z</time>
      </trkpt>
      <trkpt lat="44.94219" lon="3.08443">
        <ele>918</ele>
        <time>2019-01-08T20:15:59Z</time>
      </trkpt>
      <trkpt lat="44.94247" lon="3.08493">
        <ele>917</ele>
        <time>2019-01-08T20:16:59Z</time>
      </trkpt>
      <trkpt lat="44.94298" lon="3.08522">
        <ele>914</ele>
        <time>2019-01-08T20:17:59Z</time>
      </trkpt>
      <trkpt lat="44.94375" lon="3.08513">
        <ele>911</ele>
        <time>2019-01-08T20:18:59Z</time>
      </trkpt>
      <trkpt lat="44.94425" lon="3.08553">
        <ele>905</ele>
        <time>2019-01-08T20:19:59Z</time>
      </trkpt>
      <trkpt lat="44.94496" lon="3.08656">
        <ele>896</ele>
        <time>2019-01-08T20:20:59Z</time>
      </trkpt>
      <trkpt lat="44.94597" lon="3.08773">
        <ele>894</ele>
        <time>2019-01-08T20:21:59Z</time>
      </trkpt>
      <trkpt lat="44.94691" lon="3.08834">
        <ele>893</ele>
        <time>2019-01-08T20:22:59Z</time>
      </trkpt>
      <trkpt lat="44.94835" lon="3.08926">
        <ele>891</ele>
        <time>2019-01-08T20:23:59Z</time>
      </trkpt>
      <trkpt lat="44.94969" lon="3.08998">
        <ele>880</ele>
        <time>2019-01-08T20:24:59Z</time>
      </trkpt>
      <trkpt lat="44.95043" lon="3.0904">
        <ele>879</ele>
        <time>2019-01-08T20:25:59Z</time>
      </trkpt>
      <trkpt lat="44.95045" lon="3.09144">
        <ele>868</ele>
        <time>2019-01-08T20:26:59Z</time>
      </trkpt>
      <trkpt lat="44.95094" lon="3.09247">
        <ele>859</ele>
        <time>2019-01-08T20:27:59Z</time>
      </trkpt>
      <trkpt lat="44.95123" lon="3.09314">
        <ele>855</ele>
        <time>2019-01-08T20:28:59Z</time>
      </trkpt>
      <trkpt lat="44.95163" lon="3.09439">
        <ele>847</ele>
        <time>2019-01-08T20:29:59Z</time>
      </trkpt>
      <trkpt lat="44.9522" lon="3.09514">
        <ele>837</ele>
        <time>2019-01-08T20:30:59Z</time>
      </trkpt>
      <trkpt lat="44.95246" lon="3.09552">
        <ele>828</ele>
        <time>2019-01-08T20:31:59Z</time>
      </trkpt>
      <trkpt lat="44.95312" lon="3.09507">
        <ele>826</ele>
        <time>2019-01-08T20:32:59Z</time>
      </trkpt>
      <trkpt lat="44.95389" lon="3.09462">
        <ele>812</ele>
        <time>2019-01-08T20:33:59Z</time>
      </trkpt>
      <trkpt lat="44.95382" lon="3.09393">
        <ele>819</ele>
        <time>2019-01-08T20:34:59Z</time>
      </trkpt>
      <trkpt lat="44.95396" lon="3.09298">
        <ele>813</ele>
        <time>2019-01-08T20:35:59Z</time>
      </trkpt>
      <trkpt lat="44.95422" lon="3.09211">
        <ele>793</ele>
        <time>2019-01-08T20:36:59Z</time>
      </trkpt>
      <trkpt lat="44.95402" lon="3.09135">
        <ele>797</ele>
        <time>2019-01-08T20:37:59Z</time>
      </trkpt>
      <trkpt lat="44.95398" lon="3.09043">
        <ele>786</ele>
        <time>2019-01-08T20:38:59Z</time>
      </trkpt>
      <trkpt lat="44.95373" lon="3.08941">
        <ele>788</ele>
        <time>2019-01-08T20:39:59Z</time>
      </trkpt>
      <trkpt lat="44.95396" lon="3.08863">
        <ele>770</ele>
        <time>2019-01-08T20:40:59Z</time>
      </trkpt>
      <trkpt lat="44.95385" lon="3.08778">
        <ele>774</ele>
        <time>2019-01-08T20:41:59Z</time>
      </trkpt>
      <trkpt lat="44.95358" lon="3.08739">
        <ele>784</ele>
        <time>2019-01-08T20:42:59Z</time>
      </trkpt>
      <trkpt lat="44.95376" lon="3.08693">
        <ele>785</ele>
        <time>2019-01-08T20:43:59Z</time>
      </trkpt>
      <trkpt lat="44.95418" lon="3.08724">
        <ele>772</ele>
        <time>2019-01-08T20:44:59Z</time>
      </trkpt>
      <trkpt lat="44.9544" lon="3.08787">
        <ele>766</ele>
        <time>2019-01-08T20:45:59Z</time>
      </trkpt>
      <trkpt lat="44.95487" lon="3.08841">
        <ele>762</ele>
        <time>2019-01-08T20:46:59Z</time>
      </trkpt>
      <trkpt lat="44.95519" lon="3.08883">
        <ele>752</ele>
        <time>2019-01-08T20:47:59Z</time>
      </trkpt>
      <trkpt lat="44.95592" lon="3.08863">
        <ele>766</ele>
        <time>2019-01-08T20:48:59Z</time>
      </trkpt>
      <trkpt lat="44.95637" lon="3.08861">
        <ele>761</ele>
        <time>2019-01-08T20:49:59Z</time>
      </trkpt>
      <trkpt lat="44.95708" lon="3.08805">
        <ele>755</ele>
        <time>2019-01-08T20:50:59Z</time>
      </trkpt>
      <trkpt lat="44.95718" lon="3.08738">
        <ele>762</ele>
        <time>2019-01-08T20:51:59Z</time>
      </trkpt>
      <trkpt lat="44.95788" lon="3.08619">
        <ele>762</ele>
        <time>2019-01-08T20:52:59Z</time>
      </trkpt>
      <trkpt lat="44.95865" lon="3.08535">
        <ele>757</ele>
        <time>2019-01-08T20:53:59Z</time>
      </trkpt>
      <trkpt lat="44.95923" lon="3.08583">
        <ele>752</ele>
        <time>2019-01-08T20:54:59Z</time>
      </trkpt>
      <trkpt lat="44.95894" lon="3.0869">
        <ele>763</ele>
        <time>2019-01-08T20:55:59Z</time>
      </trkpt>
      <trkpt lat="44.95855" lon="3.08789">
        <ele>761</ele>
        <time>2019-01-08T20:56:59Z</time>
      </trkpt>
      <trkpt lat="44.958" lon="3.08871">
        <ele>755</ele>
        <time>2019-01-08T20:57:59Z</time>
      </trkpt>
      <trkpt lat="44.95771" lon="3.08944">
        <ele>756</ele>
        <time>2019-01-08T20:58:59Z</time>
      </trkpt>
      <trkpt lat="44.9574" lon="3.08992">
        <ele>756</ele>
        <time>2019-01-08T20:59:59Z</time>
      </trkpt>
      <trkpt lat="44.95741" lon="3.09009">
        <ele>759</ele>
        <time>2019-01-08T21:00:59Z</time>
      </trkpt>
      <trkpt lat="44.95762" lon="3.09015">
        <ele>761</ele>
        <time>2019-01-08T21:01:59Z</time>
      </trkpt>
      <trkpt lat="44.95764" lon="3.08993">
        <ele>759</ele>
        <time>2019-01-08T21:02:59Z</time>
      </trkpt>
      <trkpt lat="44.95787" lon="3.08947">
        <ele>760</ele>
        <time>2019-01-08T21:03:59Z</time>
      </trkpt>
      <trkpt lat="44.95862" lon="3.08852">
        <ele>774</ele>
        <time>2019-01-08T21:04:59Z</time>
      </trkpt>
      <trkpt lat="44.95892" lon="3.08809">
        <ele>783</ele>
        <time>2019-01-08T21:05:59Z</time>
      </trkpt>
      <trkpt lat="44.95954" lon="3.08688">
        <ele>794</ele>
        <time>2019-01-08T21:06:59Z</time>
      </trkpt>
      <trkpt lat="44.96004" lon="3.08581">
        <ele>802</ele>
        <time>2019-01-08T21:07:59Z</time>
      </trkpt>
      <trkpt lat="44.9603" lon="3.08493">
        <ele>805</ele>
        <time>2019-01-08T21:08:59Z</time>
      </trkpt>
      <trkpt lat="44.96054" lon="3.08367">
        <ele>808</ele>
        <time>2019-01-08T21:09:59Z</time>
      </trkpt>
      <trkpt lat="44.96075" lon="3.08312">
        <ele>815</ele>
        <time>2019-01-08T21:10:59Z</time>
      </trkpt>
      <trkpt lat="44.96116" lon="3.08296">
        <ele>835</ele>
        <time>2019-01-08T21:11:59Z</time>
      </trkpt>
      <trkpt lat="44.96117" lon="3.08275">
        <ele>835</ele>
        <time>2019-01-08T21:12:59Z</time>
      </trkpt>
      <trkpt lat="44.96082" lon="3.08215">
        <ele>828</ele>
        <time>2019-01-08T21:13:59Z</time>
      </trkpt>
      <trkpt lat="44.96048" lon="3.08158">
        <ele>827</ele>
        <time>2019-01-08T21:14:59Z</time>
      </trkpt>
      <trkpt lat="44.96022" lon="3.08101">
        <ele>828</ele>
        <time>2019-01-08T21:15:59Z</time>
      </trkpt>
      <trkpt lat="44.96001" lon="3.08008">
        <ele>839</ele>
        <time>2019-01-08T21:16:59Z</time>
      </trkpt>
      <trkpt lat="44.95981" lon="3.07934">
        <ele>836</ele>
        <time>2019-01-08T21:17:59Z</time>
      </trkpt>
      <trkpt lat="44.95966" lon="3.07896">
        <ele>827</ele>
        <time>2019-01-08T21:18:59Z</time>
      </trkpt>
      <trkpt lat="44.95962" lon="3.07867">
        <ele>823</ele>
        <time>2019-01-08T21:19:59Z</time>
      </trkpt>
      <trkpt lat="44.95991" lon="3.07856">
        <ele>832</ele>
        <time>2019-01-08T21:20:59Z</time>
      </trkpt>
      <trkpt lat="44.95997" lon="3.07878">
        <ele>839</ele>
        <time>2019-01-08T21:21:59Z</time>
      </trkpt>
      <trkpt lat="44.95993" lon="3.07918">
        <ele>845</ele>
        <time>2019-01-08T21:22:59Z</time>
      </trkpt>
      <trkpt lat="44.96017" lon="3.07981">
        <ele>849</ele>
        <time>2019-01-08T21:23:59Z</time>
      </trkpt>
      <trkpt lat="44.96061" lon="3.08062">
        <ele>855</ele>
        <time>2019-01-08T21:24:59Z</time>
      </trkpt>
      <trkpt lat="44.96126" lon="3.08177">
        <ele>858</ele>
        <time>2019-01-08T21:25:59Z</time>
      </trkpt>
      <trkpt lat="44.96208" lon="3.08259">
        <ele>872</ele>
        <time>2019-01-08T21:26:59Z</time>
      </trkpt>
      <trkpt lat="44.96194" lon="3.08342">
        <ele>870</ele>
        <time>2019-01-08T21:27:59Z</time>
      </trkpt>
      <trkpt lat="44.9617" lon="3.08394">
        <ele>871</ele>
        <time>2019-01-08T21:28:59Z</time>
      </trkpt>
      <trkpt lat="44.96167" lon="3.08465">
        <ele>876</ele>
        <time>2019-01-08T21:29:59Z</time>
      </trkpt>
      <trkpt lat="44.96181" lon="3.08518">
        <ele>879</ele>
        <time>2019-01-08T21:30:59Z</time>
      </trkpt>
      <trkpt lat="44.96198" lon="3.0855">
        <ele>881</ele>
        <time>2019-01-08T21:31:59Z</time>
      </trkpt>
      <trkpt lat="44.96217" lon="3.08593">
        <ele>880</ele>
        <time>2019-01-08T21:32:59Z</time>
      </trkpt>
      <trkpt lat="44.96266" lon="3.08609">
        <ele>880</ele>
        <time>2019-01-08T21:33:59Z</time>
      </trkpt>
      <trkpt lat="44.96307" lon="3.08606">
        <ele>879</ele>
        <time>2019-01-08T21:34:59Z</time>
      </trkpt>
      <trkpt lat="44.96343" lon="3.08596">
        <ele>880</ele>
        <time>2019-01-08T21:35:59Z</time>
      </trkpt>
      <trkpt lat="44.96364" lon="3.08622">
        <ele>881</ele>
        <time>2019-01-08T21:36:59Z</time>
      </trkpt>
      <trkpt lat="44.9632" lon="3.08663">
        <ele>875</ele>
        <time>2019-01-08T21:37:59Z</time>
      </trkpt>
      <trkpt lat="44.96289" lon="3.08725">
        <ele>876</ele>
        <time>2019-01-08T21:38:59Z</time>
      </trkpt>
      <trkpt lat="44.96269" lon="3.08808">
        <ele>882</ele>
        <time>2019-01-08T21:39:59Z</time>
      </trkpt>
      <trkpt lat="44.9623" lon="3.08805">
        <ele>876</ele>
        <time>2019-01-08T21:40:59Z</time>
      </trkpt>
      <trkpt lat="44.96179" lon="3.08823">
        <ele>871</ele>
        <time>2019-01-08T21:41:59Z</time>
      </trkpt>
      <trkpt lat="44.96159" lon="3.08922">
        <ele>878</ele>
        <time>2019-01-08T21:42:59Z</time>
      </trkpt>
      <trkpt lat="44.96137" lon="3.09019">
        <ele>877</ele>
        <time>2019-01-08T21:43:59Z</time>
      </trkpt>
      <trkpt lat="44.96132" lon="3.09066">
        <ele>877</ele>
        <time>2019-01-08T21:44:59Z</time>
      </trkpt>
      <trkpt lat="44.96168" lon="3.09093">
        <ele>888</ele>
        <time>2019-01-08T21:45:59Z</time>
      </trkpt>
      <trkpt lat="44.96185" lon="3.09131">
        <ele>892</ele>
        <time>2019-01-08T21:46:59Z</time>
      </trkpt>
      <trkpt lat="44.96169" lon="3.09184">
        <ele>891</ele>
        <time>2019-01-08T21:47:59Z</time>
      </trkpt>
      <trkpt lat="44.96124" lon="3.09236">
        <ele>883</ele>
        <time>2019-01-08T21:48:59Z</time>
      </trkpt>
      <trkpt lat="44.9612" lon="3.09316">
        <ele>886</ele>
        <time>2019-01-08T21:49:59Z</time>
      </trkpt>
      <trkpt lat="44.96167" lon="3.09404">
        <ele>894</ele>
        <time>2019-01-08T21:50:59Z</time>
      </trkpt>
      <trkpt lat="44.96203" lon="3.09465">
        <ele>893</ele>
        <time>2019-01-08T21:51:59Z</time>
      </trkpt>
      <trkpt lat="44.96266" lon="3.09504">
        <ele>909</ele>
        <time>2019-01-08T21:52:59Z</time>
      </trkpt>
      <trkpt lat="44.96313" lon="3.09604">
        <ele>910</ele>
        <time>2019-01-08T21:53:59Z</time>
      </trkpt>
      <trkpt lat="44.96359" lon="3.09685">
        <ele>915</ele>
        <time>2019-01-08T21:54:59Z</time>
      </trkpt>
      <trkpt lat="44.96429" lon="3.09745">
        <ele>920</ele>
        <time>2019-01-08T21:55:59Z</time>
      </trkpt>
      <trkpt lat="44.96521" lon="3.09903">
        <ele>930</ele>
        <time>2019-01-08T21:56:59Z</time>
      </trkpt>
      <trkpt lat="44.96584" lon="3.1005">
        <ele>934</ele>
        <time>2019-01-08T21:57:59Z</time>
      </trkpt>
      <trkpt lat="44.96587" lon="3.10167">
        <ele>932</ele>
        <time>2019-01-08T21:58:59Z</time>
      </trkpt>
      <trkpt lat="44.96619" lon="3.10267">
        <ele>931</ele>
        <time>2019-01-08T21:59:59Z</time>
      </trkpt>
      <trkpt lat="44.96605" lon="3.10357">
        <ele>930</ele>
        <time>2019-01-08T22:00:59Z</time>
      </trkpt>
      <trkpt lat="44.96562" lon="3.10521">
        <ele>935</ele>
        <time>2019-01-08T22:01:59Z</time>
      </trkpt>
      <trkpt lat="44.96512" lon="3.10587">
        <ele>937</ele>
        <time>2019-01-08T22:02:59Z</time>
      </trkpt>
      <trkpt lat="44.96512" lon="3.10635">
        <ele>939</ele>
        <time>2019-01-08T22:03:59Z</time>
      </trkpt>
      <trkpt lat="44.96575" lon="3.10716">
        <ele>942</ele>
        <time>2019-01-08T22:04:59Z</time>
      </trkpt>
      <trkpt lat="44.9665" lon="3.10892">
        <ele>937</ele>
        <time>2019-01-08T22:05:59Z</time>
      </trkpt>
      <trkpt lat="44.96716" lon="3.11037">
        <ele>925</ele>
        <time>2019-01-08T22:06:59Z</time>
      </trkpt>
      <trkpt lat="44.96758" lon="3.11059">
        <ele>924</ele>
        <time>2019-01-08T22:07:59Z</time>
      </trkpt>
      <trkpt lat="44.96776" lon="3.11116">
        <ele>921</ele>
        <time>2019-01-08T22:08:59Z</time>
      </trkpt>
      <trkpt lat="44.96866" lon="3.1115">
        <ele>922</ele>
        <time>2019-01-08T22:09:59Z</time>
      </trkpt>
      <trkpt lat="44.96935" lon="3.11223">
        <ele>916</ele>
        <time>2019-01-08T22:10:59Z</time>
      </trkpt>
      <trkpt lat="44.9717" lon="3.11223">
        <ele>914</ele>
        <time>2019-01-08T22:11:59Z</time>
      </trkpt>
      <trkpt lat="44.97226" lon="3.11205">
        <ele>914</ele>
        <time>2019-01-08T22:12:59Z</time>
      </trkpt>
      <trkpt lat="44.97312" lon="3.1117">
        <ele>915</ele>
        <time>2019-01-08T22:13:59Z</time>
      </trkpt>
      <trkpt lat="44.97369" lon="3.11158">
        <ele>910</ele>
        <time>2019-01-08T22:14:59Z</time>
      </trkpt>
      <trkpt lat="44.97429" lon="3.11073">
        <ele>909</ele>
        <time>2019-01-08T22:15:59Z</time>
      </trkpt>
      <trkpt lat="44.97469" lon="3.1097">
        <ele>910</ele>
        <time>2019-01-08T22:16:59Z</time>
      </trkpt>
      <trkpt lat="44.97511" lon="3.10959">
        <ele>911</ele>
        <time>2019-01-08T22:17:59Z</time>
      </trkpt>
      <trkpt lat="44.97545" lon="3.11">
        <ele>913</ele>
        <time>2019-01-08T22:18:59Z</time>
      </trkpt>
      <trkpt lat="44.97541" lon="3.11034">
        <ele>911</ele>
        <time>2019-01-08T22:19:59Z</time>
      </trkpt>
      <trkpt lat="44.97535" lon="3.11091">
        <ele>908</ele>
        <time>2019-01-08T22:20:59Z</time>
      </trkpt>
      <trkpt lat="44.97566" lon="3.11102">
        <ele>912</ele>
        <time>2019-01-08T22:21:59Z</time>
      </trkpt>
      <trkpt lat="44.97615" lon="3.11081">
        <ele>919</ele>
        <time>2019-01-08T22:22:59Z</time>
      </trkpt>
      <trkpt lat="44.97641" lon="3.11125">
        <ele>921</ele>
        <time>2019-01-08T22:23:59Z</time>
      </trkpt>
      <trkpt lat="44.97664" lon="3.1117">
        <ele>924</ele>
        <time>2019-01-08T22:24:59Z</time>
      </trkpt>
      <trkpt lat="44.97729" lon="3.11197">
        <ele>924</ele>
        <time>2019-01-08T22:25:59Z</time>
      </trkpt>
      <trkpt lat="44.97796" lon="3.11167">
        <ele>926</ele>
        <time>2019-01-08T22:26:59Z</time>
      </trkpt>
      <trkpt lat="44.97842" lon="3.11144">
        <ele>928</ele>
        <time>2019-01-08T22:27:59Z</time>
      </trkpt>
      <trkpt lat="44.9793" lon="3.11216">
        <ele>921</ele>
        <time>2019-01-08T22:28:59Z</time>
      </trkpt>
      <trkpt lat="44.98009" lon="3.11273">
        <ele>923</ele>
        <time>2019-01-08T22:29:59Z</time>
      </trkpt>
      <trkpt lat="44.98089" lon="3.11301">
        <ele>925</ele>
        <time>2019-01-08T22:30:59Z</time>
      </trkpt>
      <trkpt lat="44.9815" lon="3.11261">
        <ele>924</ele>
        <time>2019-01-08T22:31:59Z</time>
      </trkpt>
      <trkpt lat="44.98203" lon="3.11214">
        <ele>922</ele>
        <time>2019-01-08T22:32:59Z</time>
      </trkpt>
      <trkpt lat="44.9831" lon="3.11172">
        <ele>918</ele>
        <time>2019-01-08T22:33:59Z</time>
      </trkpt>
      <trkpt lat="44.984" lon="3.11144">
        <ele>909</ele>
        <time>2019-01-08T22:34:59Z</time>
      </trkpt>
      <trkpt lat="44.9846" lon="3.11088">
        <ele>908</ele>
        <time>2019-01-08T22:35:59Z</time>
      </trkpt>
      <trkpt lat="44.98507" lon="3.11031">
        <ele>910</ele>
        <time>2019-01-08T22:36:59Z</time>
      </trkpt>
      <trkpt lat="44.98537" lon="3.11021">
        <ele>913</ele>
        <time>2019-01-08T22:37:59Z</time>
      </trkpt>
      <trkpt lat="44.98565" lon="3.11055">
        <ele>910</ele>
        <time>2019-01-08T22:38:59Z</time>
      </trkpt>
      <trkpt lat="44.98572" lon="3.11155">
        <ele>903</ele>
        <time>2019-01-08T22:39:59Z</time>
      </trkpt>
      <trkpt lat="44.98599" lon="3.11213">
        <ele>903</ele>
        <time>2019-01-08T22:40:59Z</time>
      </trkpt>
      <trkpt lat="44.98636" lon="3.11264">
        <ele>906</ele>
        <time>2019-01-08T22:41:59Z</time>
      </trkpt>
      <trkpt lat="44.98657" lon="3.11496">
        <ele>900</ele>
        <time>2019-01-08T22:42:59Z</time>
      </trkpt>
      <trkpt lat="44.98724" lon="3.11502">
        <ele>904</ele>
        <time>2019-01-08T22:43:59Z</time>
      </trkpt>
      <trkpt lat="44.98781" lon="3.11484">
        <ele>909</ele>
        <time>2019-01-08T22:44:59Z</time>
      </trkpt>
      <trkpt lat="44.98857" lon="3.11551">
        <ele>899</ele>
        <time>2019-01-08T22:45:59Z</time>
      </trkpt>
      <trkpt lat="44.989" lon="3.11536">
        <ele>904</ele>
        <time>2019-01-08T22:46:59Z</time>
      </trkpt>
      <trkpt lat="44.98931" lon="3.11559">
        <ele>902</ele>
        <time>2019-01-08T22:47:59Z</time>
      </trkpt>
      <trkpt lat="44.98937" lon="3.11618">
        <ele>897</ele>
        <time>2019-01-08T22:48:59Z</time>
      </trkpt>
      <trkpt lat="44.98947" lon="3.11672">
        <ele>895</ele>
        <time>2019-01-08T22:49:59Z</time>
      </trkpt>
      <trkpt lat="44.99005" lon="3.11732">
        <ele>895</ele>
        <time>2019-01-08T22:50:59Z</time>
      </trkpt>
      <trkpt lat="44.99053" lon="3.11776">
        <ele>893</ele>
        <time>2019-01-08T22:51:59Z</time>
      </trkpt>
      <trkpt lat="44.99161" lon="3.11774">
        <ele>895</ele>
        <time>2019-01-08T22:52:59Z</time>
      </trkpt>
      <trkpt lat="44.99202" lon="3.11772">
        <ele>896</ele>
        <time>2019-01-08T22:53:59Z</time>
      </trkpt>
      <trkpt lat="44.9925" lon="3.1181">
        <ele>893</ele>
        <time>2019-01-08T22:54:59Z</time>
      </trkpt>
      <trkpt lat="44.993" lon="3.11826">
        <ele>895</ele>
        <time>2019-01-08T22:55:59Z</time>
      </trkpt>
      <trkpt lat="44.99354" lon="3.11917">
        <ele>891</ele>
        <time>2019-01-08T22:56:59Z</time>
      </trkpt>
      <trkpt lat="44.99497" lon="3.11964">
        <ele>891</ele>
        <time>2019-01-08T22:57:59Z</time>
      </trkpt>
      <trkpt lat="44.996" lon="3.11929">
        <ele>896</ele>
        <time>2019-01-08T22:58:59Z</time>
      </trkpt>
      <trkpt lat="44.9967" lon="3.11952">
        <ele>894</ele>
        <time>2019-01-08T22:59:59Z</time>
      </trkpt>
      <trkpt lat="44.99767" lon="3.11999">
        <ele>890</ele>
        <time>2019-01-08T23:00:59Z</time>
      </trkpt>
      <trkpt lat="44.99801" lon="3.12009">
        <ele>889</ele>
        <time>2019-01-08T23:01:59Z</time>
      </trkpt>
      <trkpt lat="44.99854" lon="3.11961">
        <ele>890</ele>
        <time>2019-01-08T23:02:59Z</time>
      </trkpt>
      <trkpt lat="44.99897" lon="3.11911">
        <ele>892</ele>
        <time>2019-01-08T23:03:59Z</time>
      </trkpt>
      <trkpt lat="44.99969" lon="3.11926">
        <ele>890</ele>
        <time>2019-01-08T23:04:59Z</time>
      </trkpt>
      <trkpt lat="45.00029" lon="3.11976">
        <ele>886</ele>
        <time>2019-01-08T23:05:59Z</time>
      </trkpt>
      <trkpt lat="45.00116" lon="3.12015">
        <ele>885</ele>
        <time>2019-01-08T23:06:59Z</time>
      </trkpt>
      <trkpt lat="45.00184" lon="3.12014">
        <ele>884</ele>
        <time>2019-01-08T23:07:59Z</time>
      </trkpt>
      <trkpt lat="45.00245" lon="3.11986">
        <ele>882</ele>
        <time>2019-01-08T23:08:59Z</time>
      </trkpt>
      <trkpt lat="45.00301" lon="3.11938">
        <ele>878</ele>
        <time>2019-01-08T23:09:59Z</time>
      </trkpt>
      <trkpt lat="45.00337" lon="3.1187">
        <ele>876</ele>
        <time>2019-01-08T23:10:59Z</time>
      </trkpt>
      <trkpt lat="45.00362" lon="3.11824">
        <ele>877</ele>
        <time>2019-01-08T23:11:59Z</time>
      </trkpt>
      <trkpt lat="45.00451" lon="3.11766">
        <ele>880</ele>
        <time>2019-01-08T23:12:59Z</time>
      </trkpt>
      <trkpt lat="45.00528" lon="3.11736">
        <ele>883</ele>
        <time>2019-01-08T23:13:59Z</time>
      </trkpt>
      <trkpt lat="45.00618" lon="3.11728">
        <ele>884</ele>
        <time>2019-01-08T23:14:59Z</time>
      </trkpt>
      <trkpt lat="45.00741" lon="3.11725">
        <ele>883</ele>
        <time>2019-01-08T23:15:59Z</time>
      </trkpt>
      <trkpt lat="45.00795" lon="3.11712">
        <ele>881</ele>
        <time>2019-01-08T23:16:59Z</time>
      </trkpt>
      <trkpt lat="45.00865" lon="3.11668">
        <ele>878</ele>
        <time>2019-01-08T23:17:59Z</time>
      </trkpt>
      <trkpt lat="45.00883" lon="3.11613">
        <ele>878</ele>
        <time>2019-01-08T23:18:59Z</time>
      </trkpt>
      <trkpt lat="45.00873" lon="3.11565">
        <ele>878</ele>
        <time>2019-01-08T23:19:59Z</time>
      </trkpt>
      <trkpt lat="45.00856" lon="3.1146">
        <ele>874</ele>
        <time>2019-01-08T23:20:59Z</time>
      </trkpt>
      <trkpt lat="45.00838" lon="3.11367">
        <ele>870</ele>
        <time>2019-01-08T23:21:59Z</time>
      </trkpt>
      <trkpt lat="45.00819" lon="3.11299">
        <ele>868</ele>
        <time>2019-01-08T23:22:59Z</time>
      </trkpt>
      <trkpt lat="45.00781" lon="3.11226">
        <ele>864</ele>
        <time>2019-01-08T23:23:59Z</time>
      </trkpt>
      <trkpt lat="45.00745" lon="3.11169">
        <ele>859</ele>
        <time>2019-01-08T23:24:59Z</time>
      </trkpt>
      <trkpt lat="45.00709" lon="3.11097">
        <ele>854</ele>
        <time>2019-01-08T23:25:59Z</time>
      </trkpt>
      <trkpt lat="45.00705" lon="3.11094">
        <ele>854</ele>
        <time>2019-01-08T23:26:59Z</time>
      </trkpt>
      <trkpt lat="45.00693" lon="3.11015">
        <ele>850</ele>
        <time>2019-01-08T23:27:59Z</time>
      </trkpt>
      <trkpt lat="45.00695" lon="3.10971">
        <ele>847</ele>
        <time>2019-01-08T23:28:59Z</time>
      </trkpt>
      <trkpt lat="45.00735" lon="3.10917">
        <ele>842</ele>
        <time>2019-01-08T23:29:59Z</time>
      </trkpt>
      <trkpt lat="45.00774" lon="3.10888">
        <ele>841</ele>
        <time>2019-01-08T23:30:59Z</time>
      </trkpt>
      <trkpt lat="45.00811" lon="3.10847">
        <ele>842</ele>
        <time>2019-01-08T23:31:59Z</time>
      </trkpt>
      <trkpt lat="45.00838" lon="3.1085">
        <ele>844</ele>
        <time>2019-01-08T23:32:59Z</time>
      </trkpt>
      <trkpt lat="45.00869" lon="3.10859">
        <ele>844</ele>
        <time>2019-01-08T23:33:59Z</time>
      </trkpt>
      <trkpt lat="45.0089" lon="3.10863">
        <ele>844</ele>
        <time>2019-01-08T23:34:59Z</time>
      </trkpt>
      <trkpt lat="45.00913" lon="3.1085">
        <ele>847</ele>
        <time>2019-01-08T23:35:59Z</time>
      </trkpt>
      <trkpt lat="45.00956" lon="3.10795">
        <ele>852</ele>
        <time>2019-01-08T23:36:59Z</time>
      </trkpt>
      <trkpt lat="45.00973" lon="3.10785">
        <ele>853</ele>
        <time>2019-01-08T23:37:59Z</time>
      </trkpt>
      <trkpt lat="45.00995" lon="3.10789">
        <ele>853</ele>
        <time>2019-01-08T23:38:59Z</time>
      </trkpt>
      <trkpt lat="45.01034" lon="3.10804">
        <ele>850</ele>
        <time>2019-01-08T23:39:59Z</time>
      </trkpt>
      <trkpt lat="45.01048" lon="3.10792">
        <ele>850</ele>
        <time>2019-01-08T23:40:59Z</time>
      </trkpt>
      <trkpt lat="45.01054" lon="3.10763">
        <ele>850</ele>
        <time>2019-01-08T23:41:59Z</time>
      </trkpt>
      <trkpt lat="45.01017" lon="3.10663">
        <ele>854</ele>
        <time>2019-01-08T23:42:59Z</time>
      </trkpt>
      <trkpt lat="45.00999" lon="3.10597">
        <ele>855</ele>
        <time>2019-01-08T23:43:59Z</time>
      </trkpt>
      <trkpt lat="45.00992" lon="3.10551">
        <ele>854</ele>
        <time>2019-01-08T23:44:59Z</time>
      </trkpt>
      <trkpt lat="45.00988" lon="3.10512">
        <ele>852</ele>
        <time>2019-01-08T23:45:59Z</time>
      </trkpt>
      <trkpt lat="45.00972" lon="3.10478">
        <ele>854</ele>
        <time>2019-01-08T23:46:59Z</time>
      </trkpt>
      <trkpt lat="45.00953" lon="3.10422">
        <ele>856</ele>
        <time>2019-01-08T23:47:59Z</time>
      </trkpt>
      <trkpt lat="45.00958" lon="3.10396">
        <ele>857</ele>
        <time>2019-01-08T23:48:59Z</time>
      </trkpt>
      <trkpt lat="45.00966" lon="3.10369">
        <ele>858</ele>
        <time>2019-01-08T23:49:59Z</time>
      </trkpt>
      <trkpt lat="45.00995" lon="3.1034">
        <ele>860</ele>
        <time>2019-01-08T23:50:59Z</time>
      </trkpt>
      <trkpt lat="45.01025" lon="3.10323">
        <ele>861</ele>
        <time>2019-01-08T23:51:59Z</time>
      </trkpt>
      <trkpt lat="45.01055" lon="3.10315">
        <ele>863</ele>
        <time>2019-01-08T23:52:59Z</time>
      </trkpt>
      <trkpt lat="45.01089" lon="3.10295">
        <ele>865</ele>
        <time>2019-01-08T23:53:59Z</time>
      </trkpt>
      <trkpt lat="45.01118" lon="3.10254">
        <ele>867</ele>
        <time>2019-01-08T23:54:59Z</time>
      </trkpt>
      <trkpt lat="45.0113" lon="3.10214">
        <ele>869</ele>
        <time>2019-01-08T23:55:59Z</time>
      </trkpt>
      <trkpt lat="45.01142" lon="3.10195">
        <ele>869</ele>
        <time>2019-01-08T23:56:59Z</time>
      </trkpt>
      <trkpt lat="45.01161" lon="3.10181">
        <ele>869</ele>
        <time>2019-01-08T23:57:59Z</time>
      </trkpt>
      <trkpt lat="45.01188" lon="3.10182">
        <ele>871</ele>
        <time>2019-01-08T23:58:59Z</time>
      </trkpt>
      <trkpt lat="45.01208" lon="3.10193">
        <ele>872</ele>
        <time>2019-01-08T23:59:59Z</time>
      </trkpt>
      <trkpt lat="45.01264" lon="3.10273">
        <ele>871</ele>
        <time>2019-01-09T00:00:59Z</time>
      </trkpt>
      <trkpt lat="45.01295" lon="3.10305">
        <ele>872</ele>
        <time>2019-01-09T00:01:59Z</time>
      </trkpt>
      <trkpt lat="45.01336" lon="3.10367">
        <ele>873</ele>
        <time>2019-01-09T00:02:59Z</time>
      </trkpt>
      <trkpt lat="45.01396" lon="3.10455">
        <ele>875</ele>
        <time>2019-01-09T00:03:59Z</time>
      </trkpt>
      <trkpt lat="45.01437" lon="3.10505">
        <ele>875</ele>
        <time>2019-01-09T00:04:59Z</time>
      </trkpt>
      <trkpt lat="45.01479" lon="3.10518">
        <ele>875</ele>
        <time>2019-01-09T00:05:59Z</time>
      </trkpt>
      <trkpt lat="45.01519" lon="3.10484">
        <ele>876</ele>
        <time>2019-01-09T00:06:59Z</time>
      </trkpt>
      <trkpt lat="45.01548" lon="3.10431">
        <ele>878</ele>
        <time>2019-01-09T00:07:59Z</time>
      </trkpt>
      <trkpt lat="45.01588" lon="3.10426">
        <ele>876</ele>
        <time>2019-01-09T00:08:59Z</time>
      </trkpt>
      <trkpt lat="45.01616" lon="3.10437">
        <ele>875</ele>
        <time>2019-01-09T00:09:59Z</time>
      </trkpt>
      <trkpt lat="45.01654" lon="3.1044">
        <ele>873</ele>
        <time>2019-01-09T00:10:59Z</time>
      </trkpt>
      <trkpt lat="45.01676" lon="3.10425">
        <ele>874</ele>
        <time>2019-01-09T00:11:59Z</time>
      </trkpt>
      <trkpt lat="45.01699" lon="3.10388">
        <ele>876</ele>
        <time>2019-01-09T00:12:59Z</time>
      </trkpt>
      <trkpt lat="45.01709" lon="3.1035">
        <ele>878</ele>
        <time>2019-01-09T00:13:59Z</time>
      </trkpt>
      <trkpt lat="45.01717" lon="3.103">
        <ele>881</ele>
        <time>2019-01-09T00:14:59Z</time>
      </trkpt>
      <trkpt lat="45.0174" lon="3.10252">
        <ele>880</ele>
        <time>2019-01-09T00:15:59Z</time>
      </trkpt>
      <trkpt lat="45.01767" lon="3.10232">
        <ele>881</ele>
        <time>2019-01-09T00:16:59Z</time>
      </trkpt>
      <trkpt lat="45.01798" lon="3.10226">
        <ele>881</ele>
        <time>2019-01-09T00:17:59Z</time>
      </trkpt>
      <trkpt lat="45.01833" lon="3.10226">
        <ele>880</ele>
        <time>2019-01-09T00:18:59Z</time>
      </trkpt>
      <trkpt lat="45.01868" lon="3.10199">
        <ele>880</ele>
        <time>2019-01-09T00:19:59Z</time>
      </trkpt>
      <trkpt lat="45.01894" lon="3.1017">
        <ele>880</ele>
        <time>2019-01-09T00:20:59Z</time>
      </trkpt>
      <trkpt lat="45.0191" lon="3.10119">
        <ele>881</ele>
        <time>2019-01-09T00:21:59Z</time>
      </trkpt>
      <trkpt lat="45.01922" lon="3.10064">
        <ele>882</ele>
        <time>2019-01-09T00:22:59Z</time>
      </trkpt>
      <trkpt lat="45.01935" lon="3.10001">
        <ele>884</ele>
        <time>2019-01-09T00:23:59Z</time>
      </trkpt>
      <trkpt lat="45.01937" lon="3.0997">
        <ele>884</ele>
        <time>2019-01-09T00:24:59Z</time>
      </trkpt>
      <trkpt lat="45.01926" lon="3.09927">
        <ele>883</ele>
        <time>2019-01-09T00:25:59Z</time>
      </trkpt>
      <trkpt lat="45.0191" lon="3.0989">
        <ele>881</ele>
        <time>2019-01-09T00:26:59Z</time>
      </trkpt>
      <trkpt lat="45.01901" lon="3.09858">
        <ele>880</ele>
        <time>2019-01-09T00:27:59Z</time>
      </trkpt>
      <trkpt lat="45.01901" lon="3.09827">
        <ele>879</ele>
        <time>2019-01-09T00:28:59Z</time>
      </trkpt>
      <trkpt lat="45.01916" lon="3.09769">
        <ele>873</ele>
        <time>2019-01-09T00:29:59Z</time>
      </trkpt>
      <trkpt lat="45.01935" lon="3.09717">
        <ele>867</ele>
        <time>2019-01-09T00:30:59Z</time>
      </trkpt>
      <trkpt lat="45.01952" lon="3.09692">
        <ele>864</ele>
        <time>2019-01-09T00:31:59Z</time>
      </trkpt>
      <trkpt lat="45.01975" lon="3.09689">
        <ele>865</ele>
        <time>2019-01-09T00:32:59Z</time>
      </trkpt>
      <trkpt lat="45.02008" lon="3.09697">
        <ele>868</ele>
        <time>2019-01-09T00:33:59Z</time>
      </trkpt>
      <trkpt lat="45.02028" lon="3.09685">
        <ele>866</ele>
        <time>2019-01-09T00:34:59Z</time>
      </trkpt>
      <trkpt lat="45.02056" lon="3.09663">
        <ele>861</ele>
        <time>2019-01-09T00:35:59Z</time>
      </trkpt>
      <trkpt lat="45.02088" lon="3.09667">
        <ele>862</ele>
        <time>2019-01-09T00:36:59Z</time>
      </trkpt>
      <trkpt lat="45.02121" lon="3.09681">
        <ele>864</ele>
        <time>2019-01-09T00:37:59Z</time>
      </trkpt>
      <trkpt lat="45.02151" lon="3.09689">
        <ele>865</ele>
        <time>2019-01-09T00:38:59Z</time>
      </trkpt>
      <trkpt lat="45.02164" lon="3.09679">
        <ele>863</ele>
        <time>2019-01-09T00:39:59Z</time>
      </trkpt>
      <trkpt lat="45.02167" lon="3.09659">
        <ele>862</ele>
        <time>2019-01-09T00:40:59Z</time>
      </trkpt>
      <trkpt lat="45.02161" lon="3.09634">
        <ele>863</ele>
        <time>2019-01-09T00:41:59Z</time>
      </trkpt>
      <trkpt lat="45.02144" lon="3.09603">
        <ele>861</ele>
        <time>2019-01-09T00:42:59Z</time>
      </trkpt>
      <trkpt lat="45.02133" lon="3.09579">
        <ele>859</ele>
        <time>2019-01-09T00:43:59Z</time>
      </trkpt>
      <trkpt lat="45.02118" lon="3.09556">
        <ele>859</ele>
        <time>2019-01-09T00:44:59Z</time>
      </trkpt>
      <trkpt lat="45.02095" lon="3.09536">
        <ele>856</ele>
        <time>2019-01-09T00:45:59Z</time>
      </trkpt>
      <trkpt lat="45.02065" lon="3.0952">
        <ele>851</ele>
        <time>2019-01-09T00:46:59Z</time>
      </trkpt>
      <trkpt lat="45.02047" lon="3.09506">
        <ele>846</ele>
        <time>2019-01-09T00:47:59Z</time>
      </trkpt>
      <trkpt lat="45.02037" lon="3.09478">
        <ele>843</ele>
        <time>2019-01-09T00:48:59Z</time>
      </trkpt>
      <trkpt lat="45.02035" lon="3.09441">
        <ele>841</ele>
        <time>2019-01-09T00:49:59Z</time>
      </trkpt>
      <trkpt lat="45.02039" lon="3.09386">
        <ele>838</ele>
        <time>2019-01-09T00:50:59Z</time>
      </trkpt>
      <trkpt lat="45.02057" lon="3.09333">
        <ele>836</ele>
        <time>2019-01-09T00:51:59Z</time>
      </trkpt>
      <trkpt lat="45.02075" lon="3.09309">
        <ele>834</ele>
        <time>2019-01-09T00:52:59Z</time>
      </trkpt>
      <trkpt lat="45.02104" lon="3.09292">
        <ele>833</ele>
        <time>2019-01-09T00:53:59Z</time>
      </trkpt>
      <trkpt lat="45.02136" lon="3.09284">
        <ele>834</ele>
        <time>2019-01-09T00:54:59Z</time>
      </trkpt>
      <trkpt lat="45.02163" lon="3.09268">
        <ele>831</ele>
        <time>2019-01-09T00:55:59Z</time>
      </trkpt>
      <trkpt lat="45.02189" lon="3.09248">
        <ele>829</ele>
        <time>2019-01-09T00:56:59Z</time>
      </trkpt>
      <trkpt lat="45.02206" lon="3.09229">
        <ele>827</ele>
        <time>2019-01-09T00:57:59Z</time>
      </trkpt>
      <trkpt lat="45.02231" lon="3.0921">
        <ele>825</ele>
        <time>2019-01-09T00:58:59Z</time>
      </trkpt>
      <trkpt lat="45.02252" lon="3.09205">
        <ele>825</ele>
        <time>2019-01-09T00:59:59Z</time>
      </trkpt>
      <trkpt lat="45.0229" lon="3.09205">
        <ele>821</ele>
        <time>2019-01-09T01:00:59Z</time>
      </trkpt>
      <trkpt lat="45.02316" lon="3.09219">
        <ele>821</ele>
        <time>2019-01-09T01:01:59Z</time>
      </trkpt>
      <trkpt lat="45.02371" lon="3.09289">
        <ele>826</ele>
        <time>2019-01-09T01:02:59Z</time>
      </trkpt>
      <trkpt lat="45.024" lon="3.09309">
        <ele>824</ele>
        <time>2019-01-09T01:03:59Z</time>
      </trkpt>
      <trkpt lat="45.02436" lon="3.09325">
        <ele>821</ele>
        <time>2019-01-09T01:04:59Z</time>
      </trkpt>
      <trkpt lat="45.02495" lon="3.09327">
        <ele>814</ele>
        <time>2019-01-09T01:05:59Z</time>
      </trkpt>
      <trkpt lat="45.02538" lon="3.09337">
        <ele>810</ele>
        <time>2019-01-09T01:06:59Z</time>
      </trkpt>
      <trkpt lat="45.02594" lon="3.09359">
        <ele>808</ele>
        <time>2019-01-09T01:07:59Z</time>
      </trkpt>
      <trkpt lat="45.02644" lon="3.09401">
        <ele>809</ele>
        <time>2019-01-09T01:08:59Z</time>
      </trkpt>
      <trkpt lat="45.02698" lon="3.09416">
        <ele>805</ele>
        <time>2019-01-09T01:09:59Z</time>
      </trkpt>
      <trkpt lat="45.02729" lon="3.09408">
        <ele>804</ele>
        <time>2019-01-09T01:10:59Z</time>
      </trkpt>
      <trkpt lat="45.02772" lon="3.0938">
        <ele>800</ele>
        <time>2019-01-09T01:11:59Z</time>
      </trkpt>
      <trkpt lat="45.02826" lon="3.09349">
        <ele>794</ele>
        <time>2019-01-09T01:12:59Z</time>
      </trkpt>
      <trkpt lat="45.0288" lon="3.09339">
        <ele>790</ele>
        <time>2019-01-09T01:13:59Z</time>
      </trkpt>
      <trkpt lat="45.02924" lon="3.09335">
        <ele>787</ele>
        <time>2019-01-09T01:14:59Z</time>
      </trkpt>
      <trkpt lat="45.02966" lon="3.09322">
        <ele>788</ele>
        <time>2019-01-09T01:15:59Z</time>
      </trkpt>
      <trkpt lat="45.03008" lon="3.09303">
        <ele>790</ele>
        <time>2019-01-09T01:16:59Z</time>
      </trkpt>
      <trkpt lat="45.03038" lon="3.0942">
        <ele>793</ele>
        <time>2019-01-09T01:17:59Z</time>
      </trkpt>
      <trkpt lat="45.03074" lon="3.09517">
        <ele>790</ele>
        <time>2019-01-09T01:18:59Z</time>
      </trkpt>
      <trkpt lat="45.03085" lon="3.09564">
        <ele>788</ele>
        <time>2019-01-09T01:19:59Z</time>
      </trkpt>
      <trkpt lat="45.03097" lon="3.09557">
        <ele>792</ele>
        <time>2019-01-09T01:20:59Z</time>
      </trkpt>
      <trkpt lat="45.03091" lon="3.09526">
        <ele>792</ele>
        <time>2019-01-09T01:21:59Z</time>
      </trkpt>
      <trkpt lat="45.03082" lon="3.0947">
        <ele>794</ele>
        <time>2019-01-09T01:22:59Z</time>
      </trkpt>
      <trkpt lat="45.03066" lon="3.09346">
        <ele>802</ele>
        <time>2019-01-09T01:23:59Z</time>
      </trkpt>
      <trkpt lat="45.03064" lon="3.09218">
        <ele>808</ele>
        <time>2019-01-09T01:24:59Z</time>
      </trkpt>
      <trkpt lat="45.03064" lon="3.09165">
        <ele>811</ele>
        <time>2019-01-09T01:25:59Z</time>
      </trkpt>
      <trkpt lat="45.03075" lon="3.09077">
        <ele>812</ele>
        <time>2019-01-09T01:26:59Z</time>
      </trkpt>
      <trkpt lat="45.03082" lon="3.0901">
        <ele>812</ele>
        <time>2019-01-09T01:27:59Z</time>
      </trkpt>
      <trkpt lat="45.03091" lon="3.08884">
        <ele>819</ele>
        <time>2019-01-09T01:28:59Z</time>
      </trkpt>
      <trkpt lat="45.03104" lon="3.08785">
        <ele>826</ele>
        <time>2019-01-09T01:29:59Z</time>
      </trkpt>
      <trkpt lat="45.0314" lon="3.08677">
        <ele>831</ele>
        <time>2019-01-09T01:30:59Z</time>
      </trkpt>
      <trkpt lat="45.03167" lon="3.08617">
        <ele>838</ele>
        <time>2019-01-09T01:31:59Z</time>
      </trkpt>
      <trkpt lat="45.03183" lon="3.08574">
        <ele>843</ele>
        <time>2019-01-09T01:32:59Z</time>
      </trkpt>
      <trkpt lat="45.03189" lon="3.08533">
        <ele>844</ele>
        <time>2019-01-09T01:33:59Z</time>
      </trkpt>
      <trkpt lat="45.03191" lon="3.08481">
        <ele>845</ele>
        <time>2019-01-09T01:34:59Z</time>
      </trkpt>
      <trkpt lat="45.03193" lon="3.08412">
        <ele>846</ele>
        <time>2019-01-09T01:35:59Z</time>
      </trkpt>
      <trkpt lat="45.03195" lon="3.08328">
        <ele>848</ele>
        <time>2019-01-09T01:36:59Z</time>
      </trkpt>
      <trkpt lat="45.03199" lon="3.08286">
        <ele>849</ele>
        <time>2019-01-09T01:37:59Z</time>
      </trkpt>
      <trkpt lat="45.03212" lon="3.08292">
        <ele>855</ele>
        <time>2019-01-09T01:38:59Z</time>
      </trkpt>
      <trkpt lat="45.03213" lon="3.08329">
        <ele>855</ele>
        <time>2019-01-09T01:39:59Z</time>
      </trkpt>
      <trkpt lat="45.03215" lon="3.08375">
        <ele>856</ele>
        <time>2019-01-09T01:40:59Z</time>
      </trkpt>
      <trkpt lat="45.03221" lon="3.08425">
        <ele>858</ele>
        <time>2019-01-09T01:41:59Z</time>
      </trkpt>
      <trkpt lat="45.03233" lon="3.085">
        <ele>863</ele>
        <time>2019-01-09T01:42:59Z</time>
      </trkpt>
      <trkpt lat="45.03246" lon="3.08568">
        <ele>867</ele>
        <time>2019-01-09T01:43:59Z</time>
      </trkpt>
      <trkpt lat="45.03252" lon="3.08612">
        <ele>869</ele>
        <time>2019-01-09T01:44:59Z</time>
      </trkpt>
      <trkpt lat="45.03263" lon="3.08674">
        <ele>871</ele>
        <time>2019-01-09T01:45:59Z</time>
      </trkpt>
      <trkpt lat="45.03263" lon="3.08714">
        <ele>873</ele>
        <time>2019-01-09T01:46:59Z</time>
      </trkpt>
      <trkpt lat="45.03252" lon="3.08747">
        <ele>874</ele>
        <time>2019-01-09T01:47:59Z</time>
      </trkpt>
      <trkpt lat="45.03246" lon="3.0878">
        <ele>873</ele>
        <time>2019-01-09T01:48:59Z</time>
      </trkpt>
      <trkpt lat="45.03258" lon="3.08809">
        <ele>875</ele>
        <time>2019-01-09T01:49:59Z</time>
      </trkpt>
      <trkpt lat="45.03275" lon="3.08818">
        <ele>877</ele>
        <time>2019-01-09T01:50:59Z</time>
      </trkpt>
      <trkpt lat="45.03287" lon="3.08824">
        <ele>878</ele>
        <time>2019-01-09T01:51:59Z</time>
      </trkpt>
      <trkpt lat="45.03303" lon="3.08828">
        <ele>879</ele>
        <time>2019-01-09T01:52:59Z</time>
      </trkpt>
      <trkpt lat="45.03427" lon="3.08879">
        <ele>881</ele>
        <time>2019-01-09T01:53:59Z</time>
      </trkpt>
      <trkpt lat="45.03457" lon="3.08892">
        <ele>879</ele>
        <time>2019-01-09T01:54:59Z</time>
      </trkpt>
      <trkpt lat="45.03462" lon="3.08902">
        <ele>879</ele>
        <time>2019-01-09T01:55:59Z</time>
      </trkpt>
      <trkpt lat="45.03445" lon="3.08994">
        <ele>881</ele>
        <time>2019-01-09T01:56:59Z</time>
      </trkpt>
      <trkpt lat="45.03413" lon="3.09159">
        <ele>883</ele>
        <time>2019-01-09T01:57:59Z</time>
      </trkpt>
      <trkpt lat="45.03393" lon="3.09255">
        <ele>887</ele>
        <time>2019-01-09T01:58:59Z</time>
      </trkpt>
      <trkpt lat="45.03386" lon="3.09322">
        <ele>888</ele>
        <time>2019-01-09T01:59:59Z</time>
      </trkpt>
      <trkpt lat="45.03376" lon="3.09413">
        <ele>888</ele>
        <time>2019-01-09T02:00:59Z</time>
      </trkpt>
      <trkpt lat="45.03369" lon="3.09462">
        <ele>886</ele>
        <time>2019-01-09T02:01:59Z</time>
      </trkpt>
      <trkpt lat="45.03356" lon="3.09464">
        <ele>887</ele>
        <time>2019-01-09T02:02:59Z</time>
      </trkpt>
      <trkpt lat="45.03359" lon="3.09509">
        <ele>883</ele>
        <time>2019-01-09T02:03:59Z</time>
      </trkpt>
      <trkpt lat="45.03362" lon="3.09525">
        <ele>881</ele>
        <time>2019-01-09T02:04:59Z</time>
      </trkpt>
      <trkpt lat="45.03385" lon="3.09516">
        <ele>880</ele>
        <time>2019-01-09T02:05:59Z</time>
      </trkpt>
      <trkpt lat="45.03385" lon="3.09516">
        <ele>880</ele>
        <time>2019-01-09T02:06:59Z</time>
      </trkpt>
      <trkpt lat="45.03393" lon="3.09504">
        <ele>882</ele>
        <time>2019-01-09T02:07:59Z</time>
      </trkpt>
    </trkseg>
  </trk>
</gpx>